[[{"header":{"parameterUnit":"m.s-1","parameterCategory":1,"la1":30.6,"la2":28.766,"lo1":-90.7593,"lo2":-88.6598,"dx":0.0162,"dy":0.0183,"nx":116,"ny":114,"refTime":"2022-11-11T06:00:00:Z","depth":0,"parameterNumber":2,"parameterNumberName":"U-component_of_WINDS"},"data":[0.0,0.0,0.0,0.0,0.0,0.0,0.0,0.0,0.0,0.0,0.0,0.0,0.0,0.0,0.0,0.0,0.0,0.0,0.0,0.0,0.0,0.0,0.0,0.0,0.0,0.0,0.0,0.0,0.0,0.0,0.0,0.0,0.0,0.0,0.0,0.0,0.0,0.0,0.0,0.0,0.0,0.0,0.0,0.0,0.0,0.0,0.0,0.0,0.0,0.0,0.0,0.0,0.0,0.0,0.0,0.0,0.0,0.0,0.0,0.0,0.0,0.0,0.0,0.0,0.0,0.0,0.0,0.0,0.0,0.0,0.0,0.0,0.0,0.0,0.0,0.0,0.0,0.0,0.0,0.0,0.0,0.0,0.0,0.0,0.0,0.0,0.0,0.0,0.0,0.0,0.0,0.0,0.0,0.0,0.0,0.0,0.0,0.0,0.0,0.0,0.0,0.0,0.0,0.0,0.0,0.0,0.0,0.0,0.0,0.0,0.0,0.0,0.0,0.0,0.0,0.0,0.0,0.0,0.0,0.0,0.0,0.0,0.0,0.0,0.0,0.0,0.0,0.0,0.0,0.0,0.0,0.0,0.0,0.0,0.0,0.0,0.0,0.0,0.0,0.0,0.0,0.0,0.0,0.0,0.0,0.0,0.0,0.0,0.0,0.0,0.0,0.0,0.0,0.0,0.0,0.0,0.0,0.0,0.0,0.0,0.0,0.0,0.0,0.0,0.0,0.0,0.0,0.0,0.0,0.0,0.0,0.0,0.0,0.0,0.0,0.0,0.0,0.0,0.0,0.0,0.0,0.0,0.0,0.0,0.0,0.0,0.0,0.0,0.0,0.0,0.0,0.0,0.0,0.0,0.0,0.0,0.0,0.0,0.0,0.0,0.0,0.0,0.0,0.0,0.0,0.0,0.0,0.0,0.0,0.0,0.0,0.0,0.0,0.0,0.0,0.0,0.0,0.0,0.0,0.0,0.0,0.0,0.0,0.0,0.0,0.0,0.0,0.0,0.0,0.0,0.0,0.0,0.0,0.0,0.0,0.0,0.0,0.0,0.0,0.0,0.0,0.0,0.0,0.0,0.0,0.0,0.0,0.0,0.0,0.0,0.0,0.0,0.0,0.0,0.0,0.0,0.0,0.0,0.0,0.0,0.0,0.0,0.0,0.0,0.0,0.0,0.0,0.0,0.0,0.0,0.0,0.0,0.0,0.0,0.0,0.0,0.0,0.0,0.0,0.0,0.0,0.0,0.0,0.0,0.0,0.0,0.0,0.0,0.0,0.0,0.0,0.0,0.0,0.0,0.0,0.0,0.0,0.0,0.0,0.0,0.0,0.0,0.0,0.0,0.0,0.0,0.0,0.0,0.0,0.0,0.0,0.0,0.0,0.0,0.0,0.0,0.0,0.0,0.0,0.0,0.0,0.0,0.0,0.0,0.0,0.0,0.0,0.0,0.0,0.0,0.0,0.0,0.0,0.0,0.0,0.0,0.0,0.0,0.0,0.0,0.0,0.0,0.0,0.0,0.0,0.0,0.0,0.0,0.0,0.0,0.0,0.0,0.0,0.0,0.0,0.0,0.0,0.0,0.0,0.0,0.0,0.0,0.0,0.0,0.0,0.0,0.0,0.0,0.0,0.0,0.0,0.0,0.0,0.0,0.0,0.0,0.0,0.0,0.0,0.0,0.0,0.0,0.0,0.0,0.0,0.0,0.0,0.0,0.0,0.0,0.0,0.0,0.0,0.0,0.0,0.0,0.0,0.0,0.0,0.0,0.0,0.0,0.0,0.0,0.0,0.0,0.0,0.0,0.0,0.0,0.0,0.0,0.0,0.0,0.0,0.0,0.0,0.0,0.0,0.0,0.0,0.0,0.0,0.0,0.0,0.0,0.0,0.0,0.0,0.0,0.0,0.0,0.0,0.0,0.0,0.0,0.0,0.0,0.0,0.0,0.0,0.0,0.0,0.0,0.0,0.0,0.0,0.0,0.0,0.0,0.0,0.0,0.0,0.0,0.0,0.0,0.0,0.0,0.0,0.0,0.0,0.0,0.0,0.0,0.0,0.0,0.0,0.0,0.0,0.0,0.0,0.0,0.0,0.0,0.0,0.0,0.0,0.0,0.0,0.0,0.0,0.0,0.0,0.0,0.0,0.0,0.0,0.0,0.0,0.0,0.0,0.0,0.0,0.0,0.0,0.0,0.0,0.0,0.0,0.0,0.0,0.0,0.0,0.0,0.0,0.0,0.0,0.0,0.0,0.0,0.0,0.0,0.0,0.0,0.0,0.0,0.0,0.0,0.0,0.0,0.0,0.0,0.0,0.0,0.0,0.0,0.0,0.0,0.0,0.0,0.0,0.0,0.0,0.0,0.0,0.0,0.0,0.0,0.0,0.0,0.0,0.0,0.0,0.0,0.0,0.0,0.0,0.0,0.0,0.0,0.0,0.0,0.0,0.0,0.0,0.0,0.0,0.0,0.0,0.0,0.0,0.0,0.0,0.0,0.0,0.0,0.0,0.0,0.0,0.0,0.0,0.0,0.0,0.0,0.0,0.0,0.0,0.0,0.0,0.0,0.0,0.0,0.0,0.0,0.0,0.0,0.0,0.0,0.0,0.0,0.0,0.0,0.0,0.0,0.0,0.0,0.0,0.0,0.0,0.0,0.0,0.0,0.0,0.0,0.0,0.0,0.0,0.0,0.0,0.0,0.0,0.0,0.0,0.0,0.0,0.0,0.0,0.0,0.0,0.0,0.0,0.0,0.0,0.0,0.0,0.0,0.0,0.0,0.0,0.0,0.0,0.0,0.0,0.0,0.0,0.0,0.0,0.0,0.0,0.0,0.0,0.0,0.0,0.0,0.0,0.0,0.0,0.0,0.0,0.0,0.0,0.0,0.0,0.0,0.0,0.0,0.0,0.0,0.0,0.0,0.0,0.0,0.0,0.0,0.0,0.0,0.0,0.0,0.0,0.0,0.0,0.0,0.0,0.0,0.0,0.0,0.0,0.0,0.0,0.0,0.0,0.0,0.0,0.0,0.0,0.0,0.0,0.0,0.0,0.0,0.0,0.0,0.0,0.0,0.0,0.0,0.0,0.0,0.0,0.0,0.0,0.0,0.0,0.0,0.0,0.0,0.0,0.0,0.0,0.0,0.0,0.0,0.0,0.0,0.0,0.0,0.0,0.0,0.0,0.0,0.0,0.0,0.0,0.0,0.0,0.0,0.0,0.0,0.0,0.0,0.0,0.0,0.0,0.0,0.0,0.0,0.0,0.0,0.0,0.0,0.0,0.0,0.0,0.0,0.0,0.0,0.0,0.0,0.0,0.0,0.0,0.0,0.0,0.0,0.0,0.0,0.0,0.0,0.0,0.0,0.0,0.0,0.0,0.0,0.0,0.0,0.0,0.0,0.0,0.0,0.0,0.0,0.0,0.0,0.0,0.0,0.0,0.0,0.0,0.0,0.0,0.0,0.0,0.0,0.0,0.0,0.0,0.0,0.0,0.0,0.0,0.0,0.0,0.0,0.0,0.0,0.0,0.0,0.0,0.0,0.0,0.0,0.0,0.0,0.0,0.0,0.0,0.0,0.0,0.0,0.0,0.0,0.0,0.0,0.0,0.0,0.0,0.0,0.0,0.0,0.0,0.0,0.0,0.0,0.0,0.0,0.0,0.0,0.0,0.0,0.0,0.0,0.0,0.0,0.0,0.0,0.0,0.0,0.0,0.0,0.0,0.0,0.0,0.0,0.0,0.0,0.0,0.0,0.0,0.0,0.0,0.0,0.0,0.0,0.0,0.0,0.0,0.0,0.0,0.0,0.0,0.0,0.0,0.0,0.0,0.0,0.0,0.0,0.0,0.0,0.0,0.0,0.0,0.0,0.0,0.0,0.0,0.0,0.0,0.0,0.0,0.0,0.0,0.0,0.0,0.0,0.0,0.0,0.0,0.0,0.0,0.0,0.0,0.0,0.0,0.0,0.0,0.0,0.0,0.0,0.0,0.0,0.0,0.0,0.0,0.0,0.0,0.0,0.0,0.0,0.0,0.0,0.0,0.0,0.0,0.0,0.0,0.0,0.0,0.0,0.0,0.0,0.0,0.0,0.0,0.0,0.0,0.0,0.0,0.0,0.0,0.0,0.0,0.0,0.0,0.0,0.0,0.0,0.0,0.0,0.0,0.0,0.0,0.0,0.0,0.0,0.0,0.0,0.0,0.0,0.0,0.0,0.0,0.0,0.0,0.0,0.0,0.0,0.0,0.0,0.0,0.0,0.0,0.0,0.0,0.0,0.0,0.0,0.0,0.0,0.0,0.0,0.0,0.0,0.0,0.0,0.0,0.0,0.0,0.0,0.0,0.0,0.0,0.0,0.0,0.0,0.0,0.0,0.0,0.0,0.0,0.0,0.0,0.0,0.0,0.0,0.0,0.0,0.0,0.0,0.0,0.0,0.0,0.0,0.0,0.0,0.0,0.0,0.0,0.0,0.0,0.0,0.0,0.0,0.0,0.0,0.0,0.0,0.0,0.0,0.0,0.0,0.0,0.0,0.0,0.0,0.0,0.0,0.0,0.0,0.0,0.0,0.0,0.0,0.0,0.0,0.0,0.0,0.0,0.0,0.0,0.0,0.0,0.0,0.0,0.0,0.0,0.0,0.0,0.0,0.0,0.0,0.0,0.0,0.0,0.0,0.0,0.0,0.0,0.0,0.0,0.0,0.0,0.0,0.0,0.0,0.0,0.0,0.0,0.0,0.0,0.0,0.0,0.0,0.0,0.0,0.0,0.0,0.0,0.0,0.0,0.0,0.0,0.0,0.0,0.0,0.0,0.0,0.0,0.0,0.0,0.0,0.0,0.0,0.0,0.0,0.0,0.0,0.0,0.0,0.0,0.0,0.0,0.0,0.0,0.0,0.0,0.0,0.0,0.0,0.0,0.0,0.0,0.0,0.0,0.0,0.0,0.0,0.0,0.0,0.0,0.0,0.0,0.0,0.0,0.0,0.0,0.0,0.0,0.0,0.0,0.0,0.0,0.0,0.0,0.0,0.0,0.0,0.0,0.0,0.0,0.0,0.0,0.0,0.0,0.0,0.0,0.0,0.0,0.0,0.0,0.0,0.0,0.0,0.0,0.0,0.0,0.0,0.0,0.0,0.0,0.0,0.0,0.0,0.0,0.0,0.0,0.0,0.0,0.0,0.0,0.0,0.0,0.0,0.0,0.0,0.0,0.0,0.0,0.0,0.0,0.0,0.0,0.0,0.0,0.0,0.0,0.0,0.0,0.0,0.0,0.0,0.0,0.0,0.0,0.0,0.0,0.0,0.0,0.0,0.0,0.0,0.0,0.0,0.0,0.0,0.0,0.0,0.0,0.0,0.0,0.0,0.0,0.0,0.0,0.0,0.0,0.0,0.0,0.0,0.0,0.0,0.0,0.0,0.0,0.0,0.0,0.0,0.0,0.0,0.0,0.0,0.0,0.0,0.0,0.0,0.0,0.0,0.0,0.0,0.0,0.0,0.0,0.0,0.0,0.0,0.0,0.0,0.0,0.0,0.0,0.0,0.0,0.0,0.0,0.0,0.0,0.0,0.0,0.0,0.0,0.0,0.0,0.0,0.0,0.0,0.0,0.0,0.0,0.0,0.0,0.0,0.0,0.0,0.0,0.0,0.0,0.0,0.0,0.0,0.0,0.0,0.0,0.0,0.0,0.0,0.0,0.0,0.0,0.0,0.0,0.0,0.0,0.0,0.0,0.0,0.0,0.0,0.0,0.0,0.0,0.0,0.0,0.0,0.0,0.0,0.0,0.0,0.0,0.0,0.0,0.0,0.0,0.0,0.0,0.0,0.0,0.0,0.0,0.0,0.0,0.0,0.0,0.0,0.0,0.0,0.0,0.0,0.0,0.0,0.0,0.0,0.0,0.0,0.0,0.0,0.0,0.0,0.0,0.0,0.0,0.0,0.0,0.0,0.0,0.0,0.0,0.0,0.0,0.0,0.0,0.0,0.0,0.0,0.0,0.0,0.0,0.0,0.0,0.0,0.0,0.0,0.0,0.0,0.0,0.0,0.0,0.0,0.0,0.0,0.0,0.0,0.0,0.0,0.0,0.0,0.0,0.0,0.0,0.0,-1.3814,0.0,0.0,0.0,0.0,0.0,0.0,0.0,0.0,0.0,0.0,0.0,0.0,0.0,0.0,0.0,0.0,0.0,0.0,0.0,0.0,0.0,0.0,0.0,0.0,0.9018,0.9138,0.9432,0.9459,0.0,0.0,0.0,0.0,0.0,0.0,0.0,0.7981,0.7909,0.7909,0.7981,0.8484,0.8595,0.8292,0.72,0.5834,0.4148,0.0,0.0,0.0,0.0,0.0,0.0,0.0,0.0,0.0,0.0,0.0,0.0,0.0,0.0,0.0,0.0,0.0,0.0,0.0,0.0,0.0,0.0,0.0,0.0,0.0,0.0,0.0,0.0,0.0,0.0,0.0,0.0,0.0,0.0,0.0,0.0,0.0,0.0,0.0,0.0,0.0,0.0,0.0,0.0,0.0,0.0,0.0,0.0,0.0,0.0,0.0,0.0,0.0,0.0,0.0,0.0,0.0,0.0,0.0,0.0,0.0,0.0,0.0,0.0,0.0,0.0,0.0,0.0,0.0,0.0,0.0,-1.591,0.0,0.0,0.0,0.0,0.0,0.0,0.0,0.0,0.0,0.0,0.0,0.0,0.0,0.0,0.0,0.0,0.0,0.0,0.0,0.0,0.0,0.8925,0.915,0.9066,0.9141,0.9493,0.9401,0.9355,0.9407,0.9407,0.0,0.0,0.0,0.0,0.7121,0.707,0.7138,0.742,0.838,0.8663,0.8341,0.8195,0.6713,0.4072,0.0061,0.0,0.0,0.0,0.0,0.0,0.0,0.0,0.0,0.0,0.0,0.0,0.0,0.0,0.0,0.0,0.0,0.0,0.0,0.0,0.0,0.0,0.0,0.0,0.0,0.0,0.0,0.0,0.0,0.0,0.0,0.0,0.0,0.0,0.0,0.0,0.0,0.0,0.0,0.0,0.0,0.0,0.0,0.0,0.0,0.0,0.0,0.0,0.0,0.0,0.0,0.0,0.0,0.0,0.0,0.0,0.0,0.0,0.0,0.0,0.0,0.0,0.0,0.0,-1.5587,-1.7093,-1.7528,-1.8262,-1.8744,-1.9098,-2.0338,-2.017,-1.907,-1.9485,0.0,0.0,0.0,0.0,0.0,0.0,0.0,0.0,0.0,0.0,0.0,0.0,0.0,0.0,0.0,0.0,0.0,0.0,0.0,0.8925,0.915,0.8552,0.8281,0.8884,0.8198,0.7913,0.8185,0.8196,0.0,0.0,0.0,0.7431,0.7121,0.7429,0.7941,0.8554,0.9348,0.9707,0.9639,0.8857,0.7311,0.4947,0.1132,-0.1603,-0.3439,0.0,0.0,0.0,0.0,0.0,0.0,0.0,0.0,0.0,0.0,0.0,0.0,0.0,0.0,0.0,0.0,0.0,0.0,0.0,0.0,0.0,0.0,0.0,0.0,0.0,0.0,0.0,0.0,0.0,0.0,0.0,0.0,0.0,0.0,0.0,0.0,0.0,0.0,0.0,0.0,0.0,0.6898,0.7409,0.0,0.0,0.0,0.0,0.0,0.0,0.0,0.0,0.0,0.0,0.0,0.0,0.0,-1.2777,-1.4275,-1.4654,-1.4797,-1.4665,-1.5046,-1.6447,-1.8553,-1.865,-1.96,-2.1262,-2.2233,0.0,-1.9973,-2.0145,0.0,0.0,0.0,0.0,0.0,0.0,0.0,0.0,0.0,0.0,0.0,0.0,0.0,0.0,0.0,0.0,0.0,0.0,0.0,0.0,0.0,0.8305,0.8681,0.917,0.895,0.913,0.9694,0.9009,0.0,0.0,0.7767,0.726,0.6197,0.6396,0.7039,0.7979,0.8383,0.8577,0.8714,0.8462,0.7501,0.5834,0.4444,0.1422,-0.3025,-0.8411,0.0,0.0,0.0,0.0,0.0,0.0,0.0,0.0,0.0,0.0,0.0,0.0,0.0,0.0,0.0,0.0,0.0,0.0,0.0,0.0,0.0,0.0,0.0,0.0,0.0,0.0,0.0,0.0,0.0,0.0,0.0,0.0,0.0,0.0,0.0,0.0,0.0,0.0,0.0,0.5398,0.6675,0.5659,0.3406,0.0087,0.0,0.0,0.0,0.0,0.0,0.0,0.0,0.0,0.0,-1.4311,-1.4435,-1.4733,-1.5098,-1.6321,-1.7008,-1.7067,-1.7954,-1.9162,-2.031,-2.0615,-2.133,-2.2432,-2.3171,-2.2982,-2.2164,-2.224,-2.188,-2.0989,0.0,0.0,0.0,0.0,-2.0294,-2.0294,0.0,0.0,0.0,0.0,0.0,0.0,0.0,0.0,0.0,0.0,0.0,0.0,0.7437,0.836,0.8974,0.9105,0.9064,0.9051,0.8986,0.8441,0.7502,0.604,0.5947,0.5359,0.4023,0.4956,0.6171,0.7825,0.7707,0.7905,0.8191,0.7827,0.726,0.649,0.6891,0.4206,-0.1067,-0.628,-0.8191,-0.7735,0.0,0.0,0.0,0.0,0.0,0.0,0.0,0.0,0.0,0.0,0.0,0.0,0.0,0.0,0.0,0.0,0.0,0.0,0.0,0.0,0.0,0.0,0.0,0.0,0.0,0.0,0.0,0.0,0.0,0.0,0.0,0.0,0.0,0.0,0.0,0.0,0.0,0.2619,0.4738,0.3339,-0.0908,-0.401,0.0,0.0,0.0,0.0,0.0,0.0,-1.2705,-1.4398,-1.5395,-1.5541,-1.6393,-1.6727,-1.6616,-1.8173,-1.9181,-1.9714,-2.0902,-2.1683,-2.2138,-2.2565,-2.2926,-2.3233,-2.3688,-2.3968,-2.4165,-2.3966,-2.3356,-2.2432,-2.2365,-2.1924,-2.143,-2.2017,-2.2098,-2.2031,0.0,0.0,0.0,0.0,0.0,0.0,0.0,0.0,0.0,0.0,0.0,0.8244,0.8504,0.8704,0.859,0.813,0.7326,0.5864,0.3457,0.4754,0.4098,0.0765,0.0458,0.0332,0.0266,0.3124,0.6172,0.9173,0.8557,0.8586,0.9165,0.7288,0.661,0.7027,0.705,0.5482,0.273,0.0441,-0.2777,-0.6402,-0.7149,0.0,0.0,0.0,0.0,0.0,0.0,0.0,0.0,0.0,0.0,0.0,0.0,0.0,0.0,0.0,0.0,0.0,0.0,0.0,0.0,0.0,0.0,0.0,0.0,0.0,0.0,0.0,0.0,0.0,0.0,0.0,0.0,0.0,0.0,0.0,0.0,0.0,0.0,0.1776,-0.4302,0.0,0.0,0.0,0.0,-1.2007,-1.3612,-1.4862,-1.5423,-1.6393,-1.7067,-1.7684,-1.822,-1.9296,-2.0763,-2.0929,-2.1381,-2.2217,-2.2352,-2.2806,-2.3661,-2.3688,-2.3861,-2.4142,-2.4168,-2.4502,-2.4943,-2.4192,-2.3816,-2.3661,-2.3367,-2.3233,-2.326,-2.3848,-2.4062,-2.4209,0.0,0.0,0.0,0.5226,0.5007,0.4952,0.5226,0.5007,0.4952,0.5226,0.6274,0.7041,0.6914,0.7975,0.8548,0.8302,0.7605,0.695,0.6261,0.3886,0.0765,-0.3258,-0.3436,-0.3443,-0.3479,0.2571,0.6264,0.7407,0.5774,0.4235,0.2953,0.2177,0.1871,0.2004,0.2183,0.0804,-0.1693,-0.0494,-0.0862,-0.2376,-0.4602,-0.5907,0.0,0.0,0.0,0.0,0.0,0.0,0.0,0.0,0.0,0.0,0.0,0.0,0.0,0.0,0.0,0.0,0.0,0.0,0.0,0.0,0.0,0.0,0.0,0.0,0.0,0.0,0.0,0.0,0.0,0.0,0.0,0.0,0.0,0.0,0.0,0.0,0.0,-0.4806,-0.7316,0.0,-1.174,-1.2967,-1.3937,-1.4582,-1.5584,-1.6529,-1.7125,-1.8646,-1.9588,-1.9872,-2.0515,-2.1215,-2.1951,-2.2338,-2.2792,-2.3287,-2.3287,-2.3554,-2.4048,-2.4048,-2.4315,-2.477,-2.477,-2.4997,-2.5331,-2.5024,-2.489,-2.4877,-2.477,-2.473,-2.4783,-2.5184,-2.5451,-2.5537,0.0,0.0,0.0,0.4519,0.4519,0.4519,0.4519,0.4519,0.4553,0.4606,0.5952,0.6927,0.6806,0.8138,0.8879,0.847,0.7824,0.7033,0.6142,0.3857,0.0491,-0.4115,-0.3695,-0.3212,-0.278,0.2407,0.5444,0.6282,0.3209,-0.0,-0.3408,-0.3325,-0.3312,-0.3477,-0.3278,-0.4191,-0.5845,-0.381,-0.2472,-0.1777,-0.4449,-0.5839,-0.6414,0.0,0.0,0.0,0.0,0.0,0.0,0.0,0.0,0.0,0.0,0.0,0.0,0.0,0.0,0.0,0.0,0.0,0.0,0.0,0.0,0.0,0.0,0.0,0.0,0.0,0.0,0.0,0.0,0.0,0.0,0.0,0.0,0.0,0.0,0.0,-0.8832,-0.9509,-1.0647,-1.2116,-1.3976,-1.4853,-1.5597,-1.6298,-1.6994,-1.7973,-1.91,-2.0393,-2.1296,-2.1697,-2.2178,-2.2579,-2.2873,-2.3273,-2.3621,-2.3915,-2.4022,-2.4222,-2.4502,-2.4596,-2.4863,-2.5224,-2.5224,-2.5398,-2.5665,-2.4868,-2.4611,-2.4687,-2.5383,-2.5718,-2.5825,-2.6026,-2.5741,-2.497,0.0,0.0,0.4519,0.4519,0.4519,0.4519,0.4519,0.4519,0.4572,0.4884,0.6714,0.8133,0.8384,0.9251,0.9544,0.8704,0.7655,0.5804,0.2709,0.4563,0.3448,-0.1679,-0.0137,0.1351,0.2505,0.2651,0.3819,0.6138,0.1384,-0.3587,-0.8833,-0.8663,-0.8505,-0.8557,-0.8815,-0.8892,-0.8906,-0.8953,-0.7271,-0.4774,-0.6799,-0.7472,-0.706,0.0,0.0,0.0,0.0,0.0,0.0,0.0,0.0,0.0,0.0,0.0,0.0,0.0,0.0,0.0,0.0,0.0,0.0,0.0,0.0,0.0,0.0,0.0,0.0,0.0,0.0,0.0,0.0,0.0,0.0,0.0,0.0,0.0,-0.8105,-1.4495,-1.7235,-1.1931,-1.4335,-1.6057,-1.4675,-1.5043,-1.5948,-1.7409,-1.8093,-1.916,-2.1022,-2.171,-2.2285,-2.2873,-2.3193,-2.3487,-2.3781,-2.3794,-2.3941,-2.4235,-2.4516,-2.481,-2.5104,-2.5384,-2.5518,-2.5531,-2.5531,-2.5692,-2.5803,-2.3575,-2.2917,-2.3277,-2.5113,-2.5976,-2.6228,-2.6228,-2.4761,-2.2694,0.5382,0.4842,0.4519,0.4519,0.4519,0.4519,0.4519,0.4519,0.4613,0.502,0.6913,0.8375,0.8551,0.9019,0.9155,0.8784,0.7269,0.5981,0.529,0.4329,0.4282,0.5182,0.5246,0.5465,0.5773,0.3972,0.2595,0.1702,0.0394,-0.3033,-0.8235,-0.8598,-0.8632,-0.8548,-0.8588,-0.8669,-0.8893,-0.8923,-0.8382,-0.7774,-0.8264,-0.82,-0.7706,0.0,0.0,0.0,0.0,0.0,0.0,0.0,0.0,0.0,0.0,0.0,0.0,0.0,0.0,0.0,0.0,0.0,0.0,0.0,0.0,0.0,0.0,0.0,0.0,0.0,0.0,0.0,0.0,0.0,0.0,0.0,0.0,-1.2276,-0.9564,-1.1898,-1.4119,-1.4891,-1.6586,-1.7493,-1.7086,-1.8606,-1.9776,-2.042,-2.0641,-2.1214,-2.2338,-2.2539,-2.2899,-2.35,-2.3808,-2.4008,-2.4088,-2.4289,-2.4543,-2.4836,-2.4917,-2.5104,-2.5398,-2.5478,-2.5625,-2.5838,-2.5838,-2.5999,-2.6109,-2.3842,-2.307,-2.2968,-2.1939,-2.1629,-2.1684,-2.1684,-2.022,-1.8281,0.5273,0.4787,0.4519,0.4519,0.4519,0.4539,0.4551,0.4558,0.4938,0.599,0.7154,0.8137,0.8978,0.8783,0.8505,0.8421,0.6954,0.611,0.6301,0.5552,0.5902,0.7541,0.7446,0.7243,0.7112,0.4643,0.222,-0.0,-0.0,-0.1561,-0.4725,-0.6206,-0.6856,-0.6853,-0.679,-0.6873,-0.7101,-0.7101,-0.7082,-0.7184,-0.8418,-0.7977,-0.636,-0.5107,-0.5081,-0.5576,-0.5616,-0.5439,-0.511,-0.4953,0.0,0.0,0.0,0.0,0.0,0.0,0.0,0.0,0.0,0.0,0.0,0.0,0.0,0.0,0.0,0.0,0.0,0.0,0.0,0.0,0.0,0.0,0.0,0.0,-1.3022,-1.4222,-1.3986,-1.5014,-1.6105,-1.7323,-1.8692,-1.96,-1.9826,-2.0928,-2.1777,-2.2084,-2.2218,-2.2512,-2.3033,-2.318,-2.346,-2.3941,-2.4115,-2.4315,-2.4569,-2.4743,-2.497,-2.5264,-2.5384,-2.5058,-2.4275,-2.4389,-2.4058,0.0,-2.3404,-2.3488,-2.3472,-2.1351,-2.0382,0.0,0.0,0.0,0.0,0.0,-1.7629,-1.65,0.5007,0.4684,0.4629,0.4629,0.4574,0.4567,0.4667,0.4694,0.5326,0.7127,0.7277,0.7877,0.9486,0.8749,0.8084,0.8008,0.6866,0.6165,0.6128,0.7259,0.7701,0.7174,0.7519,0.757,0.7203,0.4962,0.2576,-0.0,-0.0,-0.0,-0.0,-0.2384,-0.3749,-0.4039,-0.3987,-0.3937,-0.4004,-0.4315,-0.4542,-0.4791,-0.773,-0.7351,-0.4678,-0.1324,-0.1305,-0.3205,-0.3485,-0.3441,-0.3243,-0.323,0.0,0.0,0.0,0.0,0.0,0.0,0.0,0.0,0.0,0.0,0.0,0.0,0.0,0.0,0.0,0.0,0.0,0.0,0.0,0.0,0.0,0.0,0.0,0.0,-1.4304,-1.5505,-1.9456,-2.0838,-2.0956,-1.9616,-2.085,-2.2044,-2.2525,-2.2605,-2.2712,-2.2953,-2.322,-2.3394,-2.342,0.0,0.0,0.0,0.0,-2.3844,-2.435,-2.435,-2.4492,-2.4777,-2.5153,-2.4165,-2.2449,-2.2634,-2.1596,-1.9836,-1.9836,-1.9836,-1.9664,-1.7394,-1.6433,-1.6458,-1.8435,-1.9095,-1.8933,-1.6975,-1.6172,-1.6056,0.6372,0.571,0.5328,0.5328,0.4842,0.4567,0.4667,0.4694,0.5061,0.6158,0.7504,0.8634,0.9607,0.9988,0.9884,0.9064,0.79,0.6566,0.4944,0.6373,0.7364,0.7599,0.7752,0.778,0.7786,0.5991,0.3428,-0.0,-0.0,-0.0,-0.0,-0.0553,-0.0787,-0.0915,-0.0814,-0.0827,-0.1081,-0.3465,-0.4527,-0.4816,-0.7702,-0.8897,-0.8135,-0.2226,-0.0262,-0.0651,-0.0783,-0.0781,-0.0646,-0.0757,-0.0614,-0.0715,-0.1163,-0.2586,0.0,0.0,0.0,0.0,0.0,0.0,0.0,0.0,0.0,0.0,0.0,0.0,0.0,0.0,0.0,0.0,0.0,0.0,0.0,-1.4051,-1.6932,-1.9542,-2.0874,-2.2589,-2.3354,-2.2526,-2.3227,-2.3647,-2.3527,-2.3714,-2.3781,-2.3607,-2.3647,-2.3781,-2.4022,-2.2655,-2.2013,-2.2289,-2.0802,-2.0008,-2.0259,-2.0259,-2.0366,-2.0601,0.0,0.0,-2.0199,-2.0211,-1.9823,-1.9518,-1.9518,-1.9518,-1.9361,-1.7154,-1.5337,-1.3874,-1.4489,-1.4706,-1.4541,-1.4217,-1.4137,-1.4084,0.7783,0.6794,0.6036,0.6036,0.5908,0.5701,0.5424,0.5456,0.5848,0.661,0.6979,0.7513,0.8468,0.8695,0.8389,0.7442,0.7815,0.7529,0.6212,0.8471,0.9771,0.9525,0.9147,0.8637,0.8031,0.7135,0.5891,0.4243,0.2945,0.2251,0.2294,0.2351,0.2502,0.241,0.2607,0.1699,-0.0123,-0.1655,-0.2202,-0.2353,-0.3845,-0.4666,-0.4533,-0.1208,-0.0,-0.0,-0.0,-0.0,-0.0,-0.0,-0.0,-0.0,-0.0,0.1595,0.2827,0.0,0.0,0.0,0.0,0.0,0.0,0.0,0.0,0.0,0.0,0.0,0.0,0.0,0.0,-1.028,0.0,0.0,-1.3214,-1.5329,-1.6969,-1.8539,-2.0178,-2.1288,-2.2404,-2.3971,-2.4329,-2.4422,-2.4422,-2.4422,-2.3917,-2.2714,-2.2693,-2.2374,-2.1601,-2.0613,-2.0331,-2.0461,-1.9481,-1.9123,-1.9233,-1.9233,-1.9452,-1.9563,-1.9452,-1.8927,-1.7976,-1.7873,-1.7196,-1.6256,-1.6256,-1.6256,-1.6098,-1.5003,-1.3946,-1.3071,-1.3152,-1.3268,-1.341,-1.3485,-1.3566,-1.3648,0.8804,0.7836,0.6977,0.6921,0.7022,0.6952,0.6431,0.6538,0.6845,0.7355,0.665,0.6479,0.7388,0.7216,0.6738,0.6028,0.7623,0.8513,0.8116,1.0789,1.2076,1.1354,1.0656,0.9887,0.878,0.8726,0.8643,0.8405,0.6312,0.535,0.5347,0.5626,0.572,0.5881,0.615,0.4719,0.2026,0.1303,0.1063,0.1076,0.1076,0.1076,0.1076,0.1076,0.0672,-0.0,-0.0,-0.0,0.0266,0.161,0.2142,0.1996,0.1207,0.4835,0.8438,0.3417,0.1502,0.0,0.0,0.0,0.0,0.0,0.0,0.0,0.0,0.0,-0.6458,-1.0012,-1.0713,-1.1164,-1.2535,-1.2514,-1.3367,-1.6657,-1.6715,-1.7116,-1.9274,-1.9684,-2.0665,-2.3741,-2.3909,-2.3833,-2.4061,-2.382,-2.2867,-2.1291,-2.117,-2.0517,-1.8967,-1.8554,-1.8504,-1.8504,-1.8068,-1.8013,-1.8343,-1.8305,-1.8286,-1.8455,-1.837,-1.7295,-1.5581,-1.554,-1.4592,-1.2874,-1.2874,-1.2874,-1.2874,-1.2874,-1.2888,-1.2915,-1.2915,-1.3078,-1.3336,-1.3519,-1.36,-1.3675,0.8804,0.8646,0.8457,0.8078,0.752,0.7165,0.7461,0.7541,0.7471,0.7144,0.7674,0.7969,0.7569,0.8065,0.8276,0.7902,0.8453,0.8915,0.909,1.0449,1.1279,1.1273,1.1517,1.1648,1.1453,1.1463,1.0367,0.8004,0.815,0.8229,0.8445,0.8387,0.871,0.9319,0.964,0.9679,0.9294,0.6086,0.4821,0.4827,0.4827,0.4827,0.4827,0.4827,0.2819,-0.0,-0.0,-0.0,0.1024,0.7332,0.9502,0.8997,0.5841,0.4819,0.5265,0.829,0.6701,0.3984,0.3642,0.1848,-0.0,-0.0,-0.0,-0.0123,0.0,0.0,-0.5765,-1.1162,-1.2079,-1.2189,-1.2608,-1.4075,-1.5621,-1.6324,-1.7995,-1.9294,-1.9915,-1.9985,-2.0129,-2.0569,-2.0533,-2.0408,-2.0268,-2.022,-1.9833,-1.9325,-1.9325,-1.9189,-1.9033,-1.7349,-1.6504,-1.6504,-1.4898,-1.4009,-1.4024,-1.3881,-1.3973,-1.3973,-1.3692,-1.339,-1.3061,-1.2922,-1.2704,-1.2556,-1.2556,-1.2556,-1.2556,-1.2556,-1.2637,-1.2759,-1.2759,-1.2861,-1.3044,-1.3322,-1.3512,-1.3675,0.7503,0.7503,0.7529,0.7555,0.7709,0.779,0.7634,0.7188,0.6713,0.6043,0.6189,0.6221,0.5883,0.6104,0.6432,0.6883,0.8233,0.9092,0.9197,1.1468,1.3225,1.4164,1.3123,1.2991,1.4112,1.2705,1.1452,1.0431,1.0732,1.1054,1.1193,1.0618,1.0378,1.0654,1.0073,1.0155,1.0468,0.9104,0.8475,0.8478,0.8478,0.8478,0.8478,0.8478,0.7536,0.5629,0.1436,-0.0,0.0,0.8274,1.0707,1.0489,0.891,0.792,0.7449,0.8909,0.839,0.7454,0.7381,0.5471,0.3364,0.3426,0.1684,-0.0,-0.0,-0.0854,-0.2318,-0.4659,-0.9076,-1.2556,-1.2745,-1.3627,-1.4343,0.0,-1.5129,-1.5794,-1.595,-1.6057,-1.6155,-1.6262,-1.6213,-1.7104,-1.9393,-1.9454,-1.8827,-1.7362,-1.7295,-1.6889,-1.5618,-1.4992,-1.4601,-1.4601,-1.3767,-1.3268,-1.3268,-1.3125,-1.3003,-1.2915,-1.2786,-1.2684,-1.2596,-1.2528,-1.2501,-1.2501,-1.2501,-1.2501,-1.2501,-1.2501,-1.2535,-1.2596,-1.2596,-1.2637,-1.2752,-1.3227,-1.3444,-1.3553,0.6588,0.6588,0.6713,0.7048,0.7443,0.7634,0.7502,0.705,0.6369,0.5498,0.5341,0.5097,0.4766,0.4819,0.5174,0.5952,0.7837,0.9113,0.9463,1.1986,1.4309,1.6025,1.4771,1.4838,1.6522,1.4564,1.3363,1.3139,1.31,1.2925,1.2745,1.2045,1.1824,1.1827,1.1033,1.0994,1.131,1.1158,1.117,1.1183,1.0836,1.0611,1.0645,1.0605,1.0511,0.9701,0.4446,0.1994,0.1971,0.8027,1.0065,1.0151,1.0168,0.9794,0.9144,0.8753,0.8871,0.9326,0.9599,0.8389,0.7125,0.7364,0.5269,0.2642,0.0437,-0.0,-0.0,-0.0,-0.4839,-0.9535,-1.1066,-1.1308,-1.1684,-1.2842,-1.2996,-1.2996,-1.3037,-1.3132,-1.3241,-1.3521,-1.3535,-1.4601,-1.744,-1.7833,-1.7029,-1.5465,-1.5416,-1.4845,-1.3398,-1.3342,-1.3383,-1.3342,-1.3227,-1.3152,-1.3112,-1.2969,-1.284,-1.2732,-1.2684,-1.261,-1.2501,-1.2501,-1.2501,-1.2501,-1.2501,-1.2501,-1.2501,-1.2501,-1.2501,-1.2501,-1.2501,-1.2501,-1.2562,-1.3085,-1.3302,-1.3403,0.6588,0.6588,0.6713,0.7048,0.6406,0.6249,0.7339,0.7488,0.7131,0.6293,0.6164,0.5799,0.4824,0.5316,0.5825,0.5957,0.7345,0.8821,1.0272,1.1399,1.3118,1.5598,1.6324,1.7363,1.8685,1.7965,1.6908,1.5549,1.4521,1.3602,1.2607,1.2735,1.2969,1.3386,1.3492,1.3719,1.3723,1.2587,1.2242,1.2178,1.0948,1.0588,1.0704,1.0561,1.0229,0.9747,0.9299,0.686,0.4334,0.7634,0.8706,0.8728,0.8906,0.8777,0.8581,0.8769,0.8737,0.8694,0.93,0.9884,1.039,1.1197,1.1392,0.9318,0.1743,-0.0,-0.0,-0.0,-0.0158,-0.178,-0.6149,-0.696,-0.8267,-1.2379,-1.3044,-1.2929,-1.3077,-1.2933,-1.3275,-1.3788,-1.3788,-1.3711,0.0,-1.3398,-1.3556,-1.3549,-1.3556,-1.339,-1.3397,-1.3397,-1.3336,-1.3186,-1.3173,-1.3105,-1.2969,-1.2813,-1.2732,-1.2725,-1.2576,-1.2508,-1.2501,-1.2501,-1.2501,-1.2501,-1.2501,-1.2501,-1.2501,-1.2501,-1.2501,-1.2501,-1.2501,-1.2501,-1.2542,-1.2854,-1.3064,-1.3241,0.5226,0.5226,0.5242,0.5361,0.5146,0.5057,0.545,0.5562,0.5518,0.5225,0.5225,0.0,0.0,0.0,0.0,0.0,0.5593,0.6141,0.7056,0.9647,1.208,1.4016,1.4889,1.6412,1.8659,1.8282,1.8108,1.8257,1.8033,1.7394,1.6255,1.5707,1.5094,1.4456,1.3712,1.3578,1.37,1.3384,1.3489,1.3815,1.3394,1.2564,1.1678,1.2593,1.1836,1.0447,0.0,0.9494,0.7237,0.8068,0.8387,0.8431,0.8818,0.8662,0.8377,0.8581,0.8777,0.9096,0.9971,1.0369,1.0719,1.1476,1.1653,1.0957,0.8226,0.5645,0.3163,0.0459,-0.0,-0.0465,-0.2034,-0.2191,-0.2659,-0.407,-0.6777,-0.8572,-0.8609,-0.8509,-0.8545,-0.887,-0.8936,0.0,0.0,0.0,0.0,-1.3281,-1.3376,-1.339,-1.3288,-1.3261,-1.3186,-1.3037,-1.2935,-1.2854,-1.2807,-1.2657,-1.2576,-1.2576,-1.2528,-1.2501,-1.2501,-1.2501,-1.2501,-1.2501,-1.2501,-1.2501,-1.2501,-1.2501,-1.2501,-1.2501,-1.2501,-1.2562,-1.2678,-1.2888,-1.3064,-1.3254,0.0,0.4525,0.4525,0.4519,0.4519,0.0,0.0,0.0,0.0,0.0,0.0,0.0,0.0,0.0,0.0,0.0,0.0,0.4137,0.5145,0.7453,0.9857,1.229,1.2977,1.4425,1.6652,1.6508,1.6692,1.7344,1.7922,1.7944,1.7383,1.763,1.7385,1.6914,1.6264,1.5992,1.5771,1.5299,1.5058,1.48,1.433,1.3343,1.2418,1.3212,1.2404,0.0,1.1668,1.0744,0.9332,0.9202,0.9217,0.9296,0.9848,0.9943,0.9933,1.0233,1.0101,0.9986,1.1018,1.0904,1.0799,1.1457,1.1626,1.1667,1.163,0.9606,0.7141,0.4691,0.3024,0.2117,0.2136,0.092,-0.0,-0.0,-0.2315,-0.4044,-0.4044,-0.4068,-0.4095,-0.4112,-0.5581,-0.673,0.0,0.0,0.0,-1.0986,-1.0896,-1.1582,-1.3166,-1.3125,-1.3044,-1.2901,-1.2786,-1.2705,-1.2651,-1.2549,-1.2501,-1.2501,-1.2501,-1.2501,-1.2501,-1.2501,-1.2501,-1.2501,-1.2501,-1.2501,-1.2501,-1.2501,-1.2501,-1.2501,-1.2501,-1.2596,-1.2752,-1.2915,-1.2916,-1.309,0.0,0.0,0.4477,0.0,0.0,0.0,0.0,0.0,0.0,0.0,0.0,0.0,0.0,0.0,0.0,0.0,0.0,0.0,0.4659,0.5067,0.6746,1.0331,1.0882,1.1696,1.308,1.3099,1.3302,1.3572,1.4766,1.5568,1.6129,1.816,1.945,2.0134,2.0492,2.0153,1.9287,1.8058,1.67,1.5235,1.3837,1.3057,1.2769,1.251,1.2059,1.1559,1.1457,1.1162,1.0819,1.077,1.0781,1.097,1.1713,1.2252,1.2739,1.355,1.2323,1.1067,1.2314,1.1652,1.0677,1.1402,1.1592,1.1599,1.1626,1.1583,1.1544,1.157,0.8637,0.5982,0.0,0.3029,0.0611,0.0302,0.0153,-0.0,-0.0,-0.0,-0.0,0.0,0.0,0.0,0.0,0.0,0.0,-0.7282,0.0,-0.8271,-1.2553,-1.2514,-1.2589,-1.2779,-1.2739,-1.2651,-1.2508,-1.2501,-1.2501,-1.2501,-1.2501,-1.2501,-1.2501,-1.2501,-1.2501,-1.2501,-1.2501,-1.2501,-1.2501,-1.2501,-1.2508,-1.2508,-1.2508,-1.2603,-1.2766,-1.2782,-1.2943,-1.3097,0.0,0.0,0.0,0.0,0.0,0.0,0.0,0.0,0.0,0.0,0.0,0.0,0.0,0.0,0.0,0.0,0.0,0.0,0.467,0.5732,0.6741,0.7654,0.9336,1.0715,1.1601,1.2871,1.3878,1.4809,1.57,1.5815,1.5336,1.6098,1.6224,1.5718,1.6017,1.6162,1.6178,1.5873,1.556,1.5383,1.5195,1.4338,1.325,1.4473,1.3766,1.2203,1.3331,1.3474,1.2966,1.1197,1.111,1.1754,1.2746,1.3183,1.3446,1.3994,1.3058,1.2023,1.2649,1.1835,1.0738,1.1043,1.1199,1.128,1.1287,1.1233,1.102,1.0803,1.0084,0.9419,0.9169,0.9019,0.8005,0.5207,0.2113,0.0,-0.0,-0.0,0.0,-0.0,0.0,-0.1728,-0.1727,-0.27,0.0,0.0,-0.5172,-0.2268,-0.3403,-0.6424,-0.9555,-1.2494,-1.2487,-1.2603,-1.2542,-1.2515,-1.2501,-1.2501,-1.2501,-1.2501,-1.2501,-1.2501,-1.2501,-1.2501,-1.2501,-1.2501,-1.2501,-1.2528,-1.2542,-1.2542,-1.2569,-1.2574,-1.2642,-1.2856,-1.3057,-1.3311,0.0,0.0,0.0,0.0,0.0,0.0,0.0,0.0,0.0,0.0,0.0,0.0,0.0,0.0,0.0,0.0,0.0,0.0,0.0,0.567,0.6005,0.6006,0.7121,0.7953,0.8281,0.9531,1.0586,1.1381,1.277,1.3394,1.3131,1.4179,1.4496,1.4184,1.4918,1.5163,1.5075,1.5514,1.5376,0.0,0.0,1.45,1.3699,1.4523,1.4086,1.3222,1.4012,1.4309,1.4203,1.3532,1.372,1.4406,1.5234,1.5565,1.5825,1.6401,1.4896,1.3048,1.3644,1.2298,1.0656,1.0812,1.0907,1.0934,1.0806,1.0711,1.0595,1.0263,1.027,1.0397,1.048,1.0928,1.0754,0.0,0.0,0.0,0.2747,0.2598,0.2606,0.0,0.2622,0.0,0.0154,-0.0,-0.1892,0.0,-0.2738,-0.0,-0.0,-0.2396,-0.5542,-0.9589,-0.9735,-1.0676,-1.242,-1.2556,-1.2549,-1.2549,-1.2549,-1.2549,-1.2549,-1.2549,-1.2549,-1.2549,0.0,-1.2549,-1.2549,-1.2569,-1.1454,-0.9708,-0.9724,-0.9708,-1.0072,-1.2068,-1.311,-1.3392,0.0,0.0,0.0,0.0,0.0,0.0,0.0,0.0,0.0,0.0,0.2527,0.2671,0.2984,0.3006,0.0,0.0,0.0,0.0,0.0,0.0,0.5068,0.5101,0.4999,0.4863,0.4694,0.5431,0.5986,0.6369,0.8443,0.9734,1.0335,1.2069,1.3065,1.3568,1.4637,1.483,1.442,1.5199,1.4838,1.3809,1.3587,1.3618,1.3715,0.0,1.3569,1.3975,1.4015,1.4215,1.4696,1.6192,1.6927,1.7328,1.805,1.8464,1.8771,1.9279,1.6961,1.4427,1.5126,1.3061,1.0826,1.085,1.0774,1.0582,1.0538,1.0328,1.0093,0.9981,0.9882,0.9971,1.0405,1.0373,1.0644,1.1543,0.0,1.0737,0.706,0.6631,0.6522,0.6623,0.6634,0.5277,0.1811,0.1068,0.0773,0.0782,0.032,-0.0,-0.0,-0.0,-0.1741,-0.5332,-0.5477,-0.7201,-1.0849,-1.1329,-1.1648,-1.1648,-1.1648,-1.1648,-1.1648,-1.1648,-1.1648,-1.1648,-1.1648,0.0,-1.1648,-1.2291,-1.037,-0.7045,-0.5945,-0.5396,-0.5832,-0.945,-1.1946,-1.3224,0.0,0.0,0.0,0.0,0.0,0.0,0.0,0.0,0.0,0.0,0.4378,0.4455,0.0,0.0,0.0,0.0,0.0,0.0,0.0,0.0,0.0,0.4958,0.5047,0.4965,0.4694,0.5431,0.5917,0.6093,0.705,0.7789,0.8217,0.8548,0.8953,0.9444,0.9627,0.982,0.9958,1.0103,1.0081,1.0078,1.0231,1.0884,1.1733,1.1994,0.0,0.0,1.3641,1.3908,1.4416,1.6126,1.7061,1.7742,1.9078,1.9533,1.9599,1.9693,1.8189,1.6457,1.6583,1.437,1.1922,1.2101,1.1262,1.0531,1.131,1.0649,0.9919,1.0445,0.9581,0.8852,0.9184,0.9352,0.9849,1.0426,1.092,1.107,1.087,1.0668,1.0661,0.0,1.0607,1.03,0.9688,0.6717,0.0,0.0,0.0,-0.0,-0.0,-0.0,-0.0315,-0.1099,-0.1096,-0.1407,-0.219,-0.5633,-0.7357,-0.7357,-0.7357,-0.7357,-0.7357,-0.7357,-0.7357,-0.7357,-0.7357,0.0,-0.7673,-1.1023,-1.2155,-1.071,-0.3766,-0.1114,-0.1138,-0.1952,-0.6952,-1.239,0.0,0.0,0.0,0.0,0.0,0.0,0.0,0.4646,0.4721,0.4802,0.4944,0.5034,0.5171,0.5178,0.5304,0.0,0.0,0.0,0.0,0.0,0.0,0.5155,0.5216,0.5148,0.4925,0.5202,0.5479,0.5709,0.0,0.6161,0.6605,0.6505,0.662,0.6864,0.7323,0.7634,0.7969,0.8373,0.8785,0.9114,0.9227,0.9776,1.0417,1.0616,0.0,0.0,1.2382,1.277,1.3341,1.4995,1.6166,1.7235,1.9185,1.9693,1.965,2.0169,1.8816,1.7303,1.7436,1.5653,1.3686,1.3555,1.303,1.2578,1.2569,1.1452,1.0412,1.0344,0.9286,0.8486,0.8866,0.9055,0.9347,0.9944,1.0376,1.0802,1.117,1.1303,1.1423,1.1424,1.1458,1.1491,0.0,0.9893,0.0,0.0,0.0,0.4338,0.0158,-0.0,-0.0,-0.0,-0.0,-0.0,-0.0,-0.2037,-0.2977,-0.2977,-0.2977,-0.2977,-0.2977,-0.2977,-0.2977,-0.2977,-0.2977,0.0,-0.3133,-0.5181,-0.5971,-0.5655,-0.157,-0.0,-0.0,-0.0,-0.2808,-0.5738,0.0,0.0,0.0,0.0,0.0,0.0,0.4667,0.4721,0.4796,0.4945,0.5121,0.5284,0.544,0.5318,0.5338,0.0,0.0,0.0,0.0,0.0,0.0,0.0,0.0,0.5291,0.5135,0.0,0.0,0.5264,0.5033,0.0,0.0,0.0,0.0,0.0,0.6662,0.707,0.7355,0.8019,0.8472,0.0,0.0,0.8936,0.932,0.0,0.0,0.0,0.0,1.1387,1.1805,1.357,1.4851,1.5967,1.826,1.928,1.9707,2.0715,1.969,1.8232,1.8672,1.7181,1.5487,1.5189,1.4878,1.4483,1.3795,1.2724,1.1523,1.0545,0.9522,0.866,0.8804,0.8811,0.894,0.9537,0.9754,0.9964,1.0304,1.0649,1.0989,1.1307,1.1341,0.0,1.1579,1.1556,0.0,0.0,0.0,0.0,0.0466,-0.0,-0.0,-0.0,-0.0,-0.0,-0.0,-0.0,-0.0,-0.0,-0.0,-0.0,-0.0,-0.0,-0.0,-0.0,-0.0,0.0,0.0,-0.0,-0.0,-0.0,-0.0,-0.0,-0.0,-0.0,-0.0,-0.0,0.0,0.0,0.0,0.0,0.0,0.0,0.4667,0.4809,0.4952,0.5094,0.5365,0.5603,0.5745,0.5637,0.561,0.0,0.0,0.0,0.0,0.0,0.0,0.0,0.0,0.0,0.0,0.0,0.0,0.4958,0.4931,0.0,0.0,0.0,0.0,0.0,0.0,0.7902,0.7932,0.7987,0.0,0.0,0.0,0.0,0.0,0.0,0.0,0.0,0.0,0.9901,1.0216,1.2404,1.3246,1.3705,1.5888,1.8114,2.0208,2.1648,2.1338,2.0612,2.1435,1.9404,1.7218,1.7194,1.5829,1.4717,1.5006,1.403,1.28,1.1934,1.0699,0.9601,0.8855,0.8397,0.8323,0.892,0.8703,0.8791,0.9747,0.9917,1.0256,1.1084,0.0,0.0,1.1402,1.143,0.0,0.0,0.0,0.0,0.0454,-0.0,-0.0,-0.0,-0.0,-0.0,-0.0,-0.0,-0.0,-0.0,-0.0,-0.0,-0.0,-0.0,-0.0,-0.0,-0.0,0.0,0.0,-0.0,-0.0,-0.0,-0.0,-0.0,-0.0,-0.0,-0.0,-0.0,0.0,0.0,0.0,0.0,0.0,0.0,0.4789,0.4802,0.4931,0.5352,0.5433,0.5576,0.5901,0.5888,0.5874,0.5935,0.0,0.0,0.0,0.0,0.0,0.0,0.0,0.0,0.0,0.0,0.5284,0.5325,0.5325,0.0,0.0,0.0,0.0,0.0,0.0,0.8021,0.8032,0.8164,0.0,0.0,0.0,0.0,0.0,0.0,0.0,0.0,0.0,0.0,0.8864,1.0942,1.1933,1.2588,1.4545,1.6213,1.7963,2.0167,2.1267,2.1899,2.2922,2.2589,2.1921,2.173,2.028,1.8717,1.8102,1.6262,1.4395,1.3302,1.1453,0.9871,0.9587,0.8657,0.8119,0.8357,0.8479,0.8777,0.9462,0.9788,1.0229,1.0948,1.1036,0.0,0.0,0.0,0.0,0.0,0.0,0.0,0.7223,0.2555,-0.0,-0.0,-0.0,-0.0,-0.0,-0.0,-0.0,-0.0,-0.0,-0.0,-0.0,-0.0,-0.0,-0.0,-0.0,0.0,0.0,-0.0,-0.0,-0.0,-0.0,-0.0,-0.0,-0.0,-0.0,-0.0,0.0,0.0,0.0,0.0,0.0,0.4551,0.4809,0.4796,0.4925,0.5393,0.5474,0.561,0.5928,0.6044,0.6098,0.6098,0.5867,0.0,0.0,0.0,0.0,0.0,0.0,0.0,0.0,0.0,0.5501,0.565,0.565,0.5846,0.0,0.0,0.7061,0.7342,0.0,0.0,0.0,0.0,0.0,0.0,0.0,0.0,0.0,0.0,0.0,0.0,0.0,0.0,0.0,0.0,0.0,1.0931,1.2437,1.3585,1.5204,1.8912,2.0782,2.2006,2.3736,2.4247,2.4302,2.4383,2.3071,2.1307,2.0061,1.795,1.5884,1.4243,1.2134,1.0485,1.0092,0.8924,0.8038,0.8038,0.8303,0.8703,0.9239,0.9625,1.0039,1.0555,0.0,1.0761,0.0,0.0,0.0,0.0,0.0,0.0,1.164,0.6349,0.2838,0.1801,0.0608,-0.0,-0.0,-0.0,-0.0,-0.0,-0.0,-0.0,-0.0,-0.0,-0.0,-0.0,-0.0,0.0,0.0,-0.0,-0.0,-0.0,-0.0,-0.0,-0.0,-0.0,-0.0,-0.0,0.0,0.0,0.0,0.0,0.0,0.0,0.4667,0.4823,0.4972,0.5114,0.5521,0.58,0.58,0.6078,0.6261,0.6261,0.6112,0.0,0.0,0.0,0.0,0.0,0.0,0.0,0.0,0.0,0.5657,0.58,0.58,0.6222,0.7078,0.7078,0.7469,0.8165,0.0,0.0,0.0,0.0,0.0,0.0,0.0,0.0,0.6338,0.0,0.0,0.0,0.0,0.0,0.0,0.0,0.0,0.0,0.0,1.0188,1.2363,1.8576,2.0182,2.0645,2.37,2.3781,2.3272,2.4088,2.3059,2.1482,2.0117,1.8781,1.7131,1.4412,1.2813,1.1463,1.019,0.8924,0.8038,0.8038,0.8045,0.8309,0.9049,0.9293,0.9496,0.0,0.0,1.0664,0.0,0.0,0.0,0.0,0.0,0.0,1.1613,1.1496,0.9663,0.592,0.1948,-0.0,-0.0,-0.0,-0.0,-0.0,-0.0,-0.0,-0.0,-0.0,-0.0,0.0,0.0,0.0,0.0,-0.0,-0.0,-0.0,-0.0,-0.0,-0.0,-0.0,-0.0,-0.0,0.0,0.0,0.0,0.0,0.0,0.0,0.4667,0.4728,0.4891,0.5243,0.5501,0.5732,0.5935,0.6139,0.6338,0.6338,0.6118,0.0,0.0,0.0,0.0,0.0,0.0,0.0,0.0,0.5786,0.5915,0.5956,0.6064,0.6263,0.6565,0.7024,0.7372,0.7583,0.8019,0.8193,0.0,0.0,0.0,0.0,0.0,0.6338,0.6338,0.0,0.0,0.0,0.0,0.0,0.0,0.0,0.0,0.0,0.0,0.0,0.0,1.342,1.6402,1.9383,2.1949,2.3231,2.4245,2.5443,2.3987,2.2153,2.2268,1.9955,1.7596,1.6697,1.4734,1.2813,1.156,1.019,0.9015,0.8137,0.8038,0.8296,0.9049,0.9286,0.9605,1.0209,1.028,1.0369,0.0,0.0,0.0,0.0,0.0,0.0,1.1463,1.1572,1.107,0.9803,0.8612,0.5385,-0.0,-0.0,-0.0,-0.0,-0.0,-0.0,-0.0,-0.0,-0.0,0.0,0.0,0.0,0.0,-0.0,-0.0,-0.0,-0.0,-0.0,-0.0,-0.0,-0.0,-0.0,0.0,0.0,0.0,0.0,0.0,0.0,0.4592,0.4653,0.4809,0.5148,0.5426,0.5677,0.5915,0.6132,0.6338,0.6338,0.6173,0.0,0.0,0.0,0.0,0.0,0.0,0.0,0.5671,0.58,0.5949,0.6118,0.6152,0.6207,0.6338,0.676,0.6895,0.6818,0.7183,0.7285,0.0,0.0,0.0,0.0,0.6563,0.6227,0.6179,0.0,0.0,0.0,0.0,0.0,0.0,0.0,0.0,0.0,0.0,0.0,0.0,0.0,1.1546,1.4684,1.8768,2.0802,2.2261,2.4408,2.3218,2.1608,2.1951,1.9844,1.7629,1.695,1.476,1.28,1.2027,1.0485,0.9061,0.8289,0.8113,0.8282,0.9092,0.8295,0.8414,1.039,0.0,0.0,0.0,0.0,0.0,0.0,0.0,0.0,1.1396,1.1491,1.1586,1.1674,1.165,0.8587,0.222,0.0757,-0.0,-0.0,-0.0,-0.0,-0.0,-0.0,-0.0,0.0,0.0,0.0,0.0,-0.0,-0.0,-0.0,-0.0,-0.0,-0.0,-0.0,-0.0,-0.0,0.0,0.0,0.0,0.0,0.0,0.0,0.0,0.4592,0.4748,0.4897,0.5311,0.5637,0.5772,0.6071,0.6254,0.6247,0.0,0.0,0.0,0.0,0.0,0.0,0.0,0.0,0.5779,0.5671,0.5878,0.6381,0.6167,0.6256,0.6472,0.6395,0.6318,0.6105,0.601,0.5854,0.5616,0.5759,0.0,0.0,0.6261,0.6173,0.0,0.0,0.0,0.0,0.0,0.0,0.0,0.0,0.0,0.0,0.0,0.0,0.0,0.0,0.0,0.0,0.0,1.6615,1.7975,2.1069,2.1007,1.9965,1.9647,1.8502,0.0,1.5686,1.3275,1.1542,1.1666,0.9797,0.8234,0.8377,0.8018,0.7955,0.8606,0.6483,0.6111,0.0,1.0053,0.0,0.0,0.0,0.0,0.0,0.0,0.0,1.1255,1.0992,1.0928,1.1108,1.1411,0.9837,0.6212,0.2101,-0.0,-0.0,-0.0,-0.0,-0.0,-0.0,-0.0,0.0,0.0,0.0,0.0,-0.0,-0.0,-0.0,-0.0,-0.0,-0.0,-0.0,-0.0,-0.0,0.0,0.0,0.0,0.0,0.0,0.0,0.0,0.0,0.0,0.0,0.5311,0.5603,0.5637,0.601,0.6213,0.0,0.0,0.0,0.0,0.0,0.0,0.0,0.0,0.0,0.5637,0.5711,0.6158,0.6921,0.7082,0.7516,0.8217,0.7558,0.717,0.7114,0.6144,0.5718,0.5766,0.5922,0.0,0.0,0.6281,0.6276,0.0,0.0,0.0,0.0,0.627,0.6276,0.0,0.0,0.0,0.0,0.0,0.0,0.0,0.0,0.3891,0.4583,0.7851,0.0,1.4474,1.6346,1.6796,1.7004,0.0,1.6645,1.5217,1.5164,1.3259,1.1179,1.0202,0.9811,0.9306,0.8056,0.648,0.5106,0.4292,0.4912,0.5405,0.5503,0.8329,0.0,0.0,0.0,0.0,0.0,0.0,1.0803,1.0848,0.8515,0.7166,0.7123,1.0088,1.1154,1.0292,0.3411,-0.0,-0.0,-0.0,-0.0,-0.0,-0.0,-0.0,0.0,0.0,0.0,-0.0,-0.0,-0.0,-0.0,-0.0,-0.0,-0.0,-0.0,-0.0,-0.0,0.0,0.0,0.0,0.0,0.0,0.0,0.0,0.0,0.0,0.0,0.5189,0.5433,0.5576,0.5867,0.0,0.0,0.0,0.0,0.0,0.0,0.0,0.0,0.0,0.5515,0.5589,0.5664,0.598,0.663,0.6721,0.7056,0.7491,0.7056,0.6795,0.671,0.5965,0.5705,0.5908,0.5862,0.6002,0.6197,0.5251,0.0,0.0,0.0,0.0,0.0,0.4751,0.4809,0.0,0.4857,0.5471,0.6118,0.0,0.0,0.0,0.0,0.3115,0.3579,0.5688,0.8204,1.0497,1.2026,1.3188,1.4226,1.5148,1.43,1.3509,1.3787,1.2147,1.0654,1.0417,0.8297,0.7024,0.8227,0.622,0.4116,0.3087,-0.1132,-0.2494,0.2041,0.6974,0.0,0.0,0.0,0.0,0.0,0.0,0.9041,1.0593,0.9019,0.7411,0.5918,0.9641,1.161,1.1596,0.3842,-0.0,-0.0,-0.0,-0.0,-0.0,-0.0,-0.0,0.0,0.0,0.0,-0.0,-0.0,-0.0,-0.0,-0.0,-0.0,-0.0,-0.0,-0.0,-0.0,0.0,0.0,0.0,0.0,0.0,0.0,0.0,0.0,0.0,0.0,0.0,0.0,0.0,0.0,0.0,0.0,0.0,0.0,0.0,0.0,0.0,0.0,0.5515,0.542,0.5555,0.5555,0.5748,0.6141,0.6169,0.625,0.6397,0.625,0.6026,0.5732,0.5657,0.5759,0.5989,0.5855,0.5894,0.5802,0.3515,0.0,0.0,0.0,0.0,0.0,0.0,0.0,0.0,0.2657,0.3855,0.5337,0.5359,0.0,0.0,0.0,0.0,0.0,0.4884,0.5791,0.6634,0.8467,1.0172,1.1424,1.1992,1.2031,1.1952,1.2137,1.051,0.9417,1.0416,0.664,0.4358,0.7214,0.6323,0.4607,0.2431,-0.7148,-1.0612,-0.1547,0.5655,0.0,0.0,0.0,0.0,0.0,0.0,0.5949,0.896,0.9071,0.7771,0.5015,0.814,0.9814,0.9814,0.3244,-0.0,-0.0,-0.0,-0.0,-0.0,-0.0,-0.0,-0.0,0.0,0.0,-0.0,-0.0,-0.0,-0.0,-0.0,-0.0,-0.0,-0.0,-0.0,-0.0,0.0,0.0,0.0,0.0,0.0,0.0,0.0,0.0,0.0,0.0,0.0,0.0,0.0,0.0,0.0,0.0,0.0,0.0,0.0,0.0,0.0,0.5806,0.5515,0.5439,0.5399,0.5466,0.5814,0.658,0.6813,0.7302,0.8049,0.7302,0.6386,0.544,0.5607,0.5728,0.5854,0.6105,0.552,0.4292,0.1562,0.0,0.0,0.0,0.0,0.0,0.0,0.0,0.0,0.047,0.0716,0.0971,0.0975,0.0,0.0,0.0,0.0,0.0,0.0877,0.2279,0.4281,0.7019,0.7945,0.8583,0.9912,1.0524,1.0865,1.0838,0.8314,0.6167,0.6492,0.7273,0.6408,0.1811,0.5504,0.624,0.0,0.0,-0.5985,-0.6439,0.0,0.0,0.0,0.0,0.0,0.0,0.0,0.1083,0.1647,0.1652,0.1395,0.0858,0.1434,0.1732,0.1751,0.0585,-0.0,-0.0,-0.0,-0.0,-0.0,-0.0,-0.0,-0.0,0.0,-0.0,-0.0,-0.0,-0.0,-0.0,-0.0,-0.0,-0.0,-0.0,-0.0,-0.0,0.0,0.0,0.0,0.0,0.0,0.0,0.0,0.0,0.0,0.0,0.0,0.0,0.0,0.0,0.0,0.0,0.0,0.0,0.0,0.0,0.5962,0.5806,0.5596,0.5447,0.5432,0.5514,0.5766,0.6158,0.634,0.6588,0.6967,0.6467,0.5561,0.4489,0.5319,0.5739,0.582,0.6051,0.581,0.524,0.0,0.0,0.0,0.0,0.0,0.0,0.0,0.0,0.0,0.0,-0.0,-0.0,-0.0,0.0,0.0,0.0,0.0,0.0,-0.0,0.0716,0.2134,0.5317,0.7075,0.8258,0.8848,0.9259,0.8638,0.5501,0.3642,0.3469,0.6869,0.3361,-0.0533,-0.2112,0.4478,0.8359,0.4109,0.0357,-0.2287,0.0,0.0,0.0,0.0,0.0,0.0,0.0,0.0,0.0,-0.0,-0.0,-0.0,-0.0,-0.0,-0.0,-0.0,-0.0,-0.0,-0.0,-0.0,-0.0,-0.0,-0.0,-0.0,-0.0,0.0,-0.0,-0.0,-0.0,-0.0,-0.0,-0.0,-0.0,-0.0,-0.0,-0.0,-0.0,0.0,0.0,0.0,0.0,0.0,0.0,0.0,0.0,0.0,0.0,0.0,0.0,0.0,0.0,0.0,0.0,0.0,0.0,0.0,0.5983,0.5915,0.5766,0.5727,0.5597,0.5432,0.5555,0.5411,0.4992,0.5032,0.505,0.5054,0.5297,0.4766,0.3755,0.5174,0.5803,0.5867,0.603,0.6166,0.6274,0.0,0.0,0.0,0.0,0.0,0.0,0.0,0.0,0.0,0.0,0.0,0.0,0.0,0.0,0.0,-0.0,0.0898,0.1575,0.0336,-0.0,0.0831,0.411,0.6759,0.8649,0.8577,0.8099,0.6616,0.2996,0.2255,0.2819,0.4766,-0.0718,-0.4801,-0.23,0.3346,0.749,0.7547,0.3211,0.0,0.0,0.0,0.0,0.0,0.0,0.0,0.0,0.0,0.0,-0.0,-0.0,-0.0,-0.0,-0.0,-0.0,-0.0,-0.0,-0.0,-0.0,-0.0,-0.0,-0.0,-0.0,-0.0,-0.0,-0.0,-0.0,-0.0,-0.0,-0.0,-0.0,-0.0,-0.0,-0.0,-0.0,-0.0,-0.0,0.0,0.0,0.0,0.0,0.0,0.0,0.0,0.0,0.0,0.0,0.0,0.0,0.0,0.0,0.0,0.0,0.0,0.0,0.0,0.5906,0.5915,0.57,0.5762,0.5686,0.5379,0.5393,0.4579,0.2887,0.2894,0.2931,0.2931,0.4619,0.4886,0.397,0.5362,0.5961,0.6023,0.6179,0.6254,0.6261,0.6274,0.0,0.0,0.0,0.0,0.0,0.0,0.0,0.0,0.0,0.0,0.0,0.0,0.0,-0.0,-0.0,0.3549,0.6325,0.1354,-0.0,0.0759,0.4106,0.6918,0.8892,0.914,0.7112,0.593,0.8584,0.8939,0.5762,-0.4104,-0.2578,0.1134,0.3782,0.2211,0.0715,0.0737,0.0,0.0,0.0,0.0,0.0,0.0,0.0,0.0,0.0,0.0,0.0,-0.0,-0.0,-0.0,-0.0,-0.0,-0.0,-0.0,-0.0,-0.0,-0.0,-0.0,-0.0,-0.0,-0.0,-0.0,-0.0,-0.0,-0.0,-0.0,-0.0,-0.0,-0.0,-0.0,-0.0,-0.0,-0.0,-0.0,-0.0,0.0,0.0,0.0,0.0,0.0,0.0,0.0,0.0,0.0,0.0,0.0,0.0,0.0,0.0,0.0,0.0,0.0,0.0,0.0,0.5908,0.5901,0.5686,0.5041,0.4837,0.5393,0.5393,0.5059,0.4378,0.4733,0.4942,0.492,0.4273,0.4359,0.5044,0.5708,0.5943,0.5772,0.6017,0.6118,0.6125,0.6234,0.6208,0.0,0.0,0.0,0.0,0.0,0.0,0.0,0.0,0.2199,-0.0,-0.0,-0.0,-0.0,-0.0,0.3292,0.6617,0.5347,0.4004,0.3293,0.4392,0.6924,0.9297,0.9527,0.8653,0.7209,0.5005,0.5431,0.3495,-0.5506,-0.5733,-0.4325,-0.331,-0.1413,-0.0,0.0,0.0,0.0,0.0,0.0,0.0,0.0,0.0,0.0,0.0,0.0,0.0,-0.0269,-0.0,-0.0,-0.0,-0.0,-0.0,-0.0,-0.0,-0.0,-0.0,-0.0,-0.0,-0.0,-0.0,-0.0,-0.0,-0.0,-0.0,-0.0,-0.0,-0.0,-0.0,-0.0,-0.0,-0.0,-0.0,-0.0,-0.0,0.0,0.0,0.0,0.0,0.0,0.0,0.0,0.0,0.0,0.0,0.0,0.0,0.0,0.0,0.0,0.0,0.0,0.0,0.5515,0.5693,0.5491,0.4768,0.4209,0.4387,0.5399,0.5406,0.5138,0.4517,0.4992,0.5517,0.6298,0.4698,0.4654,0.5892,0.5892,0.5858,0.5739,0.5895,0.5989,0.6044,0.6159,0.5744,0.0,0.0,0.0,0.0,0.0,0.0,0.0,0.0,0.3522,-0.0,-0.0,0.0768,0.1726,0.1906,0.411,0.6634,0.7367,0.6436,0.5298,0.6042,0.7756,0.9474,0.9739,0.9676,0.8521,0.4711,0.3403,0.126,-0.3853,-0.5165,-0.5959,0.0,-0.485,0.0,0.0,0.0,0.0,0.0,0.0,0.0,0.0,0.0,0.0,0.0,0.0,0.0,0.0,-0.0,-0.0,-0.0,-0.0,-0.0,-0.0,-0.0,-0.0,-0.0,-0.0,-0.0,-0.0,-0.0,-0.0,-0.0,-0.0,-0.0,-0.0,-0.0,-0.0,-0.0,-0.0,-0.0,-0.0,-0.0,-0.0,-0.0,0.0,0.0,0.0,0.0,0.0,0.0,0.0,0.0,0.0,0.0,0.0,0.0,0.0,0.0,0.0,0.0,0.0,0.0,0.5425,0.5372,0.4628,0.2809,0.3493,0.4384,0.5346,0.5413,0.4517,0.2746,0.2754,0.397,0.6302,0.5919,0.5915,0.6254,0.5942,0.5881,0.6017,0.5861,0.5895,0.5969,0.5969,0.4836,0.3125,0.0,0.0,0.0,0.0,0.0,0.0,0.0,0.3484,-0.0,-0.0,0.2506,0.5561,0.6163,0.6519,0.6778,0.6735,0.6263,0.6401,0.914,0.9446,0.9349,0.9728,0.9645,0.9514,0.9715,0.4598,-0.0,-0.0,-0.0,-0.1577,-0.6212,0.0,0.0,0.0,0.0,0.0,0.0,0.0,0.0,0.0,0.0,0.0,0.0,0.0,0.0,0.0,-0.0,-0.0,-0.0,-0.0,-0.0,-0.0,-0.0,-0.0,-0.0,-0.0,-0.0,-0.0,-0.0,-0.0,-0.0,-0.0,-0.0,-0.0,-0.0,-0.0,-0.0,-0.0,-0.0,-0.0,-0.0,-0.0,-0.0,0.0,0.0,0.0,0.0,0.0,0.0,0.0,0.0,0.0,0.0,0.0,0.0,0.0,0.0,0.0,0.0,0.0,0.0,0.5203,0.5345,0.5158,0.4646,0.4803,0.5125,0.5413,0.5569,0.5343,0.4849,0.4968,0.5415,0.6057,0.6119,0.601,0.5793,0.58,0.5711,0.5562,0.563,0.5684,0.5603,0.4461,0.3643,0.2911,0.0,0.0,0.0,0.0,0.0,0.0,0.0,0.0,0.0,-0.0,0.3341,0.7234,0.7462,0.7341,0.7247,0.7512,0.7631,0.7962,0.9048,0.9511,0.9644,0.9574,0.9543,0.9552,0.9787,0.4571,-0.0,-0.0,-0.0,0.0,0.0,0.0,0.0,0.0,0.0,0.0,0.0,0.0,0.0,0.0,0.0,0.0,0.0,0.0,0.0,0.0,-0.0,-0.0,-0.0,-0.0,-0.0,-0.0,-0.0,-0.0,-0.0,-0.0,-0.0,-0.0,-0.0,-0.0,-0.0,-0.0,-0.0,-0.0,-0.0,-0.0,-0.0,-0.0,-0.0,-0.0,-0.0,-0.0,-0.0,0.0,0.0,0.0,0.0,0.0,0.0,0.0,0.0,0.0,0.0,0.5473,0.5372,0.0,0.0,0.0,0.0,0.0,0.0,0.5014,0.5212,0.5297,0.5389,0.5386,0.5385,0.5382,0.4804,0.4938,0.5806,0.583,0.5901,0.5892,0.607,0.5962,0.5766,0.5854,0.5759,0.5542,0.5576,0.5589,0.5408,0.4541,0.3242,0.1748,0.0,0.0,0.0,0.0,0.0,0.0,0.0,0.0,0.0,-0.0,0.292,0.6624,0.7651,0.7758,0.752,0.7879,0.835,0.879,0.9089,0.9412,0.9687,0.9681,0.7545,0.5799,0.5868,0.2708,-0.0,-0.0,-0.0,0.0,0.0,0.0,0.0,0.0,0.0,0.0,0.0,0.0,0.0,0.0,0.0,0.0,0.0,0.0,0.0,0.0,-0.0,-0.0,-0.0,-0.0,-0.0,-0.0,-0.0,-0.0,-0.0,-0.0,-0.0,-0.0,-0.0,-0.0,-0.0,-0.0,-0.0,-0.0,-0.0,-0.0,-0.0,-0.0,-0.0,-0.0,-0.0,-0.0,-0.0,0.0,0.0,0.0,0.0,0.0,0.0,0.0,0.0,0.0,0.5617,0.5521,0.5379,0.0,0.0,0.0,0.5166,0.508,0.5051,0.4887,0.4874,0.4957,0.5331,0.5067,0.4915,0.4899,0.3431,0.3687,0.5832,0.5688,0.5677,0.5806,0.58,0.5861,0.5969,0.5983,0.5901,0.5752,0.5623,0.5507,0.5388,0.561,0.3619,0.0508,0.0298,0.0,0.0,0.0,0.0,0.0,0.0,0.0,0.0,-0.0,0.1683,0.4174,0.714,0.7667,0.7374,0.7959,0.8522,0.8981,0.915,0.9415,0.9683,0.9781,0.5125,0.0706,0.0117,-0.0,-0.0,-0.0,-0.0,-0.0,0.0,0.0,0.0,0.0,0.0,0.0,0.0,0.0,0.0,0.0,0.0,0.0,0.0,0.0,0.0,0.0,-0.0,-0.0,-0.0,-0.0,-0.0,-0.0,-0.0,-0.0,-0.0,-0.0,-0.0,-0.0,-0.0,-0.0,-0.0,-0.0,-0.0,-0.0,-0.0,-0.0,-0.0,-0.0,-0.0,-0.0,-0.0,-0.0,-0.0,0.0,0.0,0.0,0.0,0.0,0.0,0.0,0.0,0.5189,0.523,0.5311,0.5372,0.5379,0.5264,0.0,0.337,0.4271,0.4857,0.4931,0.3604,0.3393,0.4669,0.2455,0.1137,0.1166,0.2154,0.373,0.5768,0.5761,0.5734,0.5755,0.5741,0.5634,0.5508,0.563,0.5596,0.5454,0.542,0.5413,0.5426,0.5451,0.5084,0.4312,0.2753,0.2218,0.0,0.0,0.0,0.0,0.0,0.0,0.0,-0.0,0.0414,0.1827,0.656,0.6453,0.5401,0.8166,0.899,0.9161,0.9422,0.9646,0.9761,0.982,0.8744,0.6217,0.1009,-0.0,-0.0,-0.0,-0.0,0.0,0.0,0.0,0.0,0.0,0.0,0.0,0.0,0.0,0.0,0.0,0.0,0.0,0.0,0.0,0.0,-0.0,-0.0,-0.0,-0.0,-0.0,-0.0,-0.0,-0.0,-0.0,0.0,-0.0,-0.0,-0.0,-0.0,-0.0,-0.0,-0.0,-0.0,-0.0,-0.0,-0.0,-0.0,-0.0,-0.0,-0.0,-0.0,-0.0,-0.0,0.0,0.0,0.0,0.0,0.0,0.0,0.0,0.0,0.5788,0.5276,0.5274,0.5264,0.5147,0.4296,0.0,0.0,0.4237,0.467,0.4706,0.3835,0.2995,0.2393,0.0845,-0.0,-0.0,0.0907,0.1955,0.3046,0.3993,0.4588,0.485,0.5212,0.5378,0.5432,0.5521,0.5535,0.5401,0.548,0.5459,0.5415,0.544,0.5527,0.5477,0.4467,0.4181,0.4091,0.331,0.0,0.0,0.0,0.0,0.0,0.0,0.0,0.0795,0.4928,0.5092,0.4414,0.6574,0.8285,0.9525,0.9605,0.9768,0.9822,0.9822,0.9829,0.8871,0.5358,0.3463,0.1835,0.0241,0.0,0.0,0.0,0.0,0.0,0.0,0.0,0.0,0.0,0.0,0.0,0.0,0.0,0.0,0.0,0.0,-0.0,-0.0,-0.0,-0.0,-0.0,-0.0,-0.0,-0.0,-0.0,-0.0,-0.0,-0.0,-0.0,-0.0,-0.0,-0.0,-0.0,-0.0,-0.0,-0.0,-0.0,-0.0,-0.0,-0.0,-0.0,-0.0,-0.0,-0.0,-0.0,0.0,0.0,0.0,0.0,0.0,0.0,0.0,0.0,0.0,0.5635,0.5255,0.5021,0.4913,0.3556,0.3114,0.0,0.0,0.0,0.4119,0.3851,0.2618,0.0145,-0.0,-0.0,-0.0,-0.0,-0.0,-0.0,0.1727,0.2934,0.3641,0.4579,0.5213,0.5432,0.544,0.5425,0.5431,0.5452,0.5484,0.5439,0.5487,0.5467,0.5444,0.5563,0.5565,0.546,0.5962,0.3984,0.0985,0.0232,0.0,0.0,0.0,0.0,0.0434,0.2615,0.3308,0.3673,0.5335,0.7713,0.9846,0.9834,0.9822,0.9822,0.9822,0.9822,0.9829,0.9842,0.7622,0.4916,0.0,0.0,0.0,0.0,0.0,0.0,0.0,0.0,0.0,0.0,0.0,0.0,0.0,0.0,0.0,0.0,0.0,-0.0,-0.0,-0.0,-0.0,-0.0,-0.0,-0.0,-0.0,-0.0,-0.0,-0.0,-0.0,-0.0,-0.0,-0.0,-0.0,-0.0,-0.0,-0.0,-0.0,-0.0,-0.0,-0.0,-0.0,-0.0,-0.0,-0.0,-0.0,-0.0,0.0,0.0,0.0,0.0,0.0,0.0,0.0,0.0,0.0,0.0,0.5428,0.5008,0.4823,0.4521,0.4376,0.4513,0.3732,0.3019,0.2536,0.0,0.0,-0.0,-0.0,-0.0,-0.0,-0.0,-0.0,-0.0,0.0285,0.1095,0.2468,0.4159,0.5068,0.5365,0.5121,0.513,0.5417,0.5255,0.5269,0.5431,0.541,0.5436,0.5426,0.5447,0.5398,0.544,0.5473,0.5498,0.4866,0.1215,-0.0,0.0,0.0,0.0,0.0085,0.0426,0.0522,0.1792,0.7536,0.9461,0.9822,0.9806,0.9822,0.9822,0.9822,0.9822,0.9822,0.0,0.947,0.0,0.0,0.0,0.0,0.0,0.0,0.0,0.0,0.0,0.0,0.0,0.0,0.0,0.0,0.0,0.0,0.0,-0.0,-0.0,-0.0,-0.0,-0.0,-0.0,-0.0,-0.0,-0.0,-0.0,-0.0,-0.0,-0.0,-0.0,-0.0,-0.0,-0.0,-0.0,-0.0,-0.0,-0.0,-0.0,-0.0,-0.0,-0.0,-0.0,-0.0,-0.0,-0.0,-0.0,0.0,0.0,0.0,0.0,0.0,0.0,0.0,0.0,0.0,0.0,0.0,0.4917,0.4776,0.471,0.466,0.4535,0.412,0.3744,0.3528,0.3188,0.2117,0.007,-0.0,-0.0,-0.0,-0.0,-0.0,-0.0,-0.0,0.0739,0.2253,0.3877,0.4784,0.5061,0.4924,0.4862,0.4869,0.4096,0.3224,0.245,0.3448,0.387,0.3853,0.3871,0.3861,0.3857,0.3872,0.4708,0.557,0.4059,0.198,-0.0,-0.0,0.0,0.0,0.0,-0.0,0.0608,0.3558,0.6992,0.9752,0.9752,0.9834,0.9822,0.9822,0.9822,0.9822,0.9822,0.0,0.0,0.0,0.0,0.0,0.0,0.0,0.0,0.0,0.0,0.0,0.0,0.0,0.0,0.0,0.0,0.0,0.0,-0.0,-0.0,-0.0,-0.0,-0.0,-0.0,-0.0,-0.0,-0.0,-0.0,-0.0,-0.0,-0.0,-0.0,-0.0,-0.0,-0.0,-0.0,-0.0,-0.0,-0.0,-0.0,-0.0,-0.0,-0.0,-0.0,-0.0,-0.0,-0.0,-0.0,0.0,0.0,0.0,0.0,0.0,0.0,0.0,0.0,0.0,0.0,0.0,0.4863,0.4707,0.0,0.0,0.0,0.4484,0.4326,0.3949,0.4713,0.4014,0.1479,0.0481,-0.0,-0.0,-0.0,-0.0,-0.0,-0.0,0.0595,0.1656,0.3623,0.455,0.4718,0.4301,0.3863,0.337,0.32,0.194,0.0124,0.1471,0.2041,0.2027,0.2045,0.2006,0.1991,0.1998,0.291,0.4104,0.4515,0.2592,-0.0,-0.0,-0.0,0.0,0.0,0.0,-0.0,-0.0,0.3582,0.7719,0.938,0.9759,0.9813,0.9802,0.9822,0.9822,0.0,0.0,0.0,0.0,0.0,0.0,0.0,0.0,0.0,0.0,0.0,0.0,0.0,0.0,0.0,0.0,0.0,0.0,0.0,0.2864,0.2487,0.1539,0.1418,0.1438,0.1456,0.1457,0.102,-0.0,-0.0,-0.0,-0.0,-0.0,-0.0,-0.0,-0.0,-0.0,-0.0,-0.0,-0.0,-0.0,-0.0,-0.0,-0.0,-0.0,-0.0,-0.0,-0.0,-0.0,-0.0,0.0,0.0,0.0,0.0,0.0,0.0,0.0,0.0,0.0,0.0,0.0,0.4863,0.4707,0.4759,0.4704,0.449,0.449,0.3868,0.2401,0.3725,0.4706,0.5119,0.1821,0.0,-0.0,-0.0,-0.0,-0.0,-0.0,0.0065,0.0185,0.3153,0.4505,0.4462,0.2974,0.1538,0.041,0.3199,0.2693,-0.0,0.0132,0.0139,0.0146,0.0153,0.0156,0.0155,0.0148,0.0222,0.03,0.0286,0.0146,-0.0,-0.0,-0.0,-0.0,0.0,0.0,0.0,-0.0,0.0278,0.2029,0.8263,0.9817,0.9809,0.9761,0.9836,0.9822,0.0,0.0,0.0,0.0,0.0,0.0,0.0,0.0,0.0,0.0,0.0,0.0,0.0,0.0,0.0,0.0,0.0,0.0,0.0,1.071,0.9429,0.5723,0.5514,0.5444,0.5518,0.5518,0.3776,-0.0,-0.0,-0.0,-0.0,-0.0,-0.0,-0.0,-0.0,-0.0,-0.0,-0.0,-0.0,-0.0,-0.0,-0.0,-0.0,-0.0,-0.0,-0.0,-0.0,-0.0,-0.0,0.0,0.0,0.0,0.0,0.0,0.0,0.0,0.0,0.0,0.0,0.0,0.0,0.0,0.4766,0.4295,0.3137,0.3928,0.4244,0.3716,0.2387,0.1688,0.1908,0.0714,-0.0,-0.0,-0.0,-0.0,-0.0,-0.0,-0.0,-0.0,0.111,0.2632,0.4468,0.3934,0.3602,0.3421,0.3128,0.188,0.0192,0.2313,0.4166,0.5325,0.1489,-0.0,-0.0,-0.0,0.2002,0.4081,0.0995,-0.1773,-0.4056,-0.4006,-0.4042,-0.3776,-0.2415,-0.1029,-0.0326,-0.1913,-0.1184,0.067,0.3621,0.5517,0.7254,0.9349,0.9845,0.9808,0.0,0.0,0.0,0.0,0.0,0.0,0.0,0.0,0.0,0.0,0.0,0.0,0.0,0.0,0.0,0.0,0.0,0.0,0.0,0.0,1.0776,0.9533,0.9592,0.9579,0.9479,0.9479,0.7715,0.3774,0.3955,0.4006,0.4075,0.4109,0.4006,0.407,0.407,0.407,0.407,0.407,0.5489,0.7863,0.517,0.407,0.407,0.407,0.2348,-0.0,-0.0,-0.0,-0.0,0.0,0.0,0.0,0.0,0.0,0.0,0.0,0.0,0.414,0.4742,0.0,0.0,0.0,0.0,0.3362,0.1625,0.2408,0.2979,0.2979,0.1099,-0.0,-0.0,-0.0,-0.0,-0.0,-0.0,-0.0,-0.0,-0.0,-0.0,-0.0,-0.0,0.1098,0.2967,0.3016,0.3776,0.5027,0.3789,0.2617,0.1734,0.4493,0.6472,0.7346,0.3949,0.21,0.1139,0.0265,0.3028,0.6622,0.3468,-0.1496,-0.626,-0.6266,-0.6283,-0.6026,-0.4608,-0.3266,-0.2619,-0.4337,-0.3646,-0.1869,0.0297,0.2256,0.4232,0.6122,0.7376,0.8414,0.0,0.0,0.0,0.0,0.0,0.0,0.0,0.0,0.0,0.0,0.0,0.0,0.0,0.0,0.0,0.0,0.0,0.0,0.0,0.0,0.0,1.1504,1.1463,1.1482,1.1529,1.1543,1.0354,0.7702,0.792,0.8173,0.8309,0.8379,0.8329,0.8306,0.8306,0.8306,0.8306,0.8453,0.9891,1.2311,0.9578,0.8306,0.8306,0.8306,0.6733,0.4068,0.2658,0.2191,0.2038,0.0,0.0,0.0,0.0,0.0,0.0,-0.0,0.1511,0.313,0.4603,0.0,0.0,0.0,0.0,0.0,0.0168,-0.0,-0.0,-0.0,-0.0,-0.0,-0.0,-0.0,-0.0,-0.0,-0.0,-0.0,-0.0,-0.0,-0.0,-0.0,-0.0,-0.0,-0.0,-0.0,0.161,0.4382,0.5064,0.4984,0.4678,0.6338,0.6424,0.5631,0.7339,0.625,0.3415,0.1091,0.3254,0.7137,0.7108,0.1322,-0.5915,-0.6186,-0.6325,-0.6302,-0.6329,-0.651,-0.6728,0.0,0.0,0.0,-0.1372,0.0493,0.0996,0.0218,0.0,0.0,0.0,0.0,0.0,0.0,0.0,0.0,0.0,0.0,0.0,0.0,0.0,0.0,0.0,0.0,0.0,0.0,0.0,0.0,0.0,1.0894,1.1036,1.1158,1.1314,1.1463,1.1613,1.164,1.1653,1.1653,1.1543,1.1857,1.2456,1.2463,1.2471,1.2447,1.2447,1.2447,1.244,1.2569,1.2569,1.2447,1.2447,1.2447,1.2447,1.2447,1.2447,1.1966,0.7985,0.6414,0.6414,0.0,0.0,0.0,0.0,0.0,-0.0,-0.0,0.0418,0.1774,0.0,0.0,0.0,0.5229,0.2572,0.0566,0.0056,-0.0,-0.0,-0.0,-0.0,-0.0,-0.0,-0.0,-0.0,-0.0,-0.0,-0.0,-0.0,-0.0,-0.0,-0.0,-0.0,-0.0,-0.0,-0.0,0.0489,0.1325,0.2548,0.3898,0.5153,0.487,0.5776,0.7323,0.7952,0.7814,0.7102,0.0,0.7012,0.8007,0.0,0.5476,0.2276,-0.4255,-0.6331,-0.6315,-0.6271,-0.6344,-0.6437,-0.6766,0.0,0.0,0.0,0.0,0.0,0.0,0.0,0.0,0.0,0.0,0.0,0.0,0.0,0.0,0.0,0.0,0.0,0.0,0.0,0.0,0.0,0.0,0.0,0.0,0.0,0.0,0.0,1.0873,1.1016,1.1158,1.1409,1.1572,1.1619,1.1626,1.1626,1.1626,1.1742,1.1898,1.2244,1.2354,1.2352,1.2528,1.2528,1.2528,1.2528,1.2522,1.2522,1.2528,1.2528,1.2528,1.2528,1.2528,1.2542,1.2407,1.1286,1.0826,1.0843,0.0,0.0,-0.0,-0.0,-0.0,-0.0,-0.0,-0.0,0.0427,0.0,0.0,0.0,0.2907,0.1236,-0.0228,-0.0856,-0.1525,-0.1364,-0.0059,-0.0,-0.0675,-0.2191,-0.0783,-0.0,-0.0,-0.0,-0.0,-0.0,-0.0,-0.0,-0.0,-0.0,-0.0,-0.0,-0.0,-0.0,0.0064,0.0895,0.4273,0.8775,0.6159,0.6434,0.8448,0.828,0.8137,0.0,0.0,0.0,0.81,0.6672,0.563,0.3857,-0.1897,-0.4298,-0.5149,-0.6058,-0.5665,-0.4792,-0.4091,-0.4957,-0.631,-0.6905,0.0,0.0,-0.1744,-0.2778,0.0,0.0,0.0,0.0,0.0,0.0,0.0,0.0,0.0,0.0,0.0,0.0,0.0,0.0,0.0,0.0,0.0,0.0,1.0717,1.0717,1.0806,1.0941,1.1151,1.145,1.1619,1.1619,1.1619,1.1619,1.1619,1.1701,1.1816,1.1965,1.2121,1.2271,1.2413,1.2474,1.2501,1.2501,1.2501,1.2501,1.2501,1.2501,1.2501,1.2501,1.2501,1.2515,1.2528,1.2528,1.2542,1.2562,0.0,0.0,-0.0,-0.0,-0.0,-0.0153,-0.0611,-0.0674,-0.1251,0.0,-0.3066,-0.2432,-0.1052,-0.072,-0.1061,-0.218,-0.3639,-0.34,-0.071,-0.0609,-0.1946,-0.4951,-0.2195,-0.0409,-0.0,-0.0,-0.0,-0.0,-0.0,-0.0,-0.0,-0.0,-0.0,-0.0,-0.0,-0.0,-0.0,-0.0,0.498,1.2586,0.8783,0.8098,0.9211,0.0,0.8131,0.816,0.8803,0.866,0.7883,0.6025,0.3896,0.188,0.0465,-0.1239,-0.3114,-0.5062,-0.4251,-0.2336,-0.0509,-0.2519,-0.5494,-0.6806,-0.6105,0.0,-0.443,-0.4339,0.0,0.0,0.0,0.0,0.0,0.0,0.0,0.0,0.0,0.0,0.0,0.0,0.0,0.0,0.0,0.0,0.0,1.0731,1.0717,1.0717,1.0751,1.0887,1.1151,1.145,1.1619,1.1619,1.1619,1.1619,1.1619,1.1619,1.1687,1.183,1.1986,1.2142,1.2298,1.2433,1.2501,1.2501,1.2501,1.2501,1.2501,1.2501,1.2501,1.2501,1.2501,1.2501,1.2501,1.2501,1.2501,1.2501,-0.0,-0.0,-0.0,-0.0,-0.0,-0.1124,-0.4518,-0.5063,-0.5213,-0.5544,-0.5167,-0.4785,-0.4423,-0.4362,-0.3853,-0.2681,-0.3777,-0.4314,-0.3982,-0.4215,-0.4024,-0.3255,-0.3961,-0.2999,-0.007,-0.0,-0.0,-0.0,-0.0,-0.0,-0.0,-0.0,-0.0,-0.0,-0.0,-0.0,-0.0,-0.0,0.2189,0.5924,0.9507,1.0632,1.0123,0.9261,0.9905,1.1141,0.9975,0.9533,0.9275,0.8418,0.6389,0.3778,0.0938,-0.0274,-0.0648,-0.1065,-0.0972,-0.0535,-0.0089,-0.3616,-0.7289,-0.7105,-0.704,0.0,-0.6602,-0.6649,0.0,0.0,0.0,0.0,0.0,0.0,0.0,0.0,0.0,0.0,0.0,0.0,0.0,0.0,0.0,0.0,0.0,1.0731,1.0717,1.0717,1.0941,1.1104,1.1158,1.145,1.1619,1.1619,1.1619,1.1619,1.1619,1.1619,1.1687,1.183,1.1986,1.2142,1.2298,1.2433,1.2501,1.2501,1.2501,1.2501,1.2501,1.2501,1.2501,1.2501,1.2501,1.2501,1.2501,1.2501,1.2501,1.2501,-0.0,-0.0,-0.0,-0.0,-0.0,-0.1402,-0.5671,-0.6316,-0.6311,-0.6325,-0.5867,-0.5555,-0.5533,-0.5446,-0.4984,-0.3955,-0.4362,-0.451,-0.4105,-0.4785,-0.4847,-0.4084,-0.4919,-0.4131,-0.1435,-0.0493,-0.0,-0.0,-0.0,-0.0,-0.0,-0.0,-0.0,-0.0,-0.0,-0.0,0.0143,0.2506,0.3581,0.3989,0.8487,0.0,1.0685,0.9654,0.9982,1.068,1.0009,0.9829,0.9713,0.892,0.8081,0.0,0.5432,0.2605,-0.0,-0.0,-0.0,-0.0,-0.0,-0.1973,-0.4563,-0.6969,-0.7478,0.0,0.0,0.0,0.0,0.0,0.0,0.0,0.0,0.0,0.0,0.0,0.0,0.0,0.0,0.0,0.0,0.0,0.0,0.0,0.0,1.0744,1.0751,1.0826,1.1036,1.1199,1.1274,1.1497,1.1619,1.1619,1.1619,1.1619,1.1619,1.1619,1.1653,1.1728,1.1952,1.2101,1.2182,1.24,1.2501,1.2501,1.2501,1.2501,1.2501,1.2501,1.2501,1.2501,1.2501,1.2501,1.2501,1.2501,1.2501,1.2501,-0.0158,-0.0,-0.0,-0.0,-0.0,-0.117,-0.4594,-0.5816,-0.6324,-0.6308,-0.6002,-0.5504,-0.4791,-0.5092,-0.5173,-0.4634,-0.4813,-0.464,-0.3871,-0.4558,-0.5153,-0.5528,-0.542,-0.4742,-0.3291,-0.1496,-0.0577,-0.057,-0.0594,-0.0372,-0.0,-0.0,-0.0,-0.0,-0.0,0.0505,0.1589,0.5451,0.6086,0.4762,0.0,0.9596,1.107,0.9809,0.9652,1.0119,0.9961,0.9883,0.9802,0.8984,0.914,0.9706,0.8885,0.5505,0.1651,0.0373,-0.0,-0.0,-0.0,-0.0,-0.0998,-0.5339,-0.6527,-0.6527,0.0,0.0,0.0,0.0,0.0,0.0,0.0,0.0,0.0,0.0,0.0,0.0,0.0,0.0,0.0,0.0,0.0,0.0,0.0,1.0677,1.0751,1.0934,1.1056,1.1199,1.1382,1.1538,1.1619,1.1619,1.1619,1.1619,1.1619,1.1619,1.1619,1.1619,1.1918,1.206,1.2074,1.2366,1.2501,1.2501,1.2501,1.2501,1.2501,1.2501,1.2501,1.2501,1.2501,1.2501,1.2501,1.2501,1.2501,1.2501,-0.0712,-0.0,-0.0,-0.0,-0.0,-0.0167,-0.0653,-0.3916,-0.6284,-0.6304,-0.6276,-0.498,-0.1767,-0.3844,-0.4722,-0.2973,-0.4337,-0.5439,-0.5688,-0.5474,-0.5552,-0.5915,-0.559,-0.5356,-0.5359,-0.3661,-0.2715,-0.2769,-0.2784,-0.1826,-0.0,-0.0,-0.0,-0.0,-0.0,0.2348,0.6359,0.6841,0.7433,0.8009,0.8639,0.9819,0.0,0.9723,1.0596,1.2365,1.0576,1.0114,1.0134,0.0,0.9483,0.9157,0.5793,0.6463,0.7515,0.1716,-0.0,-0.0,-0.0,-0.0,-0.0187,-0.0725,-0.2611,-0.4304,-0.4097,0.0,-0.4322,-0.4097,0.0,0.0,0.0,0.0,0.0,0.0,0.0,0.0,0.0,0.0,0.0,0.0,0.0,0.0,0.0,0.0,1.0636,1.0928,1.0962,1.1097,1.1375,1.1538,1.1619,1.1619,1.1619,1.1619,1.1619,1.1619,1.1619,1.1619,1.1918,1.206,1.2074,1.2366,1.2501,1.2501,1.2501,1.2501,1.2501,1.2501,1.2501,1.2501,1.2501,1.2501,1.2501,1.2501,1.2501,1.2501,-0.0823,-0.0,-0.0,-0.0,-0.0,-0.0,-0.0,-0.1526,-0.3084,-0.426,-0.4466,-0.337,-0.0685,-0.104,-0.1644,-0.1883,-0.1489,-0.1478,0.0,-0.3037,-0.3464,-0.3246,-0.5583,-0.6531,-0.5751,-0.5146,-0.4848,-0.4925,-0.4991,-0.4471,-0.3611,-0.2401,-0.1819,-0.1655,0.1465,0.3934,0.5923,0.7238,0.8095,0.8501,0.0,0.0,0.0,0.9529,1.0333,1.1183,1.035,1.0148,1.0369,0.0,0.97,0.0,0.7864,0.6004,0.3987,0.312,0.1457,0.0749,0.4196,0.5426,0.4735,0.0947,-0.0864,-0.1641,-0.1566,-0.1636,-0.1635,-0.1545,0.0,0.0,0.0,0.0,0.0,0.0,-0.7737,0.0,0.0,0.0,0.0,0.0,0.0,0.0,0.0,0.0,0.0,0.0,0.0,1.1249,1.1565,1.1598,1.1619,1.1619,1.1619,1.1619,1.1619,1.1619,1.1619,1.1619,1.183,1.1972,1.2067,1.2284,1.2427,1.2501,1.2501,1.2501,1.2501,1.2501,1.2501,1.2501,1.2501,1.2501,1.2501,1.2501,1.2501,1.2501,-0.2555,-0.183,-0.1757,-0.1766,-0.1267,-0.0842,-0.081,-0.1346,-0.1877,-0.2187,-0.2245,-0.1463,0.0618,-0.0226,-0.0764,-0.0082,0.0829,0.1091,0.0,0.0,-0.2658,-0.3752,-0.631,-0.7311,-0.6448,-0.6521,-0.65,-0.6291,-0.6542,-0.6563,-0.6353,-0.4751,-0.399,-0.3928,0.0083,0.2782,0.4555,0.6267,0.7638,0.866,0.8112,0.8279,0.8948,0.961,0.9873,1.0046,1.0122,1.0287,1.0489,1.0349,0.9863,0.9222,0.9686,0.6537,0.2876,0.4418,0.3251,0.2232,0.6549,0.8615,0.847,0.3851,0.1365,-0.0,-0.0,-0.0,-0.0,-0.0,-0.0,0.0,0.0,0.0,-0.1145,-0.4614,0.0,-0.7059,0.0,0.0,0.0,0.0,0.0,0.0,0.0,0.0,0.0,0.0,0.0,0.0,1.1518,1.1566,1.1646,1.1613,1.1619,1.1619,1.1619,1.1619,1.1619,1.1619,1.1762,1.1911,1.2067,1.2223,1.2366,1.2501,1.2501,1.2501,1.2501,1.2501,1.2501,1.2501,1.2501,1.2501,1.2501,1.2501,1.2501,1.2501,-0.688,-0.6467,-0.6123,-0.6116,-0.4398,-0.2977,-0.2982,-0.4784,-0.4628,-0.0627,-0.008,0.0652,0.0,0.0,-0.3974,0.317,0.0,0.0292,0.0873,0.0,-0.4287,-1.0052,-0.8265,-0.7379,-0.7944,-0.7942,-0.7411,-0.6331,-0.7249,-0.7344,-0.6572,-0.6342,-0.6358,-0.6576,-0.6152,-0.2454,0.3402,0.3665,0.5896,0.9195,0.9096,0.9432,0.9767,0.0,0.9934,1.018,1.0246,0.0,0.0,1.0198,1.0039,0.9903,0.9325,0.9181,0.8607,0.5701,0.4817,0.4729,0.4679,0.6754,0.906,0.9369,0.4747,-0.0,-0.0,-0.0,-0.0,-0.0,-0.0,-0.0095,-0.019,-0.0095,-0.0096,-0.0195,-0.2249,0.0,0.0,0.0,0.0,0.0,0.0,0.0,0.0,0.0,0.0,0.0,0.0,0.0,1.1361,1.1561,1.1621,1.1606,1.1619,1.1619,1.1619,1.1619,1.1619,1.1619,1.1762,1.1911,1.2067,1.2223,1.2366,1.2501,1.2501,1.2501,1.2501,1.2501,1.2501,1.2501,1.2501,1.2501,1.2501,1.2501,1.2501,1.2501,-0.7143,-0.6873,-0.6589,-0.659,-0.5978,-0.5476,-0.5513,-0.5946,-0.4579,0.0,0.0,0.0,0.0,0.3499,0.2739,0.0,0.0,0.43,0.0516,0.1648,0.0,0.0,0.0,-0.556,0.0,-0.7895,-0.8462,-0.6338,-0.7549,-0.7637,-0.6565,-0.6532,-0.6559,-0.6498,-0.4601,-0.2212,0.0687,0.3543,0.6674,0.9574,0.9559,0.9647,0.9786,0.0,0.9891,1.018,1.0252,1.0383,0.0,1.0445,1.0141,0.9869,0.9727,0.9627,0.937,0.8406,0.8125,0.81,0.8053,0.8823,0.9189,0.6848,0.4797,0.2655,0.049,-0.0,-0.0,-0.0,-0.0,-0.0,-0.0,-0.0,-0.0,-0.0,-0.3632,-0.6853,0.0,0.0,0.0,0.0,0.0,0.0,0.0,0.0,0.0,0.0,0.0,0.0,0.0,1.0092,1.1558,1.1457,1.1565,1.1619,1.1619,1.1619,1.1619,1.1619,1.1667,1.1769,1.1911,1.2067,1.2223,1.2366,1.2461,1.2501,1.2501,1.2501,1.2501,1.2501,1.2501,1.2501,1.2501,1.2501,1.2501,1.2501,-0.7061,-0.6954,-0.6873,-0.6787,-0.6759,-0.6434,-0.5576,-0.6111,0.0,0.0,-0.0539,0.0,0.4258,0.0,0.4372,0.0,0.4011,0.3214,0.3139,0.2974,0.0,0.4514,-0.2976,0.0,0.0,-0.6631,-0.843,-0.7341,-0.7967,-0.773,-0.6634,-0.6681,-0.6702,-0.6639,-0.4793,-0.2875,-0.0901,0.2575,0.6298,0.9749,0.9843,0.9851,0.0,0.0,0.9255,1.004,0.0,1.0259,1.0204,1.027,1.0141,0.991,0.9958,0.9772,0.9638,0.9743,0.9846,0.9822,0.9831,1.0054,0.9607,0.7062,0.5795,0.4131,0.0734,-0.0,-0.0,-0.0,-0.0,-0.0,-0.0,-0.0,-0.0,-0.0,-0.2866,-0.5174,0.0,-0.2225,0.0,0.0,0.0,0.0,0.0,0.0,0.0,0.0,0.0,0.0,0.0,0.0,1.1424,1.1531,1.1592,1.1647,1.1694,1.1647,1.1619,1.1619,1.1619,1.1694,1.1837,1.1932,1.206,1.2216,1.2366,1.2427,1.2433,1.2481,1.2501,1.2501,1.2501,1.2501,1.2501,1.2501,1.2501,1.2501,-0.7121,-0.7101,-0.7094,-0.6887,-0.6773,-0.5911,-0.3466,0.0,-0.7158,0.0,-0.656,-0.4785,-0.1055,-0.0,0.1054,0.2832,-0.3337,-0.2921,0.7332,0.2877,0.0,0.0,-0.6458,-0.6893,-0.0104,0.0,0.0,-0.9118,-0.8489,-0.778,-0.6926,-0.6783,-0.6865,-0.7027,-0.6837,-0.4844,-0.1599,0.0507,0.4559,0.9705,0.972,0.9766,0.9395,0.7513,0.8033,0.9808,0.994,0.9998,1.0053,0.9958,1.0046,1.0012,0.9869,0.9829,0.9829,0.9829,0.9937,1.0032,0.989,1.0137,1.0328,1.0229,0.7897,0.4732,0.1258,0.034,0.0224,-0.0,-0.0,-0.0,-0.0,-0.0,-0.0,-0.0,-0.0,-0.0,-0.0,-0.0,0.0,0.0,0.0,0.0,0.0,0.0,0.0,0.0,0.0,0.0,0.0,0.0,1.134,1.1762,1.1667,1.1667,1.1796,1.1674,1.1606,1.1599,1.1619,1.1694,1.1823,1.183,1.1911,1.206,1.221,1.2284,1.2298,1.2433,1.2494,1.2501,1.2501,1.2501,1.2501,1.2501,1.2501,1.2501,-0.7285,-0.7373,-0.7421,-0.708,-0.7015,-0.6224,0.0,0.0,0.0,0.0,-0.6085,-0.3038,0.2543,0.4841,0.4525,0.1152,-0.5284,0.0,0.0,0.0,0.0,-0.0115,-0.17,-0.1846,-0.0,-0.2865,-0.5423,-0.745,-0.8297,-0.8107,-0.6932,-0.6993,-0.6927,-0.69,-0.6826,-0.6172,-0.4942,-0.2766,0.1682,0.7547,0.9163,0.88,0.75,0.0,0.9429,1.004,1.0051,0.993,0.9923,0.9985,0.9971,0.9869,0.9836,0.9897,0.9992,0.9992,1.01,1.0236,1.0304,1.0424,1.0545,1.0472,0.9992,0.9129,0.8112,0.5929,0.3297,0.0569,-0.0,-0.0,-0.0,-0.0,-0.0,-0.0,-0.0,-0.0,-0.0,0.0,0.0,-0.0,0.0,0.0,0.0,0.0,0.0,0.0,0.0,0.0,0.0,0.0,0.0,1.1462,1.1727,1.1931,1.165,1.1733,1.1712,1.1601,1.177,1.1742,1.1681,1.1782,1.185,1.1898,1.2054,1.2182,1.2291,1.2332,1.2406,1.2501,1.2501,1.2501,1.2501,1.2501,1.2501,1.2501,-0.7407,-0.7482,-0.7844,-0.9019,-0.9059,-0.7439,-0.2697,-0.3416,0.0,-1.0615,-1.0238,0.0,-0.1569,0.2322,0.2142,-0.3727,-0.5065,0.0,-0.9162,0.0,0.0,-0.3996,-0.1436,-0.0,-0.0,-0.1346,0.0,-0.6913,-0.7689,-0.7767,-0.7021,-0.7027,-0.7027,-0.6867,-0.5889,-0.5913,-0.6266,0.0199,0.501,0.8317,0.9537,0.9288,0.0,0.9587,1.0137,1.0201,1.0163,1.0093,1.0025,1.0039,1.0039,1.0025,1.0025,1.008,1.0148,1.0148,1.0256,1.0392,1.0473,1.0541,1.0595,1.074,1.069,1.0721,1.071,0.9155,0.7205,0.5287,0.3658,0.2074,0.0252,0.0,-0.0,-0.0,-0.0,-0.0,-0.0,0.0,0.0,0.0,-0.0,0.0,0.0,0.0,0.0,0.0,0.0,0.0,0.0,0.0,0.0,0.8836,1.0835,1.106,0.9285,0.9853,1.0779,1.1881,1.188,1.1857,1.1714,1.1796,1.1796,1.1748,1.1898,1.2047,1.2196,1.2264,1.2372,1.2501,1.2501,1.2501,1.2501,1.2501,1.2501,1.2501,-0.7567,-0.7695,-0.8832,-1.1427,-1.1676,-0.9414,0.0,-0.2067,0.0,-1.2683,0.0,-1.4074,-0.9557,-0.3607,-0.2346,-0.8055,0.0,-0.3346,-0.8153,-0.8377,-0.853,-0.8836,-0.3984,-0.0801,-0.0,-0.0,-0.2197,0.0,-0.69,-0.7085,-0.7143,-0.7074,-0.6903,-0.6542,-0.483,-0.4282,-0.4163,0.5798,1.0163,1.0303,1.0273,1.0314,1.0414,1.0414,1.0336,1.0304,1.029,1.0283,1.0256,1.0127,1.0168,1.0283,1.0283,1.029,1.031,1.031,1.0412,1.0521,1.0521,1.0616,1.0717,1.0717,1.0717,1.069,1.0713,1.0706,1.0767,1.1059,0.8654,0.5544,0.2138,0.0,-0.0,-0.0,-0.0,0.0,0.0,0.0,0.0,0.0,0.0,0.0,0.0,0.0,0.0,0.0,0.0,0.0,0.0,0.0,0.0,0.4982,0.8318,0.9032,0.697,0.0,0.8765,1.2179,1.2185,1.2013,1.187,1.1864,1.1796,1.1687,1.1809,1.1938,1.2074,1.223,1.2372,1.2501,1.2501,1.2501,1.2501,1.2501,1.2501,1.2501,-0.7848,-0.9531,-1.1317,-1.1778,-1.1875,-1.2058,-1.2881,-1.3018,-1.0599,-0.3726,-1.0401,-1.5471,-1.4508,-0.5806,-0.0494,-0.1605,-0.5675,0.0,0.0,0.0,0.0,-0.8787,-0.7869,-0.5009,-0.0115,-0.0,-0.1377,0.0,-0.6112,-0.7085,-0.7143,-0.7074,-0.6086,-0.4287,-0.5841,-0.1221,0.7502,0.6727,0.7932,1.035,1.0273,1.0294,1.0335,1.0335,1.0438,1.0439,1.0324,1.0283,1.0276,1.0249,1.0256,1.0283,1.0283,1.0365,1.0453,1.0453,1.0561,1.0677,1.0677,1.0697,1.0717,1.0717,1.0717,1.0717,1.069,1.0785,1.0887,1.0941,1.071,1.0178,0.9597,0.0,0.0,0.0,0.0,0.0,0.0,0.0,0.0,0.0,0.0,0.0,0.0,0.0,0.0,0.0,0.0,0.0,0.0,0.0,0.0,0.0,0.1627,0.0,0.0,0.0,0.5122,1.2394,1.2487,1.2361,1.2067,1.2033,1.2006,1.1986,1.2013,1.204,1.2074,1.223,1.2372,1.2501,1.2501,1.2501,1.2501,1.2501,1.2501,1.2501,-0.9164,-0.9606,-1.072,-1.3465,0.0,0.0,0.0,-1.2976,-0.9216,-0.105,-0.4493,-0.7638,-0.7638,-0.3041,-0.0,-0.0,-0.2837,-0.4803,-0.5129,-0.3413,-0.2905,-0.4178,-0.4297,-0.296,-0.0116,-0.0,-0.1207,-0.357,-0.5932,-0.712,-0.7143,-0.7094,-0.583,-0.3396,0.0373,0.5303,1.0638,0.8864,0.911,1.053,1.0465,1.0507,1.0507,1.0507,1.0555,1.0602,1.0534,1.0507,1.0493,1.0419,1.0439,1.0507,1.0507,1.0555,1.0609,1.0609,1.0663,1.0717,1.0717,1.0717,1.0717,1.0717,1.0717,1.0744,1.0819,1.0894,1.0995,1.1158,1.1253,1.1365,1.1632,0.8086,0.0,0.0,0.0,0.0,0.0,0.0,-0.0,0.0,0.0,0.0,0.0,0.0,0.0,-0.0,-0.0,0.0,0.0,0.0,0.0,0.0,0.0,0.0,0.0,0.0,0.0,0.6085,0.889,1.1103,1.2381,1.2196,1.2135,1.206,1.206,1.2108,1.2189,1.2338,1.244,1.2501,1.2501,1.2501,1.2501,1.2501,1.2501,1.2501,-1.0509,-1.0171,-1.0952,-1.512,-1.3572,-1.2134,-1.3243,-1.1306,-0.7578,-0.1811,-0.109,-0.0727,-0.0121,-0.0,-0.0,-0.0,-0.0,-0.2222,-0.7429,-0.2839,-0.0,-0.0,-0.0,-0.0,-0.0,-0.0,-0.0912,0.0,0.0,-0.6877,-0.637,-0.6853,-0.4854,-0.0462,0.731,1.0699,1.059,1.0677,1.0696,1.0731,1.0685,1.0731,1.0724,1.0724,1.0724,1.0717,1.0717,1.0717,1.0704,1.0582,1.0622,1.0717,1.0717,1.0717,1.0717,1.0717,1.0717,1.0717,1.0717,1.0744,1.0772,1.0772,1.0792,1.0846,1.0968,1.1023,1.1111,1.1341,1.1416,1.1461,1.1475,1.0809,0.0,0.0,0.0,0.0,0.0,0.0,0.0,0.0,0.0,0.0,0.0,0.0,0.0,-0.0,-0.0,0.0,-0.0,0.0,0.0,0.0,0.0,-0.0,-0.0,0.0,-0.0,-0.0,0.4381,0.8688,1.2546,1.2366,1.2284,1.2162,1.2128,1.2182,1.2298,1.244,1.2501,1.2501,1.2501,1.2501,1.2501,1.2501,1.2501,1.2501,-1.1232,-1.3606,-1.5243,-1.575,0.0,-0.9996,-1.4751,-1.4029,-1.0891,-0.5147,-0.4416,-0.3311,-0.0368,-0.0,-0.0,-0.0,-0.0,-0.0247,-0.0864,-0.037,-0.0,-0.0,-0.0,-0.0,-0.0,-0.0,-0.0117,0.0,0.0,-0.5997,-0.3971,-0.6132,-0.146,0.8582,1.0028,1.0635,1.0472,1.0649,1.0713,1.0683,1.0765,1.0645,1.0751,1.0751,1.0738,1.0717,1.0717,1.0717,1.0717,1.0704,1.0711,1.0717,1.0717,1.0717,1.0717,1.0717,1.0717,1.0717,1.0717,1.0819,1.0928,1.0928,1.1023,1.1124,1.1138,1.1253,1.1355,1.1389,1.1504,1.1504,1.1324,1.1399,1.0987,0.0,0.0,0.0,0.0,0.0,0.6653,0.0737,0.0,0.0,0.0,0.0,0.0,0.0,-0.0,0.0,0.0,0.0,0.0,-0.0,0.0,-0.0,-0.0,-0.0,-0.0,-0.0,0.0459,0.4957,1.2454,1.2427,1.2393,1.2501,1.2206,1.2298,1.2298,1.244,1.2501,1.2501,1.2501,1.2501,1.2501,1.2501,1.2501,1.2501,-0.946,-0.7852,0.0,0.0,0.0,0.0,0.0,-1.0183,-0.8212,-0.8105,-0.8002,-0.7366,-0.6068,-0.2344,-0.0,-0.0,-0.0,-0.0,-0.0,-0.0,-0.0,-0.0,-0.0,-0.0,-0.0,-0.0,-0.0,0.0,0.0,-0.4489,-0.3494,0.0986,0.3316,0.4076,0.8292,1.0346,1.0601,1.0658,0.9502,0.7512,0.7522,0.7522,0.7784,0.9831,1.0645,1.0632,1.0744,1.0738,1.0738,1.0724,1.0717,1.0717,1.0717,1.0717,1.0717,1.0717,1.0785,1.086,1.086,1.0968,1.1077,1.1077,1.1118,1.1185,1.128,1.1348,1.1416,1.1511,1.1579,1.1586,1.1457,1.1434,1.1207,1.0871,0.0,0.0,0.0,0.0,0.0,0.6006,0.0,-0.0,0.0,0.0,0.0,0.0,-0.0,0.0,0.0,0.0,0.0,-0.0,0.0,-0.0,-0.0,-0.0,-0.0,-0.0,-0.0,0.3139,0.8802,0.885,1.0112,1.2427,1.2205,1.2333,1.2649,1.2542,1.2562,1.2562,1.2562,1.2562,1.2562,1.2562,1.2556,1.2542,-0.9124,0.0,-0.0,0.0,-0.3191,-0.6754,-1.0218,-0.8346,-0.7466,-0.9995,-1.0141,-0.9982,-0.9854,-0.5694,-0.2096,-0.0123,-0.1727,-0.2097,-0.0123,-0.0,-0.0,-0.0,-0.0,0.0,-0.0,-0.0,0.0971,0.2937,0.1144,0.0334,0.0434,0.6978,0.7446,0.3196,0.7972,0.9619,0.9123,1.0215,0.9308,0.6719,0.4696,0.3756,0.4021,0.6585,0.821,0.9157,0.914,0.9813,1.0772,1.0792,1.0799,1.0799,1.0792,1.0785,1.0799,1.0839,1.0928,1.1009,1.1009,1.1118,1.1226,1.1226,1.126,1.1328,1.1436,1.1457,1.1491,1.1599,1.1619,1.1619,1.1619,1.1443,1.1392,1.1523,0.0,0.0,0.0,0.9105,0.0,1.0101,0.5276,0.2194,0.3357,0.2374,0.0,0.0,0.0,0.0,0.0,0.0,0.0,0.0,0.0,0.0,0.0,-0.0,-0.0,-0.0,-0.0,0.1574,0.4393,0.4421,0.5984,0.8905,0.9912,1.0537,1.0952,1.0867,1.0716,1.0687,1.0687,1.0687,1.0687,1.0682,1.067,1.0658,-1.1048,-0.5328,-0.0,-0.0,-0.0,-0.2494,-0.9658,-1.0596,-1.0579,-1.0349,-1.0566,-1.0489,-0.9834,-0.9691,-0.705,-0.0615,-0.5941,-0.6941,-0.0369,-0.0,-0.0,0.0,0.0,-0.0,-0.0,-0.0,0.3213,0.9718,0.0,0.9609,0.9609,1.0091,1.0292,1.0246,1.0561,0.8563,0.525,0.9123,1.0705,1.0015,0.2961,-0.0,0.0134,0.0134,0.2414,0.5499,0.5499,0.7665,1.0692,1.0941,1.0982,1.0975,1.0955,1.0948,1.0975,1.1118,1.1158,1.1158,1.1158,1.1274,1.1389,1.1389,1.1504,1.1613,1.1613,1.1613,1.1619,1.1619,1.1619,1.1619,1.1619,1.1613,1.1578,1.1553,0.9461,0.8547,0.0,1.1213,0.0,1.1588,0.8187,0.7355,1.1119,0.7965,0.0,0.0,0.0,0.0,0.0,0.0,0.0,-0.0,-0.0,0.0,-0.0,-0.0,-0.0,-0.0,-0.0,-0.0,-0.0,-0.0,0.0156,0.0308,0.4564,0.6121,0.5999,0.6459,0.6637,0.6414,0.6414,0.6414,0.641,0.64,0.6396,0.64,-0.4316,-0.167,-0.0,-0.0,-0.4031,-0.6381,-0.3759,-0.7591,-0.8931,-0.3912,-0.7661,-0.8747,-0.3707,-0.3088,-0.2221,0.0,-0.6064,-0.7069,0.0,-0.0,-0.0,-0.0,-0.0,-0.0,-0.0,-0.0,0.3213,0.9854,0.975,0.9894,0.9975,1.0334,1.0551,1.0283,0.8075,0.6398,0.5328,0.6569,0.7125,0.6723,0.1879,0.1475,0.3352,0.094,0.0672,0.1745,0.1762,0.2449,0.3954,0.7319,0.9728,1.1158,1.1226,1.1179,1.1104,1.1151,1.124,1.1321,1.1321,1.143,1.1545,1.1545,1.1586,1.1619,1.1619,1.1619,1.1619,1.1619,1.1619,1.1619,1.1619,1.1619,1.164,1.1544,1.0868,1.0683,1.1425,1.1517,1.1482,1.1526,1.0561,0.998,0.0,0.994,0.0,0.0,0.0,0.0,0.0,0.0,0.0,0.0,-0.0,0.0,-0.0,-0.0,-0.0,-0.0,-0.0,-0.0,-0.0,-0.0,-0.0,-0.0,0.1414,0.1884,0.1871,0.2043,0.2045,0.2038,0.2038,0.2038,0.2038,0.2037,0.2036,0.235,-0.0622,-0.0,-0.0,-0.0,-0.3717,-0.5131,-0.0637,-0.3791,-0.5018,-0.0624,-0.3852,-0.4954,-0.0494,-0.0,-0.0,-0.0,-0.3704,-0.4327,-0.0246,-0.0,-0.0,-0.0,-0.0,-0.0,-0.0,0.2471,0.5698,0.9841,0.9849,1.0023,1.013,1.0424,1.0575,1.0359,0.8291,0.7383,0.7393,0.7393,0.7393,0.7254,0.4967,0.4559,0.5366,0.4434,0.3224,0.2013,0.2031,0.2044,0.2879,0.7364,0.9962,1.1461,1.1436,1.1409,1.1335,1.1335,1.1402,1.1477,1.1477,1.1545,1.1619,1.1619,1.1619,1.1619,1.1619,1.1619,1.1619,1.1619,1.1619,1.1619,1.1619,1.1619,1.1565,1.153,1.1646,1.1605,1.1575,1.1607,1.1034,0.9594,0.0,0.0,0.0,1.1073,1.1112,0.0,0.0,0.0,0.0,0.0,0.0,-0.0,-0.0,-0.0,-0.0,-0.0,-0.0,-0.0,-0.0,-0.0,-0.0,-0.0,-0.0,-0.0,-0.0,-0.0,-0.0,-0.0,-0.0,-0.0,-0.0,-0.0,-0.0,-0.0,-0.0,0.0314,0.0369,0.0374,0.0252,-0.0,-0.0,-0.0,-0.0,-0.0,-0.0,-0.0,-0.0,-0.0,-0.0,-0.0,-0.0,-0.0,-0.0,-0.0,-0.0,-0.0,-0.0,-0.0,0.0494,0.0741,0.0741,0.6699,0.9834,0.9814,1.0046,1.0161,1.0283,1.0439,1.0595,1.0751,1.0751,1.0638,1.0665,1.0665,1.0665,1.0665,1.0672,0.8745,0.6168,0.9436,0.8617,0.5767,0.5774,0.596,0.6727,1.0191,1.1468,1.1612,1.1586,1.1619,1.1619,1.1619,1.1619,1.1619,1.1619,1.1619,1.1619,1.1619,1.1619,1.1619,1.1619,1.1619,1.1619,1.1619,1.1619,1.1619,1.1619,1.1619,1.1619,1.1619,1.1619,1.1525,1.1525,1.1578,1.0302,0.6662,0.0,0.0,1.1869,1.1316,1.1192,0.0,0.0,0.0,0.0,0.0,0.067,0.0429,0.0144,-0.0,-0.0,-0.0,-0.0,-0.0,-0.0,-0.0,-0.0,-0.0,-0.0,-0.0,-0.0,-0.0,-0.0,-0.0,-0.0,-0.0,-0.0,-0.0,-0.0,-0.0,-0.0,-0.0,0.418,0.3699,0.2966,0.0495,-0.0,-0.0,-0.0,-0.0,-0.0,-0.0,-0.0,-0.0,-0.0,-0.0,-0.0,-0.0,-0.0,-0.0,-0.0,-0.0,-0.0,-0.0,0.4827,0.7444,0.7434,0.9063,0.9801,0.9754,1.0134,1.027,1.0283,1.0541,1.069,1.0731,1.0731,1.0731,1.0738,1.0738,1.0738,1.0744,1.0758,1.0212,0.9516,1.0378,1.0238,0.9419,0.9408,0.9668,1.007,1.1041,1.1477,1.1599,1.1613,1.1619,1.1619,1.1619,1.1619,1.1619,1.1619,1.1619,1.1619,1.1619,1.1619,1.1619,1.1619,1.1619,1.1619,1.1619,1.1619,1.1619,1.1619,1.1619,1.1619,1.1619,1.1619,1.1518,1.1351,1.1636,1.1389,1.0178,1.1168,1.1966,1.2081,1.1949,1.1653,0.0,0.0,0.0,0.0,0.9894,0.7806,0.4823,0.1676,-0.0,-0.0,-0.0,-0.0,-0.0,-0.0,-0.0,-0.0,-0.0,-0.0,-0.0,-0.0,-0.0,-0.0,-0.0,-0.0,-0.0,-0.0,-0.0,-0.0,-0.0,-0.0,-0.0,0.7505,0.7143,0.653,0.48,0.3198,0.2706,0.4192,0.3204,0.1724,0.0246,-0.0,-0.0,-0.0,-0.0,-0.0,-0.0,-0.0,-0.0,-0.0,-0.0,0.1358,0.4324,0.7943,0.9069,0.7541,0.9045,0.9781,0.9856,1.0154,1.0297,1.029,1.0582,1.0717,1.0717,1.0717,1.0717,1.0717,1.0717,1.0717,1.0724,1.0731,1.0731,1.0724,1.0751,1.0751,1.0751,1.0719,1.0886,1.1219,1.128,1.145,1.1633,1.1619,1.1619,1.1619,1.1619,1.1619,1.1619,1.1619,1.1619,1.1619,1.1619,1.1619,1.1619,1.1619,1.1619,1.1619,1.1619,1.1619,1.1619,1.1619,1.1619,1.1619,1.1619,1.1504,1.1355,1.1185,1.1447,1.155,1.1396,1.1804,1.2227,1.2142,1.2169,1.206,1.1796,1.1809,0.0,1.1681,1.1724,1.0996,0.9157,0.6984,0.4849,0.297,0.094,-0.0,-0.0,-0.0,-0.0,-0.0,-0.0,-0.0,-0.0,-0.0,-0.0,-0.0,-0.0,-0.0,-0.0,-0.0,-0.0,-0.0,-0.0,-0.0,-0.0,0.9849,0.9754,0.9774,0.9774,0.7516,0.6526,0.9406,0.7398,0.4671,0.1839,0.1474,0.1107,0.0123,-0.0,0.037,0.1357,0.1481,0.1481,0.1482,0.0987,0.3209,0.8805,0.9562,0.8541,0.5655,0.8389,0.9754,0.9849,1.0141,1.0283,1.029,1.0582,1.0717,1.0717,1.0717,1.0717,1.0717,1.0717,1.0717,1.0717,1.0717,1.0717,1.0717,1.0717,1.0717,1.0717,1.0717,1.0894,1.1131,1.1158,1.1348,1.1592,1.1613,1.1619,1.1619,1.1619,1.1619,1.1619,1.1619,1.1619,1.1619,1.1619,1.1619,1.1619,1.1619,1.1619,1.1619,1.1619,1.1619,1.1619,1.1619,1.1619,1.1592,1.1497,1.1301,1.1138,1.107,1.1274,1.1436,1.1457,1.1857,1.2182,1.2311,1.2325,1.2372,1.2494,1.2149,1.2081,1.2427,1.2115,1.2148,1.2449,1.244,1.0837,0.7201,0.3127,0.0627,-0.0,0.0628,0.1256,0.1886,0.1256,0.0942,0.0942,0.0314,-0.0,-0.0,-0.0,-0.0,-0.0,-0.0,-0.0,-0.0,-0.0,-0.0,-0.0,0.9829,0.9829,0.9842,0.9863,0.9361,0.9246,0.9774,0.9406,0.8897,0.8395,0.8278,0.6158,0.0614,-0.0,0.221,0.7782,0.8284,0.829,0.8307,0.5671,0.4551,0.5663,0.8278,0.9522,0.9111,0.9592,0.9829,0.9829,1.0134,1.0283,1.029,1.0582,1.0717,1.0717,1.0717,1.0717,1.0717,1.0717,1.0717,1.0717,1.0717,1.0717,1.0717,1.0717,1.0717,1.0717,1.0717,1.0833,1.1002,1.1124,1.128,1.145,1.1579,1.1619,1.1619,1.1619,1.1619,1.1619,1.1619,1.1619,1.1619,1.1619,1.1619,1.1619,1.1619,1.1619,1.1619,1.1619,1.1619,1.1619,1.1619,1.1619,1.145,1.0941,1.1029,1.1029,1.0649,1.1165,1.1626,1.1748,1.2162,1.244,1.2467,1.2467,1.2481,1.2501,1.2433,1.2484,1.2477,1.2464,1.2464,1.2571,1.256,1.2258,1.1485,0.7361,0.3599,-0.0,0.3617,0.7091,1.0437,0.6934,0.535,0.5193,0.1571,-0.0,-0.0,-0.0,-0.0,-0.0,-0.0,-0.0,-0.0,-0.0,-0.0,-0.0,0.9822,0.9822,0.9822,0.9836,0.9836,0.9842,0.9856,0.9863,0.9863,0.9863,0.9747,0.8628,0.5643,0.5284,0.6526,0.9529,0.9767,0.9761,0.9774,0.8395,0.7516,0.7505,0.9001,0.9741,0.9836,0.9829,0.9822,0.9822,1.0127,1.0283,1.029,1.0582,1.0717,1.0717,1.0717,1.0717,1.0717,1.0717,1.0717,1.0717,1.0717,1.0717,1.0717,1.0717,1.0717,1.0717,1.0717,1.0819,1.0968,1.1118,1.1267,1.1416,1.1572,1.1619,1.1619,1.1619,1.1619,1.1619,1.1619,1.1619,1.1619,1.1619,1.1619,1.1619,1.1619,1.1619,1.1619,1.1619,1.1619,1.1619,1.1619,1.1619,1.1477,1.1029,1.1145,1.1158,1.0792,1.1314,1.1755,1.1823,1.223,1.2501,1.2501,1.2501,1.2501,1.2501,1.2501,1.2447,1.2477,1.2433,1.2447,1.2477,1.2454,1.2542,1.2576,1.0658,0.8613,0.674,0.6445,0.8498,1.2434,1.0514,0.9719,0.9558,0.7505,0.5468,0.3441,0.3441,0.3443,0.3445,0.3445,0.2038,-0.0,-0.0,-0.0,0.0628,0.9822,0.9822,0.9822,0.9822,0.9822,0.9822,0.9822,0.9822,0.9822,0.9822,0.9836,0.9849,0.9849,0.9747,0.9761,0.9761,0.9741,0.9849,0.9849,0.9747,0.9754,0.9849,0.9849,0.9842,0.9822,0.9822,0.9822,0.9822,1.0127,1.0283,1.029,1.0582,1.0717,1.0717,1.0717,1.0717,1.0717,1.0717,1.0717,1.0717,1.0717,1.0717,1.0717,1.0717,1.0717,1.0717,1.0717,1.0799,1.0914,1.1063,1.1212,1.1362,1.1518,1.1592,1.1619,1.1619,1.1619,1.1619,1.1619,1.1619,1.1619,1.1619,1.1619,1.1619,1.1619,1.1619,1.1619,1.1619,1.1619,1.1633,1.166,1.1667,1.1558,1.1219,1.1321,1.1355,1.109,1.1504,1.187,1.1972,1.2291,1.2501,1.2501,1.2501,1.2501,1.2501,1.2501,1.2501,1.2501,1.2501,1.2501,1.2501,1.2501,1.2515,1.2542,1.2542,1.2549,1.24,0.9261,0.9407,1.2501,1.2501,1.2501,1.2501,1.2501,1.0618,0.7799,0.7808,0.7665,0.7673,0.7673,0.5796,0.2825,0.1884,0.1413,0.2357,0.9822,0.9822,0.9822,0.9822,0.9822,0.9822,0.9822,0.9822,0.9822,0.9822,0.9822,0.9822,0.9822,0.9829,0.9829,0.9829,0.9822,0.9822,0.9822,0.9829,0.9829,0.9822,0.9822,0.9822,0.9822,0.9822,0.9822,0.9822,1.0127,1.0283,1.029,1.0582,1.0717,1.0717,1.0717,1.0717,1.0717,1.0717,1.0717,1.0717,1.0717,1.0717,1.0717,1.0717,1.0717,1.0717,1.0717,1.0724,1.0758,1.0914,1.1063,1.1206,1.1362,1.1504,1.1619,1.1619,1.1619,1.1619,1.1619,1.1619,1.1619,1.1619,1.1619,1.1619,1.1619,1.1619,1.1619,1.1619,1.1619,1.166,1.1789,1.1816,1.1674,1.1233,1.1409,1.1545,1.1382,1.1633,1.1986,1.24,1.2481,1.2501,1.2501,1.2501,1.2501,1.2501,1.2501,1.2501,1.2501,1.2501,1.2501,1.2501,1.2501,1.2501,1.2508,1.2508,1.2508,1.2508,1.2192,1.2192,1.2501,1.2501,1.2501,1.2501,1.2501,1.2347,1.2037,1.2096,1.1966,1.1966,1.1966,1.181,1.1173,0.7217,0.5811,0.5981,0.9822,0.9822,0.9822,0.9822,0.9822,0.9822,0.9822,0.9822,0.9822,0.9822,0.9822,0.9822,0.9822,0.9822,0.9822,0.9822,0.9822,0.9822,0.9822,0.9822,0.9822,0.9822,0.9822,0.9822,0.9822,0.9822,0.9822,0.9822,1.0032,1.0188,1.0283,1.0487,1.0629,1.0717,1.0717,1.0717,1.0717,1.0717,1.0717,1.0717,1.0717,1.0717,1.0717,1.0717,1.0717,1.0717,1.0717,1.0717,1.0744,1.09,1.1043,1.1192,1.1341,1.1497,1.1619,1.1619,1.1619,1.1619,1.1619,1.1619,1.1619,1.1619,1.1619,1.1619,1.1619,1.1619,1.1619,1.1619,1.1619,1.166,1.1803,1.183,1.1748,1.1491,1.1775,1.1945,1.1701,1.1999,1.2311,1.2481,1.2501,1.2501,1.2501,1.2501,1.2501,1.2501,1.2501,1.2501,1.2501,1.2501,1.2501,1.2501,1.2501,1.2501,1.2501,1.2501,1.2501,1.2501,1.2501,1.2501,1.2501,1.2501,1.2501,1.2501,1.2501,1.2501,1.2501,1.2528,1.2542,1.2542,1.2542,1.2542,1.2387,1.067,1.0068,1.0095,0.9822,0.9822,0.9822,0.9822,0.9822,0.9822,0.9822,0.9822,0.9822,0.9822,0.9822,0.9822,0.9822,0.9822,0.9822,0.9822,0.9822,0.9822,0.9822,0.9822,0.9822,0.9822,0.9822,0.9822,0.9822,0.9822,0.9822,0.9822,0.9971,1.0107,1.0215,1.0405,1.0548,1.0649,1.0697,1.0717,1.0717,1.0717,1.0717,1.0717,1.0717,1.0717,1.0717,1.0717,1.0717,1.0717,1.0717,1.0717,1.0738,1.0839,1.0975,1.1124,1.1274,1.1457,1.1619,1.1619,1.1619,1.1619,1.1619,1.1619,1.1619,1.1619,1.1619,1.1619,1.1619,1.1619,1.1619,1.1619,1.1619,1.1681,1.187,1.1904,1.1904,1.1898,1.2155,1.2284,1.2074,1.2305,1.2501,1.2501,1.2501,1.2501,1.2501,1.2501,1.2501,1.2501,1.2501,1.2501,1.2501,1.2501,1.2501,1.2501,1.2501,1.2501,1.2501,1.2501,1.2501,1.2501,1.2501,1.2501,1.2501,1.2501,1.2501,1.2501,1.2501,1.2501,1.2501,1.2501,1.2501,1.2501,1.2501,1.2501,1.2508,1.2535,1.2569,1.244,0.9822,0.9822,0.9822,0.9822,0.9822,0.9822,0.9822,0.9822,0.9822,0.9822,0.9822,0.9822,0.9822,0.9822,0.9822,0.9822,0.9822,0.9822,0.9822,0.9822,0.9822,0.9822,0.9822,0.9822,0.9822,0.9822,0.9822,0.9822,0.9971,1.0046,1.0059,1.0351,1.0487,1.05,1.0649,1.0717,1.0717,1.0717,1.0717,1.0717,1.0717,1.0717,1.0717,1.0717,1.0717,1.0717,1.0717,1.0717,1.0717,1.0717,1.0819,1.0975,1.1118,1.1375,1.1619,1.1619,1.1619,1.1619,1.1619,1.1619,1.1619,1.1619,1.1619,1.1619,1.1619,1.1619,1.1619,1.1619,1.1619,1.1708,1.2006,1.206,1.2155,1.2454,1.2501,1.2501,1.2501,1.2501,1.2501,1.2501,1.2501,1.2501,1.2501,1.2501,1.2501,1.2501,1.2501,1.2501,1.2501,1.2501,1.2501,1.2501,1.2501,1.2501,1.2501,1.2501,1.2501,1.2501,1.2501,1.2501,1.2501,1.2501,1.2501,1.2501,1.2501,1.2501,1.2501,1.2501,1.2501,1.2501,1.2501,1.2501,1.2501,1.2501,1.2501,1.2501,0.9822,0.9822,0.9822,0.9822,0.9822,0.9822,0.9822,0.9822,0.9822,0.9822,0.9822,0.9822,0.9822,0.9822,0.9822,0.9822,0.9822,0.9822,0.9822,0.9822,0.9822,0.9822,0.9822,0.9822,0.9822,0.9822,0.9822,0.9822,0.9869,0.9944,1.0053,1.0141,1.029,1.0493,1.0541,1.0622,1.0717,1.0717,1.0717,1.0717,1.0717,1.0717,1.0717,1.0717,1.0717,1.0717,1.0717,1.0717,1.0717,1.0717,1.0819,1.0995,1.1246,1.1457,1.1619,1.1619,1.1619,1.1619,1.1619,1.1619,1.1619,1.1619,1.1619,1.1619,1.1619,1.1619,1.1619,1.1619,1.1619,1.1681,1.1864,1.1986,1.2128,1.2325,1.2433,1.2501,1.2501,1.2501,1.2501,1.2501,1.2501,1.2501,1.2501,1.2501,1.2501,1.2501,1.2501,1.2501,1.2501,1.2501,1.2501,1.2501,1.2501,1.2501,1.2501,1.2501,1.2501,1.2501,1.2501,1.2501,1.2501,1.2501,1.2501,1.2501,1.2501,1.2501,1.2501,1.2501,1.2501,1.2501,1.2501,1.2501,1.2501,1.2501,1.2501,1.2501,0.9808,0.9774,0.9754,0.9808,0.9822,0.9822,0.9822,0.9822,0.9822,0.9822,0.9822,0.9822,0.9822,0.9822,0.9822,0.9822,0.9822,0.9822,0.9822,0.9822,0.9822,0.9822,0.9822,0.9822,0.9822,0.9822,0.9822,0.9822,0.9822,0.9869,0.9958,1.0019,1.0175,1.0412,1.0466,1.0575,1.0717,1.0717,1.0717,1.0717,1.0717,1.0717,1.0717,1.0717,1.0717,1.0717,1.0717,1.0717,1.0717,1.0717,1.0819,1.0989,1.1226,1.1402,1.1538,1.1599,1.1619,1.1619,1.1619,1.1619,1.1619,1.1619,1.1619,1.1619,1.1619,1.1619,1.1619,1.1619,1.1619,1.166,1.1803,1.1904,1.204,1.2257,1.2366,1.244,1.2494,1.2501,1.2501,1.2501,1.2501,1.2501,1.2501,1.2501,1.2501,1.2501,1.2501,1.2501,1.2501,1.2501,1.2501,1.2501,1.2501,1.2501,1.2501,1.2501,1.2501,1.2501,1.2501,1.2501,1.2501,1.2501,1.2501,1.2501,1.2501,1.2501,1.2501,1.2501,1.2501,1.2501,1.2501,1.2501,1.2501,1.2501,1.2501,1.2501,0.9795,0.9707,0.9652,0.9795,0.9822,0.9822,0.9822,0.9822,0.9822,0.9822,0.9822,0.9822,0.9822,0.9822,0.9822,0.9822,0.9822,0.9822,0.9822,0.9822,0.9822,0.9822,0.9822,0.9822,0.9822,0.9822,0.9822,0.9822,0.9822,0.9822,0.9822,0.9964,1.0114,1.0263,1.0392,1.0541,1.0697,1.0697,1.0711,1.0717,1.0717,1.0717,1.0717,1.0717,1.0717,1.0717,1.0717,1.0717,1.0717,1.0717,1.0819,1.0975,1.1118,1.1267,1.1423,1.1572,1.1619,1.1619,1.1619,1.1619,1.1619,1.1619,1.1619,1.1619,1.1619,1.1619,1.1619,1.1619,1.1619,1.166,1.1789,1.1823,1.1925,1.2223,1.2284,1.2338,1.2481,1.2501,1.2501,1.2501,1.2501,1.2501,1.2501,1.2501,1.2501,1.2501,1.2501,1.2501,1.2501,1.2501,1.2501,1.2501,1.2501,1.2501,1.2501,1.2501,1.2501,1.2501,1.2501,1.2501,1.2501,1.2501,1.2501,1.2501,1.2501,1.2501,1.2501,1.2501,1.2501,1.2501,1.2501,1.2501,1.2501,1.2501,1.2501,1.2501,0.9795,0.9707,0.9652,0.9795,0.9822,0.9822,0.9822,0.9822,0.9822,0.9822,0.9822,0.9822,0.9822,0.9822,0.9822,0.9822,0.9822,0.9822,0.9822,0.9822,0.9822,0.9822,0.9822,0.9822,0.9822,0.9822,0.9822,0.9822,0.9822,0.9822,0.9822,0.9856,0.9951,1.01,1.0134,1.029,1.0541,1.0541,1.0609,1.0717,1.0717,1.0717,1.0717,1.0717,1.0717,1.0717,1.0717,1.0717,1.0717,1.0717,1.0819,1.0975,1.1118,1.1267,1.1423,1.1572,1.1619,1.1619,1.1619,1.1619,1.1619,1.1619,1.1619,1.1619,1.1619,1.1619,1.1619,1.1619,1.1619,1.1626,1.166,1.1755,1.1891,1.2081,1.221,1.2338,1.2481,1.2501,1.2501,1.2501,1.2501,1.2501,1.2501,1.2501,1.2501,1.2501,1.2501,1.2501,1.2501,1.2501,1.2501,1.2501,1.2501,1.2501,1.2501,1.2501,1.2501,1.2501,1.2501,1.2501,1.2501,1.2501,1.2501,1.2501,1.2501,1.2501,1.2501,1.2501,1.2501,1.2501,1.2501,1.2501,1.2501,1.2501,1.2501,1.2501,0.9795,0.9707,0.9652,0.9795,0.9822,0.9822,0.9822,0.9822,0.9822,0.9822,0.9822,0.9822,0.9822,0.9822,0.9822,0.9822,0.9822,0.9822,0.9822,0.9822,0.9822,0.9822,0.9822,0.9822,0.9822,0.9822,0.9822,0.9822,0.9822,0.9822,0.9822,0.9822,0.9903,1.0046,1.0046,1.0175,1.0392,1.0466,1.0534,1.0616,1.069,1.0717,1.0717,1.0717,1.0717,1.0717,1.0717,1.0717,1.0717,1.0717,1.0772,1.0867,1.1016,1.1165,1.1314,1.1463,1.1558,1.1619,1.1619,1.1619,1.1619,1.1619,1.1619,1.1619,1.1619,1.1619,1.1619,1.1619,1.1619,1.1619,1.1619,1.1681,1.1789,1.2113,1.221,1.2203,1.2467,1.2501,1.2501,1.2501,1.2501,1.2501,1.2501,1.2501,1.2501,1.2501,1.2501,1.2501,1.2501,1.2501,1.2501,1.2501,1.2501,1.2501,1.2501,1.2501,1.2501,1.2501,1.2501,1.2501,1.2501,1.2501,1.2501,1.2501,1.2501,1.2501,1.2501,1.2501,1.2501,1.2501,1.2501,1.2501,1.2501,1.2501,1.2501,1.2501,1.0507,1.0531,1.0361,1.0272,1.0179,1.0058,0.9822,0.9822,0.9822,0.9822,0.9822,0.9822,0.9822,0.9822,0.9822,0.9822,0.9822,0.9822,0.9822,0.9822,0.9822,0.9822,0.9822,0.9822,0.9822,0.9822,0.9822,0.9822,0.9822,0.9822,0.9822,0.9822,0.989,1.0012,1.0012,1.0093,1.0249,1.0365,1.0446,1.05,1.0629,1.0697,1.0717,1.0717,1.0717,1.0717,1.0717,1.0717,1.0717,1.0717,1.0717,1.0744,1.09,1.1029,1.1158,1.1341,1.1484,1.1586,1.1613,1.1619,1.1619,1.1619,1.1619,1.1619,1.1619,1.1619,1.1619,1.1619,1.1619,1.1619,1.1619,1.1619,1.1687,1.2038,1.2072,1.221,1.2447,1.2501,1.2501,1.2501,1.2501,1.2501,1.2501,1.2501,1.2501,1.2501,1.2501,1.2501,1.2501,1.2501,1.2501,1.2501,1.2501,1.2501,1.2501,1.2501,1.2501,1.2501,1.2501,1.2501,1.2501,1.2501,1.2501,1.2501,1.2501,1.2501,1.2501,1.2501,1.2501,1.2501,1.2501,1.2501,1.2501,1.2501,1.2501,1.2501,1.3608,1.3829,1.34,1.2063,1.1856,1.1382,1.0065,0.9822,0.9822,0.9822,0.9822,0.9822,0.9822,0.9822,0.9822,0.9822,0.9822,0.9822,0.9822,0.9822,0.9822,0.9822,0.9822,0.9822,0.9822,0.9822,0.9822,0.9822,0.9822,0.9822,0.9822,0.9822,0.9829,0.9849,0.9849,0.9937,1.008,1.01,1.0256,1.0493,1.0514,1.0602,1.0717,1.0717,1.0717,1.0717,1.0717,1.0717,1.0717,1.0717,1.0717,1.0744,1.09,1.0962,1.1029,1.1307,1.1402,1.145,1.1586,1.1619,1.1619,1.1619,1.1619,1.1619,1.1619,1.1619,1.1619,1.1619,1.1619,1.1619,1.1619,1.1619,1.1681,1.2024,1.2065,1.221,1.2447,1.2501,1.2501,1.2501,1.2501,1.2501,1.2501,1.2501,1.2501,1.2501,1.2501,1.2501,1.2501,1.2501,1.2501,1.2501,1.2501,1.2501,1.2501,1.2501,1.2501,1.2501,1.2501,1.2501,1.2501,1.2501,1.2501,1.2501,1.2501,1.2501,1.2501,1.2501,1.2501,1.2501,1.2501,1.2501,1.2501,1.2501,1.2501,1.2501,1.4222,1.4518,1.4006,1.244,1.2217,1.1615,1.0058,0.9822,0.9822,0.9822,0.9822,0.9822,0.9822,0.9822,0.9822,0.9822,0.9822,0.9822,0.9822,0.9822,0.9822,0.9822,0.9822,0.9822,0.9822,0.9822,0.9822,0.9822,0.9822,0.9822,0.9822,0.9822,0.9822,0.9822,0.9822,0.9856,0.993,1.0012,1.0127,1.0263,1.0426,1.0534,1.0602,1.0683,1.0717,1.0717,1.0717,1.0717,1.0717,1.0717,1.0717,1.0731,1.0799,1.088,1.0975,1.1104,1.126,1.1402,1.147,1.1552,1.1619,1.1619,1.1619,1.1619,1.1619,1.1619,1.1619,1.1619,1.1619,1.1619,1.1619,1.1619,1.1647,1.188,1.2038,1.2115,1.23,1.2501,1.2501,1.2501,1.2501,1.2501,1.2501,1.2501,1.2501,1.2501,1.2501,1.2501,1.2501,1.2501,1.2501,1.2501,1.2501,1.2501,1.2501,1.2501,1.2501,1.2501,1.2501,1.2501,1.2501,1.2501,1.2501,1.2501,1.2501,1.2501,1.2501,1.2501,1.2501,1.2501,1.2501,1.2501,1.2501,1.2501,1.2501,1.2501]},{"header":{"parameterUnit":"m.s-1","parameterCategory":1,"la1":30.6,"la2":28.766,"lo1":-90.7593,"lo2":-88.6598,"dx":0.0162,"dy":0.0183,"nx":116,"ny":114,"refTime":"2022-11-11T06:00:00:Z","depth":0,"parameterNumber":3,"parameterNumberName":"V-component_of_WINDS"},"data":[0.0,0.0,0.0,0.0,0.0,0.0,0.0,0.0,0.0,0.0,0.0,0.0,0.0,0.0,0.0,0.0,0.0,0.0,0.0,0.0,0.0,0.0,0.0,0.0,0.0,0.0,0.0,0.0,0.0,0.0,0.0,0.0,0.0,0.0,0.0,0.0,0.0,0.0,0.0,0.0,0.0,0.0,0.0,0.0,0.0,0.0,0.0,0.0,0.0,0.0,0.0,0.0,0.0,0.0,0.0,0.0,0.0,0.0,0.0,0.0,0.0,0.0,0.0,0.0,0.0,0.0,0.0,0.0,0.0,0.0,0.0,0.0,0.0,0.0,0.0,0.0,0.0,0.0,0.0,0.0,0.0,0.0,0.0,0.0,0.0,0.0,0.0,0.0,0.0,0.0,0.0,0.0,0.0,0.0,0.0,0.0,0.0,0.0,0.0,0.0,0.0,0.0,0.0,0.0,0.0,0.0,0.0,0.0,0.0,0.0,0.0,0.0,0.0,0.0,0.0,0.0,0.0,0.0,0.0,0.0,0.0,0.0,0.0,0.0,0.0,0.0,0.0,0.0,0.0,0.0,0.0,0.0,0.0,0.0,0.0,0.0,0.0,0.0,0.0,0.0,0.0,0.0,0.0,0.0,0.0,0.0,0.0,0.0,0.0,0.0,0.0,0.0,0.0,0.0,0.0,0.0,0.0,0.0,0.0,0.0,0.0,0.0,0.0,0.0,0.0,0.0,0.0,0.0,0.0,0.0,0.0,0.0,0.0,0.0,0.0,0.0,0.0,0.0,0.0,0.0,0.0,0.0,0.0,0.0,0.0,0.0,0.0,0.0,0.0,0.0,0.0,0.0,0.0,0.0,0.0,0.0,0.0,0.0,0.0,0.0,0.0,0.0,0.0,0.0,0.0,0.0,0.0,0.0,0.0,0.0,0.0,0.0,0.0,0.0,0.0,0.0,0.0,0.0,0.0,0.0,0.0,0.0,0.0,0.0,0.0,0.0,0.0,0.0,0.0,0.0,0.0,0.0,0.0,0.0,0.0,0.0,0.0,0.0,0.0,0.0,0.0,0.0,0.0,0.0,0.0,0.0,0.0,0.0,0.0,0.0,0.0,0.0,0.0,0.0,0.0,0.0,0.0,0.0,0.0,0.0,0.0,0.0,0.0,0.0,0.0,0.0,0.0,0.0,0.0,0.0,0.0,0.0,0.0,0.0,0.0,0.0,0.0,0.0,0.0,0.0,0.0,0.0,0.0,0.0,0.0,0.0,0.0,0.0,0.0,0.0,0.0,0.0,0.0,0.0,0.0,0.0,0.0,0.0,0.0,0.0,0.0,0.0,0.0,0.0,0.0,0.0,0.0,0.0,0.0,0.0,0.0,0.0,0.0,0.0,0.0,0.0,0.0,0.0,0.0,0.0,0.0,0.0,0.0,0.0,0.0,0.0,0.0,0.0,0.0,0.0,0.0,0.0,0.0,0.0,0.0,0.0,0.0,0.0,0.0,0.0,0.0,0.0,0.0,0.0,0.0,0.0,0.0,0.0,0.0,0.0,0.0,0.0,0.0,0.0,0.0,0.0,0.0,0.0,0.0,0.0,0.0,0.0,0.0,0.0,0.0,0.0,0.0,0.0,0.0,0.0,0.0,0.0,0.0,0.0,0.0,0.0,0.0,0.0,0.0,0.0,0.0,0.0,0.0,0.0,0.0,0.0,0.0,0.0,0.0,0.0,0.0,0.0,0.0,0.0,0.0,0.0,0.0,0.0,0.0,0.0,0.0,0.0,0.0,0.0,0.0,0.0,0.0,0.0,0.0,0.0,0.0,0.0,0.0,0.0,0.0,0.0,0.0,0.0,0.0,0.0,0.0,0.0,0.0,0.0,0.0,0.0,0.0,0.0,0.0,0.0,0.0,0.0,0.0,0.0,0.0,0.0,0.0,0.0,0.0,0.0,0.0,0.0,0.0,0.0,0.0,0.0,0.0,0.0,0.0,0.0,0.0,0.0,0.0,0.0,0.0,0.0,0.0,0.0,0.0,0.0,0.0,0.0,0.0,0.0,0.0,0.0,0.0,0.0,0.0,0.0,0.0,0.0,0.0,0.0,0.0,0.0,0.0,0.0,0.0,0.0,0.0,0.0,0.0,0.0,0.0,0.0,0.0,0.0,0.0,0.0,0.0,0.0,0.0,0.0,0.0,0.0,0.0,0.0,0.0,0.0,0.0,0.0,0.0,0.0,0.0,0.0,0.0,0.0,0.0,0.0,0.0,0.0,0.0,0.0,0.0,0.0,0.0,0.0,0.0,0.0,0.0,0.0,0.0,0.0,0.0,0.0,0.0,0.0,0.0,0.0,0.0,0.0,0.0,0.0,0.0,0.0,0.0,0.0,0.0,0.0,0.0,0.0,0.0,0.0,0.0,0.0,0.0,0.0,0.0,0.0,0.0,0.0,0.0,0.0,0.0,0.0,0.0,0.0,0.0,0.0,0.0,0.0,0.0,0.0,0.0,0.0,0.0,0.0,0.0,0.0,0.0,0.0,0.0,0.0,0.0,0.0,0.0,0.0,0.0,0.0,0.0,0.0,0.0,0.0,0.0,0.0,0.0,0.0,0.0,0.0,0.0,0.0,0.0,0.0,0.0,0.0,0.0,0.0,0.0,0.0,0.0,0.0,0.0,0.0,0.0,0.0,0.0,0.0,0.0,0.0,0.0,0.0,0.0,0.0,0.0,0.0,0.0,0.0,0.0,0.0,0.0,0.0,0.0,0.0,0.0,0.0,0.0,0.0,0.0,0.0,0.0,0.0,0.0,0.0,0.0,0.0,0.0,0.0,0.0,0.0,0.0,0.0,0.0,0.0,0.0,0.0,0.0,0.0,0.0,0.0,0.0,0.0,0.0,0.0,0.0,0.0,0.0,0.0,0.0,0.0,0.0,0.0,0.0,0.0,0.0,0.0,0.0,0.0,0.0,0.0,0.0,0.0,0.0,0.0,0.0,0.0,0.0,0.0,0.0,0.0,0.0,0.0,0.0,0.0,0.0,0.0,0.0,0.0,0.0,0.0,0.0,0.0,0.0,0.0,0.0,0.0,0.0,0.0,0.0,0.0,0.0,0.0,0.0,0.0,0.0,0.0,0.0,0.0,0.0,0.0,0.0,0.0,0.0,0.0,0.0,0.0,0.0,0.0,0.0,0.0,0.0,0.0,0.0,0.0,0.0,0.0,0.0,0.0,0.0,0.0,0.0,0.0,0.0,0.0,0.0,0.0,0.0,0.0,0.0,0.0,0.0,0.0,0.0,0.0,0.0,0.0,0.0,0.0,0.0,0.0,0.0,0.0,0.0,0.0,0.0,0.0,0.0,0.0,0.0,0.0,0.0,0.0,0.0,0.0,0.0,0.0,0.0,0.0,0.0,0.0,0.0,0.0,0.0,0.0,0.0,0.0,0.0,0.0,0.0,0.0,0.0,0.0,0.0,0.0,0.0,0.0,0.0,0.0,0.0,0.0,0.0,0.0,0.0,0.0,0.0,0.0,0.0,0.0,0.0,0.0,0.0,0.0,0.0,0.0,0.0,0.0,0.0,0.0,0.0,0.0,0.0,0.0,0.0,0.0,0.0,0.0,0.0,0.0,0.0,0.0,0.0,0.0,0.0,0.0,0.0,0.0,0.0,0.0,0.0,0.0,0.0,0.0,0.0,0.0,0.0,0.0,0.0,0.0,0.0,0.0,0.0,0.0,0.0,0.0,0.0,0.0,0.0,0.0,0.0,0.0,0.0,0.0,0.0,0.0,0.0,0.0,0.0,0.0,0.0,0.0,0.0,0.0,0.0,0.0,0.0,0.0,0.0,0.0,0.0,0.0,0.0,0.0,0.0,0.0,0.0,0.0,0.0,0.0,0.0,0.0,0.0,0.0,0.0,0.0,0.0,0.0,0.0,0.0,0.0,0.0,0.0,0.0,0.0,0.0,0.0,0.0,0.0,0.0,0.0,0.0,0.0,0.0,0.0,0.0,0.0,0.0,0.0,0.0,0.0,0.0,0.0,0.0,0.0,0.0,0.0,0.0,0.0,0.0,0.0,0.0,0.0,0.0,0.0,0.0,0.0,0.0,0.0,0.0,0.0,0.0,0.0,0.0,0.0,0.0,0.0,0.0,0.0,0.0,0.0,0.0,0.0,0.0,0.0,0.0,0.0,0.0,0.0,0.0,0.0,0.0,0.0,0.0,0.0,0.0,0.0,0.0,0.0,0.0,0.0,0.0,0.0,0.0,0.0,0.0,0.0,0.0,0.0,0.0,0.0,0.0,0.0,0.0,0.0,0.0,0.0,0.0,0.0,0.0,0.0,0.0,0.0,0.0,0.0,0.0,0.0,0.0,0.0,0.0,0.0,0.0,0.0,0.0,0.0,0.0,0.0,0.0,0.0,0.0,0.0,0.0,0.0,0.0,0.0,0.0,0.0,0.0,0.0,0.0,0.0,0.0,0.0,0.0,0.0,0.0,0.0,0.0,0.0,0.0,0.0,0.0,0.0,0.0,0.0,0.0,0.0,0.0,0.0,0.0,0.0,0.0,0.0,0.0,0.0,0.0,0.0,0.0,0.0,0.0,0.0,0.0,0.0,0.0,0.0,0.0,0.0,0.0,0.0,0.0,0.0,0.0,0.0,0.0,0.0,0.0,0.0,0.0,0.0,0.0,0.0,0.0,0.0,0.0,0.0,0.0,0.0,0.0,0.0,0.0,0.0,0.0,0.0,0.0,0.0,0.0,0.0,0.0,0.0,0.0,0.0,0.0,0.0,0.0,0.0,0.0,0.0,0.0,0.0,0.0,0.0,0.0,0.0,0.0,0.0,0.0,0.0,0.0,0.0,0.0,0.0,0.0,0.0,0.0,0.0,0.0,0.0,0.0,0.0,0.0,0.0,0.0,0.0,0.0,0.0,0.0,0.0,0.0,0.0,0.0,0.0,0.0,0.0,0.0,0.0,0.0,0.0,0.0,0.0,0.0,0.0,0.0,0.0,0.0,0.0,0.0,0.0,0.0,0.0,0.0,0.0,0.0,0.0,0.0,0.0,0.0,0.0,0.0,0.0,0.0,0.0,0.0,0.0,0.0,0.0,0.0,0.0,0.0,0.0,0.0,0.0,0.0,0.0,0.0,0.0,0.0,0.0,0.0,0.0,0.0,0.0,0.0,0.0,0.0,0.0,0.0,0.0,0.0,0.0,0.0,0.0,0.0,0.0,0.0,0.0,0.0,0.0,0.0,0.0,0.0,0.0,0.0,0.0,0.0,0.0,0.0,0.0,0.0,0.0,0.0,0.0,0.0,0.0,0.0,0.0,0.0,0.0,0.0,0.0,0.0,0.0,0.0,0.0,0.0,0.0,0.0,0.0,0.0,0.0,0.0,0.0,0.0,0.0,0.0,0.0,0.0,0.0,0.0,0.0,0.0,0.0,0.0,0.0,0.0,0.0,0.0,0.0,0.0,0.0,0.0,0.0,0.0,0.0,0.0,0.0,0.0,0.0,0.0,0.0,0.0,0.0,0.0,0.0,0.0,0.0,0.0,0.0,0.0,0.0,0.0,0.0,0.0,0.0,0.0,0.0,0.0,0.0,0.0,0.0,0.0,0.0,0.0,0.0,0.0,0.0,0.0,0.0,0.0,0.0,0.0,0.0,0.0,0.0,0.0,0.0,0.0,0.0,0.0,0.0,0.0,0.0,0.0,0.0,0.0,0.0,0.0,0.0,0.0,0.0,0.0,0.0,0.0,0.0,0.0,0.0,0.0,0.0,0.0,0.0,0.0,0.0,0.0,0.0,0.0,0.0,0.0,0.0,0.0,0.0,0.0,0.0,0.0,0.0,0.0,0.0,0.0,0.0,0.0,0.0,0.0,0.0,0.0,0.0,0.0,0.0,0.0,0.0,0.0,0.0,0.0,0.0,0.0,0.0,0.0,0.0,0.0,0.0,0.0,0.0,0.0,0.0,0.0,0.0,0.0,0.0,0.0,0.0,0.0,0.0,0.0,0.0,0.0,0.0,0.0,0.0,0.0,0.0,0.0,0.0,0.0,0.0,0.0,0.0,0.0,0.0,0.0,0.0,0.0,0.0,0.0,0.0,0.0,-4.4834,0.0,0.0,0.0,0.0,0.0,0.0,0.0,0.0,0.0,0.0,0.0,0.0,0.0,0.0,0.0,0.0,0.0,0.0,0.0,0.0,0.0,0.0,0.0,0.0,-2.4777,-2.5107,-2.5915,-2.5988,0.0,0.0,0.0,0.0,0.0,0.0,0.0,-2.5703,-2.5276,-2.5276,-2.5703,-2.5542,-2.6451,-2.8221,-2.7592,-2.7154,-2.6948,0.0,0.0,0.0,0.0,0.0,0.0,0.0,0.0,0.0,0.0,0.0,0.0,0.0,0.0,0.0,0.0,0.0,0.0,0.0,0.0,0.0,0.0,0.0,0.0,0.0,0.0,0.0,0.0,0.0,0.0,0.0,0.0,0.0,0.0,0.0,0.0,0.0,0.0,0.0,0.0,0.0,0.0,0.0,0.0,0.0,0.0,0.0,0.0,0.0,0.0,0.0,0.0,0.0,0.0,0.0,0.0,0.0,0.0,0.0,0.0,0.0,0.0,0.0,0.0,0.0,0.0,0.0,0.0,0.0,0.0,0.0,-4.6205,0.0,0.0,0.0,0.0,0.0,0.0,0.0,0.0,0.0,0.0,0.0,0.0,0.0,0.0,0.0,0.0,0.0,0.0,0.0,0.0,0.0,-2.452,-2.5311,-2.5424,-2.5812,-2.6806,-2.6921,-2.6979,-2.7126,-2.7126,0.0,0.0,0.0,0.0,-2.7289,-2.6616,-2.6638,-2.7452,-2.7624,-2.8559,-3.0076,-3.0318,-3.028,-2.9919,-2.8086,0.0,0.0,0.0,0.0,0.0,0.0,0.0,0.0,0.0,0.0,0.0,0.0,0.0,0.0,0.0,0.0,0.0,0.0,0.0,0.0,0.0,0.0,0.0,0.0,0.0,0.0,0.0,0.0,0.0,0.0,0.0,0.0,0.0,0.0,0.0,0.0,0.0,0.0,0.0,0.0,0.0,0.0,0.0,0.0,0.0,0.0,0.0,0.0,0.0,0.0,0.0,0.0,0.0,0.0,0.0,0.0,0.0,0.0,0.0,0.0,0.0,0.0,0.0,-4.833,-4.8605,-4.9156,-5.1216,-5.2206,-5.2119,-4.9712,-4.9611,-5.1005,-4.9465,0.0,0.0,0.0,0.0,0.0,0.0,0.0,0.0,0.0,0.0,0.0,0.0,0.0,0.0,0.0,0.0,0.0,0.0,0.0,-2.452,-2.5311,-2.556,-2.6264,-2.7753,-2.8126,-2.8532,-2.9267,-2.9305,0.0,0.0,0.0,-2.7975,-2.7289,-2.7248,-2.7469,-2.7979,-3.0105,-3.1262,-3.1528,-3.2769,-3.4028,-3.5201,-3.2402,-3.0583,-2.9606,0.0,0.0,0.0,0.0,0.0,0.0,0.0,0.0,0.0,0.0,0.0,0.0,0.0,0.0,0.0,0.0,0.0,0.0,0.0,0.0,0.0,0.0,0.0,0.0,0.0,0.0,0.0,0.0,0.0,0.0,0.0,0.0,0.0,0.0,0.0,0.0,0.0,0.0,0.0,0.0,0.0,-3.7218,-3.8115,0.0,0.0,0.0,0.0,0.0,0.0,0.0,0.0,0.0,0.0,0.0,0.0,0.0,-4.6073,-4.743,-4.7559,-4.9557,-5.3333,-5.3348,-5.4649,-5.71,-5.7398,-5.774,-5.8024,-5.6443,0.0,-5.4876,-5.4606,0.0,0.0,0.0,0.0,0.0,0.0,0.0,0.0,0.0,0.0,0.0,0.0,0.0,0.0,0.0,0.0,0.0,0.0,0.0,0.0,0.0,-2.6543,-2.7531,-2.8646,-2.9737,-3.0335,-3.0283,-3.0412,0.0,0.0,-2.9502,-2.939,-2.9153,-2.915,-2.9604,-3.0578,-3.2127,-3.3167,-3.3696,-3.5248,-3.6463,-3.736,-3.755,-3.6183,-3.3732,-3.3733,0.0,0.0,0.0,0.0,0.0,0.0,0.0,0.0,0.0,0.0,0.0,0.0,0.0,0.0,0.0,0.0,0.0,0.0,0.0,0.0,0.0,0.0,0.0,0.0,0.0,0.0,0.0,0.0,0.0,0.0,0.0,0.0,0.0,0.0,0.0,0.0,0.0,0.0,0.0,-3.7228,-3.8845,-3.9637,-3.9933,-3.9922,0.0,0.0,0.0,0.0,0.0,0.0,0.0,0.0,0.0,-4.5047,-4.7585,-4.9739,-5.1382,-5.2563,-5.4354,-5.6706,-5.6513,-5.727,-5.8984,-5.987,-6.0655,-6.1215,-6.1565,-6.1469,-6.0896,-5.8702,-5.7752,-5.7666,0.0,0.0,0.0,0.0,-5.5757,-5.5757,0.0,0.0,0.0,0.0,0.0,0.0,0.0,0.0,0.0,0.0,0.0,0.0,-2.6151,-2.7344,-2.8462,-2.9322,-3.06,-3.1052,-3.0338,-3.0696,-3.0658,-3.0023,-3.0241,-3.039,-3.0557,-3.0854,-3.1749,-3.3232,-3.4061,-3.4937,-3.5834,-3.7632,-3.87,-3.9311,-4.174,-4.0878,-3.7602,-3.7525,-3.5834,-3.3173,0.0,0.0,0.0,0.0,0.0,0.0,0.0,0.0,0.0,0.0,0.0,0.0,0.0,0.0,0.0,0.0,0.0,0.0,0.0,0.0,0.0,0.0,0.0,0.0,0.0,0.0,0.0,0.0,0.0,0.0,0.0,0.0,0.0,0.0,0.0,0.0,0.0,-3.8661,-4.0033,-4.1271,-4.1592,-4.1643,0.0,0.0,0.0,0.0,0.0,0.0,-4.4674,-4.6371,-4.7735,-4.855,-5.1599,-5.3869,-5.521,-5.6772,-5.8169,-5.935,-5.9025,-5.9575,-6.0823,-6.1998,-6.2989,-6.3833,-6.5081,-6.5852,-6.5946,-6.2433,-6.1244,-6.163,-6.1447,-6.0236,-5.8877,-6.0493,-6.0713,-6.0529,0.0,0.0,0.0,0.0,0.0,0.0,0.0,0.0,0.0,0.0,0.0,-2.5948,-2.6767,-2.7606,-2.854,-2.9567,-2.9937,-2.9819,-2.921,-3.0016,-3.0113,-2.9209,-2.9996,-3.0467,-3.0428,-3.1721,-3.33,-3.5151,-3.5989,-3.6825,-3.7811,-3.9807,-4.1152,-4.1994,-4.389,-4.309,-4.0298,-4.0427,-3.9708,-3.8257,-3.5139,0.0,0.0,0.0,0.0,0.0,0.0,0.0,0.0,0.0,0.0,0.0,0.0,0.0,0.0,0.0,0.0,0.0,0.0,0.0,0.0,0.0,0.0,0.0,0.0,0.0,0.0,0.0,0.0,0.0,0.0,0.0,0.0,0.0,0.0,0.0,0.0,0.0,0.0,-4.2815,-4.4676,0.0,0.0,0.0,0.0,-4.4421,-4.6323,-4.7863,-4.8546,-5.1599,-5.3721,-5.4426,-5.692,-5.809,-5.7831,-5.7895,-5.9145,-6.1459,-6.141,-6.2658,-6.5007,-6.5081,-6.5558,-6.6329,-6.6402,-6.732,-6.8531,-6.6019,-6.4992,-6.5007,-6.42,-6.3833,-6.3906,-6.5521,-6.6109,-6.6512,0.0,0.0,0.0,-2.5126,-2.5171,-2.5182,-2.5126,-2.5171,-2.5182,-2.5126,-2.6132,-2.6745,-2.6496,-2.8515,-3.0058,-3.0451,-3.1678,-3.2348,-3.221,-3.2227,-3.1866,-3.1001,-3.1375,-3.2081,-3.3099,-3.4592,-3.5982,-3.7239,-3.8633,-3.9461,-3.9734,-4.1544,-4.285,-4.3704,-4.5455,-4.6048,-4.5633,-4.5271,-4.3898,-4.1847,-4.1189,-3.8376,0.0,0.0,0.0,0.0,0.0,0.0,0.0,0.0,0.0,0.0,0.0,0.0,0.0,0.0,0.0,0.0,0.0,0.0,0.0,0.0,0.0,0.0,0.0,0.0,0.0,0.0,0.0,0.0,0.0,0.0,0.0,0.0,0.0,0.0,0.0,0.0,0.0,-4.4782,-4.5549,0.0,-4.6228,-4.7156,-4.7815,-4.8071,-4.9806,-5.1638,-5.3498,-5.4929,-5.6092,-5.6903,-5.8747,-5.9909,-6.0309,-6.1374,-6.2622,-6.398,-6.398,-6.4714,-6.6072,-6.6072,-6.6806,-6.8054,-6.8054,-6.8678,-6.9596,-6.8752,-6.8385,-6.8348,-6.8054,-6.7944,-6.8091,-6.9192,-6.9926,-7.0643,0.0,0.0,0.0,-2.5303,-2.5303,-2.5303,-2.5303,-2.5303,-2.5495,-2.612,-2.7128,-2.7782,-2.7812,-2.9848,-3.1223,-3.1336,-3.259,-3.3089,-3.2352,-3.2585,-3.2145,-3.0741,-3.1817,-3.3361,-3.532,-3.6718,-3.8129,-3.9662,-4.0772,-4.1562,-4.2128,-4.3467,-4.4565,-4.5453,-4.6878,-4.7903,-4.8477,-4.8405,-4.7162,-4.5238,-4.5172,-4.2215,-3.7819,0.0,0.0,0.0,0.0,0.0,0.0,0.0,0.0,0.0,0.0,0.0,0.0,0.0,0.0,0.0,0.0,0.0,0.0,0.0,0.0,0.0,0.0,0.0,0.0,0.0,0.0,0.0,0.0,0.0,0.0,0.0,0.0,0.0,0.0,0.0,-4.4403,-4.6738,-4.7533,-4.8147,-4.8739,-4.9744,-5.062,-5.1301,-5.3089,-5.4907,-5.6673,-5.7589,-5.851,-5.9612,-6.0933,-6.2034,-6.2842,-6.3943,-6.4897,-6.5705,-6.5999,-6.6549,-6.732,-6.7577,-6.8311,-6.9302,-6.9302,-6.9779,-7.0513,-7.0716,-7.0971,-7.1192,-7.0698,-7.066,-7.0954,-7.1505,-7.2188,-7.3037,0.0,0.0,-2.5303,-2.5303,-2.5303,-2.5303,-2.5303,-2.5303,-2.5928,-2.7698,-2.8236,-2.9079,-3.0753,-3.1481,-3.1965,-3.2204,-3.2509,-3.17,-2.9485,-3.0994,-3.0863,-2.8466,-3.1445,-3.4387,-3.6985,-3.7915,-3.966,-4.2331,-4.2282,-4.3171,-4.4921,-4.563,-4.6454,-4.7318,-4.8145,-4.8568,-4.8644,-4.9509,-4.9389,-4.8476,-4.6892,-4.4652,-4.2187,0.0,0.0,0.0,0.0,0.0,0.0,0.0,0.0,0.0,0.0,0.0,0.0,0.0,0.0,0.0,0.0,0.0,0.0,0.0,0.0,0.0,0.0,0.0,0.0,0.0,0.0,0.0,0.0,0.0,0.0,0.0,0.0,0.0,-4.482,-4.5972,-4.7352,-4.8757,-5.083,-5.2113,-5.2033,-5.4242,-5.5163,-5.3981,-5.61,-5.7682,-5.8153,-5.9648,-6.1227,-6.2842,-6.3723,-6.453,-6.5338,-6.5375,-6.5778,-6.6586,-6.7357,-6.8164,-6.8972,-6.9743,-7.011,-7.0146,-7.0146,-7.0587,-7.1377,-7.2021,-7.2683,-7.3266,-7.1913,-7.1855,-7.2553,-7.2553,-7.2943,-7.3653,-2.5053,-2.5203,-2.5303,-2.5303,-2.5303,-2.5303,-2.5303,-2.5303,-2.6159,-2.8467,-2.9072,-2.9945,-3.1638,-3.2522,-3.3012,-3.3072,-3.3478,-3.3493,-3.2937,-3.288,-3.3083,-3.3666,-3.5631,-3.7692,-3.9818,-4.1254,-4.2421,-4.3326,-4.5193,-4.6268,-4.6701,-4.7549,-4.8337,-4.9105,-4.9336,-4.9798,-5.0433,-5.126,-5.147,-5.125,-5.145,-5.0352,-4.8651,0.0,0.0,0.0,0.0,0.0,0.0,0.0,0.0,0.0,0.0,0.0,0.0,0.0,0.0,0.0,0.0,0.0,0.0,0.0,0.0,0.0,0.0,0.0,0.0,0.0,0.0,0.0,0.0,0.0,0.0,0.0,0.0,-4.9235,-4.8081,-4.9086,-5.0485,-5.1931,-5.3831,-5.5061,-5.5025,-5.6425,-5.7433,-5.7663,-5.8289,-5.9495,-6.1374,-6.1924,-6.2915,-6.4567,-6.5411,-6.5962,-6.6182,-6.6733,-6.743,-6.8238,-6.8458,-6.8972,-6.9779,-7.0,-7.0403,-7.0991,-7.0991,-7.1431,-7.2222,-7.2838,-7.3168,-7.3404,-7.3474,-7.3607,-7.3794,-7.3794,-7.4168,-7.471,-2.5077,-2.5214,-2.5303,-2.5303,-2.5303,-2.5418,-2.5813,-2.5851,-2.6973,-3.0113,-3.038,-3.1182,-3.3505,-3.3961,-3.4112,-3.4092,-3.4182,-3.3788,-3.2799,-3.2736,-3.3904,-3.6654,-3.8306,-4.0053,-4.194,-4.3267,-4.4202,-4.4805,-4.6601,-4.767,-4.7971,-4.8786,-4.9567,-5.0356,-5.0719,-5.1339,-5.2175,-5.3042,-5.3794,-5.4568,-5.5498,-5.4181,-5.1798,-5.3036,-5.1586,-4.8941,-4.929,-4.8681,-4.7617,-4.7123,0.0,0.0,0.0,0.0,0.0,0.0,0.0,0.0,0.0,0.0,0.0,0.0,0.0,0.0,0.0,0.0,0.0,0.0,0.0,0.0,0.0,0.0,0.0,0.0,-5.2229,-5.4018,-5.408,-5.3682,-5.3936,-5.5361,-5.6685,-5.774,-5.8406,-5.9099,-5.9832,-6.0676,-6.1043,-6.1851,-6.3282,-6.3686,-6.4457,-6.5778,-6.6256,-6.6806,-6.7504,-6.7981,-6.8605,-6.9412,-6.9743,-7.0275,-7.1004,-7.1336,-7.1902,0.0,-7.2569,-7.2829,-7.3327,-7.385,-7.4124,0.0,0.0,0.0,0.0,0.0,-7.4866,-7.5203,-2.5171,-2.5273,-2.5283,-2.5283,-2.5293,-2.5572,-2.6467,-2.6621,-2.8053,-3.2149,-3.1835,-3.2496,-3.5715,-3.542,-3.5016,-3.5034,-3.4519,-3.3262,-3.1161,-3.208,-3.4382,-3.8239,-4.0082,-4.186,-4.3628,-4.4411,-4.5357,-4.6406,-4.7187,-4.8008,-4.8906,-4.963,-5.0447,-5.1326,-5.2113,-5.2979,-5.3875,-5.483,-5.6145,-5.7653,-5.8712,-5.6792,-5.3468,-5.5179,-5.4359,-5.2402,-5.3167,-5.2504,-5.1186,-5.0991,0.0,0.0,0.0,0.0,0.0,0.0,0.0,0.0,0.0,0.0,0.0,0.0,0.0,0.0,0.0,0.0,0.0,0.0,0.0,0.0,0.0,0.0,0.0,0.0,-5.5813,-5.8891,-6.1241,-5.9255,-5.7969,-5.9054,-5.9706,-6.0566,-6.1887,-6.2108,-6.2401,-6.3062,-6.3796,-6.4273,-6.4347,0.0,0.0,0.0,0.0,-6.7804,-6.9242,-6.9242,-6.9647,-7.0458,-7.1029,-7.1701,-7.2298,-7.2895,-7.3494,-7.4029,-7.4029,-7.4029,-7.4034,-7.46,-7.4898,-7.5012,-7.4632,-7.4506,-7.4547,-7.5017,-7.5274,-7.5539,-2.4861,-2.4981,-2.5065,-2.5065,-2.5203,-2.5572,-2.6467,-2.6621,-2.8341,-3.3223,-3.2184,-3.2506,-3.6491,-3.5415,-3.447,-3.4735,-3.4217,-3.3782,-3.3583,-3.5685,-3.7885,-4.0027,-4.2343,-4.4124,-4.5312,-4.5506,-4.6123,-4.7187,-4.8047,-4.8945,-4.9922,-5.0739,-5.1556,-5.2414,-5.3275,-5.4173,-5.5067,-5.6652,-5.7517,-5.7964,-5.9503,-5.9534,-5.8815,-5.9998,-6.0116,-5.9684,-5.9838,-5.9682,-5.9215,-5.7846,-5.6286,-5.4644,-5.3307,-5.1497,0.0,0.0,0.0,0.0,0.0,0.0,0.0,0.0,0.0,0.0,0.0,0.0,0.0,0.0,0.0,0.0,0.0,0.0,0.0,-5.9095,-6.1055,-6.2934,-6.4725,-6.4685,-6.4163,-6.3174,-6.4251,-6.4971,-6.464,-6.5154,-6.5338,-6.4861,-6.4971,-6.5338,-6.5999,-6.7222,-6.8257,-6.9112,-7.0226,-7.0943,-7.1238,-7.1238,-7.1613,-7.244,0.0,0.0,-7.2837,-7.2266,-7.209,-7.2213,-7.2213,-7.2213,-7.2256,-7.2851,-7.3734,-7.4858,-7.5418,-7.5654,-7.5686,-7.5787,-7.6279,-7.6924,-2.4497,-2.4708,-2.4904,-2.4904,-2.5336,-2.5983,-2.696,-2.7431,-2.9066,-3.2857,-3.2142,-3.2222,-3.4604,-3.362,-3.2731,-3.2559,-3.2552,-3.2939,-3.3928,-3.6691,-3.9191,-4.1258,-4.3502,-4.4959,-4.5547,-4.5696,-4.6306,-4.731,-4.8152,-4.9089,-5.0025,-5.1274,-5.2088,-5.2562,-5.4273,-5.5599,-5.6601,-5.8336,-5.9334,-5.9876,-6.0698,-6.0993,-6.1004,-6.1511,-6.1719,-6.1719,-6.1719,-6.1719,-6.1562,-6.0742,-5.9844,-5.8906,-5.8086,-5.6227,-5.3949,0.0,0.0,0.0,0.0,0.0,0.0,0.0,0.0,0.0,0.0,0.0,0.0,0.0,0.0,-5.6851,0.0,0.0,-6.2166,-6.385,-6.5615,-6.7419,-6.9228,-6.9631,-6.8951,-6.6765,-6.6843,-6.71,-6.71,-6.71,-6.7074,-6.6914,-6.7333,-6.7851,-6.8511,-6.9589,-7.0323,-7.0773,-7.1454,-7.1996,-7.2411,-7.2411,-7.2595,-7.301,-7.2595,-7.2532,-7.2774,-7.2356,-7.232,-7.2577,-7.2577,-7.2577,-7.2612,-7.2926,-7.3453,-7.413,-7.4591,-7.5245,-7.6053,-7.6476,-7.6938,-7.74,-2.419,-2.4479,-2.4738,-2.4956,-2.5536,-2.6405,-2.758,-2.8318,-2.965,-3.2178,-3.1972,-3.1847,-3.2651,-3.1889,-3.1035,-3.0305,-3.1151,-3.2336,-3.3805,-3.7014,-3.981,-4.2008,-4.3961,-4.5061,-4.517,-4.5419,-4.6071,-4.7068,-4.7946,-4.8848,-4.9831,-5.1372,-5.2227,-5.2641,-5.5048,-5.6796,-5.8011,-5.9712,-6.0889,-6.1631,-6.1631,-6.1631,-6.1631,-6.1631,-6.1637,-6.1719,-6.1719,-6.1367,-6.1015,-6.1502,-6.133,-6.0983,-6.1472,-5.9766,-5.7312,-5.5872,-5.2947,0.0,0.0,0.0,0.0,0.0,0.0,0.0,0.0,0.0,-5.7804,-5.904,-5.9988,-6.0978,-6.2306,-6.4381,-6.6442,-6.807,-6.9623,-7.1294,-7.3208,-7.3463,-7.2665,-7.0443,-6.9436,-6.9215,-6.988,-6.9178,-6.884,-6.9099,-6.9789,-7.0391,-7.0784,-7.1741,-7.2198,-7.2198,-7.2469,-7.2925,-7.3568,-7.3416,-7.3341,-7.3338,-7.2997,-7.2738,-7.2525,-7.2334,-7.2531,-7.3014,-7.3014,-7.3014,-7.3014,-7.3014,-7.3091,-7.3245,-7.3245,-7.4168,-7.563,-7.6669,-7.713,-7.7553,-2.419,-2.4247,-2.4561,-2.5427,-2.5801,-2.651,-2.8088,-2.8391,-2.9418,-3.2225,-3.1661,-3.1669,-3.3451,-3.2048,-3.062,-2.975,-3.1826,-3.3563,-3.4526,-3.8328,-4.1017,-4.207,-4.3744,-4.4638,-4.4688,-4.4726,-4.5354,-4.6583,-4.743,-4.8526,-4.9797,-5.0797,-5.205,-5.3531,-5.5378,-5.7076,-5.8682,-6.0436,-6.1256,-6.1334,-6.1334,-6.1334,-6.1334,-6.1334,-6.1498,-6.1719,-6.1719,-6.0234,-5.8663,-6.0809,-5.9994,-5.8452,-6.0657,-5.9571,-5.7298,-5.6307,-5.3606,-5.0625,-4.9005,-4.9809,-5.1289,-5.1719,-5.3867,-5.6562,0.0,0.0,-6.2743,-6.5818,-6.7641,-6.9129,-7.0602,-7.0762,-7.1197,-7.2881,-7.2849,-7.3284,-7.4978,-7.5242,-7.5123,-7.4802,-7.4041,-7.359,-7.3709,-7.2912,-7.2127,-7.1497,-7.1497,-7.1614,-7.1656,-7.2966,-7.3682,-7.3682,-7.49,-7.5588,-7.5664,-7.4896,-7.4482,-7.4482,-7.2984,-7.2246,-7.2227,-7.1458,-7.114,-7.1206,-7.1206,-7.1206,-7.1206,-7.1206,-7.1668,-7.236,-7.236,-7.2937,-7.3976,-7.5553,-7.663,-7.7553,-2.4543,-2.4543,-2.4821,-2.571,-2.6235,-2.6943,-2.8244,-2.8563,-2.9079,-3.0381,-2.9754,-2.9268,-2.9577,-2.8414,-2.7861,-2.8396,-3.0996,-3.2786,-3.3162,-3.7219,-3.9814,-4.0277,-4.194,-4.3165,-4.3757,-4.4308,-4.5092,-4.61,-4.6953,-4.7881,-4.8971,-5.0497,-5.1584,-5.2365,-5.4348,-5.6159,-5.7889,-5.9147,-6.0306,-6.1291,-6.1291,-6.1291,-6.1291,-6.1291,-6.1375,-6.1265,-5.9826,-5.8633,0.0,-5.8874,-5.8481,-5.8004,-6.0519,-5.916,-5.6582,-5.6252,-5.2972,-4.9876,-5.1702,-5.2057,-5.3097,-5.8102,-5.9351,-6.0312,-6.3945,-6.5229,-6.6366,-6.8788,-7.0118,-7.1206,-7.2283,-7.2639,-7.2939,0.0,-7.3538,-7.3518,-7.4243,-7.474,-7.5198,-7.5695,-7.5465,-7.4828,-7.3662,-7.3242,-7.28,-7.232,-7.2738,-7.3154,-7.3476,-7.4522,-7.5117,-7.5117,-7.5195,-7.5245,-7.5245,-7.4437,-7.3745,-7.3245,-7.2514,-7.1937,-7.1437,-7.1052,-7.0898,-7.0898,-7.0898,-7.0898,-7.0898,-7.0898,-7.1091,-7.1437,-7.1437,-7.1668,-7.2322,-7.5014,-7.6245,-7.6861,-2.4804,-2.4804,-2.5054,-2.5853,-2.6392,-2.7069,-2.7997,-2.8275,-2.8436,-2.8617,-2.813,-2.75,-2.6687,-2.6002,-2.6014,-2.7128,-2.9767,-3.1522,-3.1948,-3.5821,-3.8272,-3.8687,-4.0308,-4.1613,-4.2486,-4.3526,-4.44,-4.5077,-4.6064,-4.7005,-4.7985,-4.9694,-5.071,-5.123,-5.3044,-5.4647,-5.6217,-5.7402,-5.8832,-6.0339,-6.0681,-6.0958,-6.1151,-6.092,-6.0381,-5.9567,-5.8111,-5.7113,-5.645,-5.6227,-5.566,-5.5445,-5.7665,-5.6263,-5.3918,-5.4497,-5.1626,-4.9122,-5.3084,-5.3724,-5.5048,-6.2222,-6.3414,-6.3695,-6.6834,-6.8086,-6.8984,-7.0234,-7.1438,-7.2422,-7.2954,-7.3471,-7.3768,-7.3773,-7.3707,-7.3707,-7.3937,-7.4476,-7.5091,-7.5716,-7.5793,-7.5117,-7.3346,-7.3573,-7.3763,-7.3548,-7.4117,-7.4631,-7.5024,-7.5668,-7.5899,-7.5668,-7.5014,-7.4591,-7.4361,-7.3553,-7.2822,-7.2206,-7.1937,-7.1514,-7.0898,-7.0898,-7.0898,-7.0898,-7.0898,-7.0898,-7.0898,-7.0898,-7.0898,-7.0898,-7.0898,-7.0898,-7.1245,-7.4207,-7.5438,-7.6015,-2.4804,-2.4804,-2.5054,-2.5853,-2.6181,-2.654,-2.7151,-2.7231,-2.7327,-2.7532,-2.7521,-2.7281,-2.6677,-2.6424,-2.6276,-2.6327,-2.8401,-3.0264,-3.1615,-3.4822,-3.7043,-3.7891,-3.9409,-4.0412,-4.0765,-4.2067,-4.2923,-4.3309,-4.4692,-4.5918,-4.7051,-4.7947,-4.9259,-5.0845,-5.1706,-5.2575,-5.3543,-5.5625,-5.6981,-5.7913,-5.9072,-6.005,-6.0704,-5.9896,-5.8011,-5.5994,-5.7099,-5.5869,-5.3575,-5.2652,-5.0664,-4.8875,-5.051,-4.9779,-4.8663,-5.0375,-4.9548,-4.8683,-5.1431,-5.3985,-5.6752,-6.0416,-6.3795,-6.6301,-6.6579,-6.8594,-7.043,-7.039,-7.2422,-7.4158,-7.4003,-7.397,-7.3993,-7.3971,-7.3976,-7.4273,-7.512,-7.5264,-7.5284,-7.5311,-7.5311,-7.4888,0.0,-7.5024,-7.5908,-7.587,-7.5908,-7.5938,-7.5976,-7.5976,-7.563,-7.4784,-7.4707,-7.4322,-7.3553,-7.2668,-7.2206,-7.2168,-7.1321,-7.0937,-7.0898,-7.0898,-7.0898,-7.0898,-7.0898,-7.0898,-7.0898,-7.0898,-7.0898,-7.0898,-7.0898,-7.0898,-7.1129,-7.2899,-7.4091,-7.5091,-2.5126,-2.5126,-2.5203,-2.5497,-2.5581,-2.5718,-2.5918,-2.6453,-2.6821,-2.688,-2.688,0.0,0.0,0.0,0.0,0.0,-2.844,-2.9524,-3.0563,-3.2831,-3.4592,-3.5581,-3.662,-3.7972,-3.9787,-4.0348,-4.1153,-4.2239,-4.3268,-4.4158,-4.4965,-4.6604,-4.7872,-4.8802,-4.9868,-5.1118,-5.25,-5.3185,-5.4609,-5.6459,-5.6882,-5.6671,-5.6142,-5.6224,-5.4511,-5.1928,0.0,-5.0005,-4.9158,-4.887,-4.8182,-4.7817,-5.001,-4.9125,-4.7509,-4.8663,-4.9779,-5.1587,-5.5835,-5.8066,-6.0027,-6.3463,-6.5257,-6.6367,-6.6997,-6.793,-6.899,-7.0194,-7.0703,-7.1092,-7.169,-7.1724,-7.1669,-7.1681,-7.2025,-7.2424,-7.2734,-7.3257,-7.3568,-7.3569,-7.4112,0.0,0.0,0.0,0.0,-7.5322,-7.5861,-7.5938,-7.5361,-7.5207,-7.4784,-7.3937,-7.336,-7.2899,-7.2629,-7.1783,-7.1321,-7.1321,-7.1052,-7.0898,-7.0898,-7.0898,-7.0898,-7.0898,-7.0898,-7.0898,-7.0898,-7.0898,-7.0898,-7.0898,-7.0898,-7.1245,-7.1898,-7.3091,-7.4091,-7.5168,0.0,-2.5341,-2.5341,-2.5303,-2.5303,0.0,0.0,0.0,0.0,0.0,0.0,0.0,0.0,0.0,0.0,0.0,0.0,-2.853,-2.9555,-3.075,-3.1992,-3.3313,-3.3806,-3.4826,-3.6541,-3.7077,-3.7935,-3.9185,-4.0253,-4.1268,-4.2226,-4.4191,-4.5586,-4.6471,-4.757,-4.8855,-5.0403,-5.0833,-5.2086,-5.3822,-5.395,-5.3518,-5.2737,-5.2504,-5.0692,0.0,-4.6367,-4.5185,-4.4381,-4.4727,-4.4804,-4.5186,-4.7346,-4.7286,-4.6729,-4.8143,-4.9647,-5.1979,-5.735,-5.9557,-6.1243,-6.4974,-6.5936,-6.6167,-6.6808,-6.7286,-6.7946,-6.9255,-6.927,-6.9303,-6.9928,-7.0306,-7.039,-7.0078,-7.0704,-7.1213,-7.1213,-7.1642,-7.211,-7.2422,-7.2951,-7.3246,0.0,0.0,0.0,-7.4625,-7.5151,-7.5247,-7.4668,-7.4437,-7.3976,-7.3168,-7.2514,-7.2052,-7.1745,-7.1168,-7.0898,-7.0898,-7.0898,-7.0898,-7.0898,-7.0898,-7.0898,-7.0898,-7.0898,-7.0898,-7.0898,-7.0898,-7.0898,-7.0898,-7.0898,-7.1437,-7.2322,-7.3245,-7.4197,-7.5197,0.0,0.0,-2.539,0.0,0.0,0.0,0.0,0.0,0.0,0.0,0.0,0.0,0.0,0.0,0.0,0.0,0.0,0.0,-2.8607,-2.8736,-2.9512,-3.1102,-3.1162,-3.1283,-3.1578,-3.2625,-3.3553,-3.4454,-3.5869,-3.7354,-3.894,-4.0788,-4.2434,-4.3926,-4.4707,-4.5801,-4.7145,-4.8297,-4.9196,-4.9832,-5.032,-5.0487,-5.0279,-4.8813,-4.663,-4.4298,-4.3517,-4.1655,-3.9684,-4.0547,-4.0948,-4.1302,-4.2963,-4.4557,-4.6327,-4.8859,-4.9424,-5.0441,-5.6126,-5.8579,-6.055,-6.4666,-6.5743,-6.5782,-6.5936,-6.6538,-6.7179,-6.7333,-6.789,-6.8371,0.0,-6.9387,-6.9958,-6.9101,-6.9961,-7.0742,-7.0742,-7.0742,-7.1055,0.0,0.0,0.0,0.0,0.0,0.0,-7.3939,0.0,-7.4031,-7.4021,-7.379,-7.3262,-7.2476,-7.2245,-7.1745,-7.0937,-7.0898,-7.0898,-7.0898,-7.0898,-7.0898,-7.0898,-7.0898,-7.0898,-7.0898,-7.0898,-7.0898,-7.0898,-7.0898,-7.0937,-7.0937,-7.0937,-7.1475,-7.2399,-7.3427,-7.435,-7.5236,0.0,0.0,0.0,0.0,0.0,0.0,0.0,0.0,0.0,0.0,0.0,0.0,0.0,0.0,0.0,0.0,0.0,0.0,-2.718,-2.8173,-2.8912,-2.933,-3.0068,-3.0683,-3.1236,-3.1073,-3.1918,-3.3856,-3.4055,-3.4905,-3.635,-3.7469,-3.8689,-4.0159,-4.0922,-4.183,-4.2702,-4.3025,-4.3637,-4.4361,-4.5086,-4.4792,-4.4026,-4.4544,-4.3007,-4.0547,-4.0725,-3.9978,-3.9036,-3.9701,-4.1103,-4.3114,-4.5961,-4.7136,-4.8077,-5.133,-5.2864,-5.423,-5.7652,-5.9498,-6.0896,-6.2627,-6.3512,-6.3974,-6.4012,-6.3705,-6.3306,-6.2868,-6.1918,-6.1193,-6.135,-6.4174,-6.6394,-6.6162,-6.9147,0.0,-7.1445,-7.1562,0.0,-7.1953,0.0,-7.1971,-7.1932,-7.2762,0.0,0.0,-7.396,-7.4223,-7.4219,-7.343,-7.2577,-7.1772,-7.1734,-7.1475,-7.1129,-7.0975,-7.0898,-7.0898,-7.0898,-7.0898,-7.0898,-7.0898,-7.0898,-7.0898,-7.0898,-7.0898,-7.0898,-7.1052,-7.1129,-7.1129,-7.1283,-7.2234,-7.357,-7.385,-7.5005,-7.6467,0.0,0.0,0.0,0.0,0.0,0.0,0.0,0.0,0.0,0.0,0.0,0.0,0.0,0.0,0.0,0.0,0.0,0.0,0.0,-2.8185,-2.8555,-2.8874,-2.9102,-2.917,-2.9119,-2.8693,-2.9485,-3.1483,-3.1409,-3.2336,-3.4207,-3.5095,-3.6105,-3.7192,-3.7871,-3.8991,-4.0321,-4.0154,-4.0583,0.0,0.0,-4.0946,-4.0355,-4.073,-4.0056,-3.895,-3.9295,-3.9313,-3.9559,-4.1646,-4.3513,-4.5345,-4.7951,-4.8993,-4.9812,-5.2416,-5.3715,-5.4876,-5.7384,-5.9125,-6.0435,-6.132,-6.1858,-6.2012,-6.1281,-6.0742,-6.0089,-5.8957,-5.8242,-5.8219,-5.9435,-6.1973,-6.4263,0.0,0.0,0.0,-6.9907,-7.003,-7.0225,0.0,-7.0654,0.0,-7.0742,-7.1562,-7.2241,0.0,-7.3777,-7.4258,-7.3867,-7.3203,-7.2444,-7.1626,-7.1528,-7.1433,-7.1349,-7.1206,-7.1168,-7.1168,-7.1168,-7.1168,-7.1168,-7.1168,-7.1168,-7.1168,0.0,-7.1168,-7.1168,-7.1283,-7.1312,-7.1334,-7.1451,-7.2517,-7.4005,-7.4102,-7.5313,-7.6929,0.0,0.0,0.0,0.0,0.0,0.0,0.0,0.0,0.0,0.0,-2.5657,-2.5957,-2.6709,-2.6903,0.0,0.0,0.0,0.0,0.0,0.0,-2.8379,-2.8929,-2.8352,-2.7582,-2.6621,-2.64,-2.7001,-2.8436,-2.8502,-2.9736,-3.2046,-3.2936,-3.3814,-3.4666,-3.5119,-3.6476,-3.8314,-3.8096,-3.8405,-3.8994,-3.8368,-3.8191,-3.8198,0.0,-3.7794,-3.8395,-3.8505,-3.9056,-4.0377,-4.4488,-4.6507,-4.7609,-4.9591,-5.0729,-5.1573,-5.2968,-5.3386,-5.3843,-5.5961,-5.772,-5.9134,-6.0003,-6.0334,-6.0012,-5.8274,-5.7835,-5.7242,-5.5198,-5.5335,-5.6549,-5.9011,-6.0365,-6.1944,-6.4641,0.0,-6.5928,-6.7169,-6.733,-6.7733,-6.8783,-6.89,-6.8978,-6.9156,-6.9953,-7.0816,-7.1714,-7.328,-7.3945,-7.332,-7.3008,-7.2518,-7.1755,-7.1587,-7.1513,-7.1525,-7.153,-7.1519,-7.1519,-7.1519,-7.1519,-7.1519,-7.1519,-7.1519,-7.1519,-7.1519,0.0,-7.1519,-7.153,-7.1518,-7.1529,-7.155,-7.2612,-7.4107,-7.4284,-7.5427,-7.6958,0.0,0.0,0.0,0.0,0.0,0.0,0.0,0.0,0.0,0.0,-2.6516,-2.6622,0.0,0.0,0.0,0.0,0.0,0.0,0.0,0.0,0.0,-2.8121,-2.8621,-2.8159,-2.6621,-2.64,-2.6416,-2.6656,-2.6541,-2.739,-2.9137,-2.9326,-3.0225,-3.1628,-3.1736,-3.2371,-3.335,-3.3306,-3.3761,-3.4577,-3.5102,-3.56,-3.611,-3.6642,0.0,0.0,-3.7477,-3.8212,-3.9606,-4.4305,-4.6874,-4.8746,-5.2417,-5.3665,-5.3849,-5.4106,-5.397,-5.3829,-5.424,-5.507,-5.6091,-5.6931,-5.7939,-5.8235,-5.6217,-5.5431,-5.4177,-5.0773,-4.9869,-5.0202,-5.2087,-5.3723,-5.5857,-5.9127,-6.0388,-6.1988,-6.4956,-6.5504,-6.6376,0.0,-6.8915,-6.8922,-6.8932,-6.9755,0.0,0.0,0.0,-7.2578,-7.3242,-7.2578,-7.2109,-7.1945,-7.1749,-7.1666,-7.1685,-7.1575,-7.1497,-7.1497,-7.1497,-7.1497,-7.1497,-7.1497,-7.1497,-7.1497,-7.1497,0.0,-7.1503,-7.1617,-7.1672,-7.1665,-7.1854,-7.296,-7.4483,-7.4545,-7.5658,-7.7136,0.0,0.0,0.0,0.0,0.0,0.0,0.0,-2.6351,-2.6774,-2.7236,-2.7687,-2.8187,-2.8599,-2.8637,-2.8972,0.0,0.0,0.0,0.0,0.0,0.0,-2.9236,-2.9583,-2.9198,-2.7928,-2.7401,-2.7546,-2.8377,0.0,-2.8082,-3.0104,-2.9646,-2.9861,-3.0647,-3.05,-3.0907,-3.1669,-3.1524,-3.2222,-3.3428,-3.3843,-3.4663,-3.5739,-3.6129,0.0,0.0,-3.7007,-3.7618,-3.8744,-4.1765,-4.4415,-4.7352,-5.2711,-5.4106,-5.3622,-5.2886,-5.3506,-5.4056,-5.2492,-5.3703,-5.5405,-5.5397,-5.5884,-5.5587,-5.2862,-5.2196,-5.1178,-4.764,-4.7221,-4.8125,-5.0279,-5.1356,-5.301,-5.6395,-5.8104,-5.9734,-6.1771,-6.3295,-6.4782,-6.6486,-6.6679,-6.6871,0.0,-6.8232,0.0,0.0,0.0,-7.0922,-7.2422,-7.2187,-7.1992,-7.1992,-7.1914,-7.1875,-7.1875,-7.1807,-7.1774,-7.1774,-7.1774,-7.1774,-7.1774,-7.1774,-7.1774,-7.1774,-7.1774,0.0,-7.1767,-7.1844,-7.1862,-7.1848,-7.1975,-7.3086,-7.4609,-7.4609,-7.569,-7.7209,0.0,0.0,0.0,0.0,0.0,0.0,-2.6467,-2.6774,-2.7198,-2.8044,-2.9044,-2.9967,-3.0852,-3.016,-3.0275,0.0,0.0,0.0,0.0,0.0,0.0,0.0,0.0,-3.0006,-2.9121,0.0,0.0,-2.9852,-2.8544,0.0,0.0,0.0,0.0,0.0,-3.0052,-3.0319,-3.0934,-3.0729,-3.1619,0.0,0.0,-3.4244,-3.5718,0.0,0.0,0.0,0.0,-3.6957,-3.7727,-3.9409,-4.165,-4.4777,-5.0512,-5.226,-5.2017,-5.095,-5.2316,-5.3709,-5.165,-5.3274,-5.5375,-5.4769,-5.4571,-5.3585,-5.0169,-4.9645,-4.8935,-4.5673,-4.5778,-4.73,-4.9933,-4.9971,-5.0702,-5.4087,-5.5318,-5.6511,-5.8434,-6.0396,-6.232,-6.4128,-6.432,0.0,-6.5667,-6.6384,0.0,0.0,0.0,0.0,-7.1131,-7.1523,-7.168,-7.1719,-7.1914,-7.1992,-7.1992,-7.1992,-7.1992,-7.1992,-7.1992,-7.1992,-7.1992,-7.1992,-7.1992,-7.1992,-7.1992,0.0,0.0,-7.1992,-7.1992,-7.1992,-7.1992,-7.2969,-7.4336,-7.4531,-7.5586,-7.6953,0.0,0.0,0.0,0.0,0.0,0.0,-2.6467,-2.7274,-2.8082,-2.889,-3.0429,-3.1775,-3.2583,-3.1968,-3.1814,0.0,0.0,0.0,0.0,0.0,0.0,0.0,0.0,0.0,0.0,0.0,0.0,-2.8121,-2.7967,0.0,0.0,0.0,0.0,0.0,0.0,-2.975,-2.9863,-2.9808,0.0,0.0,0.0,0.0,0.0,0.0,0.0,0.0,0.0,-3.6007,-3.6528,-3.9341,-4.0465,-4.126,-4.4557,-4.7189,-4.9089,-4.9198,-5.0268,-5.1665,-5.2723,-5.4044,-5.5025,-5.4951,-5.475,-5.3521,-4.9861,-4.9333,-4.8617,-4.533,-4.4995,-4.616,-4.8971,-4.7625,-4.7201,-5.0587,-4.9356,-4.9856,-5.528,-5.6242,-5.8165,-6.2858,0.0,0.0,-6.4666,-6.482,0.0,0.0,0.0,0.0,-6.9373,-7.0195,-7.0703,-7.082,-7.1601,-7.1992,-7.1992,-7.1992,-7.1992,-7.1992,-7.1992,-7.1992,-7.1992,-7.1992,-7.1992,-7.1992,-7.1992,0.0,0.0,-7.1992,-7.1992,-7.1992,-7.1992,-7.2578,-7.3515,-7.4297,-7.5195,-7.6133,0.0,0.0,0.0,0.0,0.0,0.0,-2.7159,-2.7236,-2.7967,-3.0352,-3.0814,-3.1621,-3.3468,-3.3391,-3.3314,-3.366,0.0,0.0,0.0,0.0,0.0,0.0,0.0,0.0,0.0,0.0,-2.9967,-3.0198,-3.0198,0.0,0.0,0.0,0.0,0.0,0.0,-2.9677,-2.9715,-3.0205,0.0,0.0,0.0,0.0,0.0,0.0,0.0,0.0,0.0,0.0,-3.5552,-3.6358,-3.7277,-3.8173,-3.8392,-4.013,-4.2577,-4.4769,-4.7487,-4.977,-4.9437,-5.1643,-5.3917,-5.3447,-5.3178,-5.2132,-4.8739,-4.8601,-4.8209,-4.4907,-4.4688,-4.5464,-4.6602,-4.6148,-4.6047,-4.7394,-4.8086,-4.9779,-5.3664,-5.5511,-5.8011,-6.2089,-6.2589,0.0,0.0,0.0,0.0,0.0,0.0,0.0,-6.7309,-6.8859,-6.9726,-6.9805,-7.0703,-7.1211,-7.1211,-7.1758,-7.1992,-7.1992,-7.1992,-7.1992,-7.1992,-7.1992,-7.1992,-7.1992,-7.1992,0.0,0.0,-7.1992,-7.1992,-7.1992,-7.1992,-7.2539,-7.3359,-7.3672,-7.4687,-7.5937,0.0,0.0,0.0,0.0,0.0,-2.5813,-2.7274,-2.7198,-2.7928,-3.0583,-3.1044,-3.1814,-3.3622,-3.4276,-3.4584,-3.4584,-3.3276,0.0,0.0,0.0,0.0,0.0,0.0,0.0,0.0,0.0,-3.1198,-3.2045,-3.2045,-3.2327,0.0,0.0,-3.1524,-3.1178,0.0,0.0,0.0,0.0,0.0,0.0,0.0,0.0,0.0,0.0,0.0,0.0,0.0,0.0,0.0,0.0,0.0,-3.632,-3.488,-3.5622,-3.7631,-4.079,-4.4314,-4.7192,-4.7091,-4.9714,-5.2414,-5.229,-5.1515,-5.0196,-4.7839,-4.7378,-4.6792,-4.4495,-4.4508,-4.4966,-4.5055,-4.5381,-4.5586,-4.5586,-4.7086,-4.9356,-5.2395,-5.4587,-5.6934,-5.9858,0.0,-6.0258,0.0,0.0,0.0,0.0,0.0,0.0,-6.6013,-6.7475,-6.8418,-6.8765,-6.9724,-7.039,-7.0625,-7.1289,-7.1758,-7.1992,-7.1992,-7.1992,-7.1992,-7.1992,-7.1992,-7.1992,-7.1992,0.0,0.0,-7.1992,-7.1992,-7.1992,-7.1992,-7.2383,-7.2969,-7.3203,-7.4258,-7.5547,0.0,0.0,0.0,0.0,0.0,0.0,-2.6467,-2.7351,-2.8198,-2.9006,-3.1314,-3.2891,-3.2891,-3.4468,-3.5507,-3.5507,-3.4661,0.0,0.0,0.0,0.0,0.0,0.0,0.0,0.0,0.0,-3.2083,-3.2891,-3.2891,-3.2774,-3.26,-3.26,-3.2031,-3.1013,0.0,0.0,0.0,0.0,0.0,0.0,0.0,0.0,-3.5493,0.0,0.0,0.0,0.0,0.0,0.0,0.0,0.0,0.0,0.0,-3.4952,-3.5652,-3.7877,-4.0701,-4.3774,-4.7021,-4.9029,-5.048,-5.1953,-5.0019,-4.7689,-4.7392,-4.5621,-4.4052,-4.4029,-4.4318,-4.4726,-4.5033,-4.5381,-4.5586,-4.5586,-4.5624,-4.7124,-5.1318,-5.2702,-5.3857,0.0,0.0,-5.7536,0.0,0.0,0.0,0.0,0.0,0.0,-6.5859,-6.6038,-6.6647,-6.7671,-6.8683,-6.9648,-7.0508,-7.0625,-7.1133,-7.1992,-7.1992,-7.1992,-7.1992,-7.1992,-7.1992,0.0,0.0,0.0,0.0,-7.1992,-7.1992,-7.1992,-7.1992,-7.1992,-7.2109,-7.2969,-7.3867,-7.4726,0.0,0.0,0.0,0.0,0.0,0.0,-2.6467,-2.6813,-2.7736,-2.9737,-3.1198,-3.2506,-3.366,-3.4814,-3.5493,-3.5493,-3.4699,0.0,0.0,0.0,0.0,0.0,0.0,0.0,0.0,-3.2814,-3.3545,-3.3776,-3.4391,-3.4634,-3.4578,-3.3769,-3.3255,-3.2847,-3.1576,-3.0844,0.0,0.0,0.0,0.0,0.0,-3.5493,-3.5493,0.0,0.0,0.0,0.0,0.0,0.0,0.0,0.0,0.0,0.0,0.0,0.0,-3.5893,-3.7721,-3.9961,-4.2389,-4.3922,-4.4886,-4.5431,-4.5113,-4.4432,-4.3235,-4.3535,-4.3826,-4.3215,-4.3717,-4.4318,-4.4701,-4.5033,-4.5323,-4.5568,-4.5586,-4.7048,-5.1318,-5.2664,-5.4472,-5.7896,-5.7566,-5.8066,0.0,0.0,0.0,0.0,0.0,0.0,-6.5013,-6.5628,-6.615,-6.6587,-6.7696,-6.8421,-6.8711,-7.0039,-7.0859,-7.1133,-7.1719,-7.1992,-7.1992,-7.1992,-7.1992,0.0,0.0,0.0,0.0,-7.1992,-7.1992,-7.1992,-7.1992,-7.1992,-7.2031,-7.2305,-7.2969,-7.3828,0.0,0.0,0.0,0.0,0.0,0.0,-2.6043,-2.639,-2.7274,-2.9198,-3.0775,-3.2199,-3.3545,-3.4776,-3.5493,-3.5493,-3.5007,0.0,0.0,0.0,0.0,0.0,0.0,0.0,-3.216,-3.2891,-3.3737,-3.4699,-3.4891,-3.5199,-3.5493,-3.4779,-3.4274,-3.3891,-3.2737,-3.1873,0.0,0.0,0.0,0.0,-3.5412,-3.5315,-3.5045,0.0,0.0,0.0,0.0,0.0,0.0,0.0,0.0,0.0,0.0,0.0,0.0,0.0,-3.5801,-3.7039,-3.9347,-4.0607,-4.1429,-4.2064,-4.1886,-4.1509,-4.1285,-4.1603,-4.2039,-4.2486,-4.3171,-4.3915,-4.4497,-4.4966,-4.5553,-4.6414,-4.6009,-4.6971,-5.0913,-5.1643,-5.3127,-5.6752,0.0,0.0,0.0,0.0,0.0,0.0,0.0,0.0,-6.4628,-6.5166,-6.5705,-6.6205,-6.6923,-6.7503,-6.7815,-6.941,-7.0351,-7.0703,-7.1562,-7.1992,-7.1992,-7.1992,-7.1992,0.0,0.0,0.0,0.0,-7.1992,-7.1992,-7.1992,-7.1992,-7.1992,-7.1992,-7.1992,-7.2539,-7.3398,0.0,0.0,0.0,0.0,0.0,0.0,0.0,-2.6043,-2.6928,-2.7775,-3.0121,-3.1968,-3.2737,-3.443,-3.5468,-3.543,0.0,0.0,0.0,0.0,0.0,0.0,0.0,0.0,-3.2776,-3.216,-3.2917,-3.5287,-3.4532,-3.4595,-3.535,-3.5364,-3.4941,-3.4186,-3.4083,-3.3199,-3.1852,-3.266,0.0,0.0,-3.5507,-3.5007,0.0,0.0,0.0,0.0,0.0,0.0,0.0,0.0,0.0,0.0,0.0,0.0,0.0,0.0,0.0,0.0,0.0,-3.8905,-3.9672,-4.1128,-3.9928,-3.8973,-4.0961,-3.9904,0.0,-4.1677,-4.2752,-4.3454,-4.431,-4.512,-4.6106,-4.7509,-4.666,-4.6908,-5.0086,-5.009,-5.0687,0.0,-5.4908,0.0,0.0,0.0,0.0,0.0,0.0,0.0,-6.4653,-6.4817,-6.5303,-6.6381,-6.6409,-6.6819,-6.7606,-6.8757,-6.9765,-7.0625,-7.1484,-7.1953,-7.1992,-7.1992,-7.1992,0.0,0.0,0.0,0.0,-7.1992,-7.1992,-7.1992,-7.1992,-7.1992,-7.1992,-7.1992,-7.25,-7.3203,0.0,0.0,0.0,0.0,0.0,0.0,0.0,0.0,0.0,0.0,-3.0121,-3.1775,-3.1968,-3.4083,-3.5238,0.0,0.0,0.0,0.0,0.0,0.0,0.0,0.0,0.0,-3.1968,-3.2391,-3.2826,-3.3272,-3.3677,-3.3903,-3.3901,-3.4094,-3.4098,-3.383,-3.2749,-3.2429,-3.2699,-3.3583,0.0,0.0,-3.5622,-3.5147,0.0,0.0,0.0,0.0,-3.4672,-3.5147,0.0,0.0,0.0,0.0,0.0,0.0,0.0,0.0,-3.7023,-3.6668,-3.7747,0.0,-3.6744,-3.7149,-3.7504,-3.7968,0.0,-3.8977,-3.9641,-4.083,-4.1733,-4.2459,-4.2905,-4.4717,-4.5742,-4.4551,-4.6109,-4.7578,-4.7855,-5.1014,-5.3674,-5.4645,-5.6578,0.0,0.0,0.0,0.0,0.0,0.0,-6.2868,-6.3969,-6.4676,-6.5429,-6.6377,-6.6505,-6.6651,-6.6869,-6.7922,-6.8906,-6.9726,-7.0586,-7.1367,-7.1992,-7.1992,-7.1992,0.0,0.0,0.0,-7.1992,-7.1992,-7.1992,-7.1992,-7.1992,-7.1992,-7.1992,-7.1992,-7.2148,-7.2383,0.0,0.0,0.0,0.0,0.0,0.0,0.0,0.0,0.0,0.0,-2.9429,-3.0814,-3.1621,-3.3276,0.0,0.0,0.0,0.0,0.0,0.0,0.0,0.0,0.0,-3.1275,-3.1698,-3.2122,-3.266,-3.3331,-3.3791,-3.3922,-3.3789,-3.3922,-3.3776,-3.3355,-3.2186,-3.2352,-3.3506,-3.3673,-3.4481,-3.5597,-3.567,0.0,0.0,0.0,0.0,0.0,-3.4912,-3.5338,0.0,-3.5687,-3.6072,-3.6562,0.0,0.0,0.0,0.0,-3.7488,-3.7172,-3.7501,-3.7392,-3.722,-3.7288,-3.7763,-3.8303,-3.8704,-3.9025,-3.9512,-4.0614,-4.1338,-4.1949,-4.2572,-4.4228,-4.5634,-4.6068,-4.7248,-4.8262,-4.873,-5.1902,-5.4396,-5.5001,-5.68,0.0,0.0,0.0,0.0,0.0,0.0,-6.2356,-6.3299,-6.4174,-6.5048,-6.5985,-6.6492,-6.6692,-6.6615,-6.7664,-6.8594,-6.9414,-7.0273,-7.1172,-7.1992,-7.1992,-7.1992,0.0,0.0,0.0,-7.1992,-7.1992,-7.1992,-7.1992,-7.1992,-7.1992,-7.1992,-7.1992,-7.1992,-7.207,0.0,0.0,0.0,0.0,0.0,0.0,0.0,0.0,0.0,0.0,0.0,0.0,0.0,0.0,0.0,0.0,0.0,0.0,0.0,0.0,0.0,0.0,-3.1275,-3.0737,-3.1506,-3.1506,-3.2186,-3.3544,-3.3698,-3.3722,-3.3695,-3.3722,-3.3327,-3.2506,-3.2083,-3.266,-3.3968,-3.3635,-3.4302,-3.5624,-3.5687,0.0,0.0,0.0,0.0,0.0,0.0,0.0,0.0,-3.5761,-3.5926,-3.625,-3.6957,0.0,0.0,0.0,0.0,0.0,-3.7732,-3.8749,-3.9644,-3.9413,-3.9331,-3.9514,-4.0162,-3.9661,-3.9399,-4.0648,-4.1382,-4.2044,-4.2974,-4.4428,-4.6319,-4.9003,-4.885,-4.8963,-5.0606,-5.2524,-5.3966,-5.4548,-5.6161,0.0,0.0,0.0,0.0,0.0,0.0,-6.1784,-6.2762,-6.3535,-6.4455,-6.555,-6.6299,-6.6664,-6.6664,-6.7539,-6.8476,-6.9414,-7.0156,-7.1055,-7.1992,-7.1992,-7.1992,-7.1992,0.0,0.0,-7.1992,-7.1992,-7.1992,-7.1992,-7.1992,-7.1992,-7.1992,-7.1992,-7.1992,-7.1992,0.0,0.0,0.0,0.0,0.0,0.0,0.0,0.0,0.0,0.0,0.0,0.0,0.0,0.0,0.0,0.0,0.0,0.0,0.0,0.0,0.0,-3.2929,-3.1275,-3.0456,-3.0621,-3.0609,-3.0625,-3.0629,-3.1378,-3.1629,-3.1407,-3.1629,-3.1388,-3.0852,-3.2211,-3.2904,-3.3199,-3.4622,-3.5353,-3.5601,-3.5786,0.0,0.0,0.0,0.0,0.0,0.0,0.0,0.0,-3.5934,-3.6477,-3.7097,-3.7253,0.0,0.0,0.0,0.0,0.0,-4.0186,-4.1735,-4.2519,-4.0847,-4.0875,-4.1265,-4.1288,-4.0692,-4.0198,-4.0448,-4.1798,-4.3195,-4.4095,-4.7256,-4.9509,-4.8794,-4.9264,-4.9924,0.0,0.0,-5.3573,-5.3402,0.0,0.0,0.0,0.0,0.0,0.0,0.0,-6.2022,-6.2908,-6.3103,-6.393,-6.5541,-6.5726,-6.6149,-6.6852,-6.7029,-6.7851,-6.9414,-6.9609,-7.0508,-7.1992,-7.1992,-7.1992,-7.1992,0.0,-7.1992,-7.1992,-7.1992,-7.1992,-7.1992,-7.1992,-7.1992,-7.1992,-7.1992,-7.1992,-7.1992,0.0,0.0,0.0,0.0,0.0,0.0,0.0,0.0,0.0,0.0,0.0,0.0,0.0,0.0,0.0,0.0,0.0,0.0,0.0,0.0,-3.3814,-3.2929,-3.1737,-3.0891,-3.0417,-3.0879,-3.1111,-3.0956,-3.1875,-3.2025,-3.1424,-3.1092,-3.0751,-3.0492,-3.1785,-3.2545,-3.3006,-3.4314,-3.5188,-3.5593,0.0,0.0,0.0,0.0,0.0,0.0,0.0,0.0,0.0,0.0,-3.625,-3.668,-3.7148,0.0,0.0,0.0,0.0,0.0,-3.9453,-4.1009,-4.2485,-4.3307,-4.4045,-4.4554,-4.448,-4.4516,-4.3924,-4.1788,-4.2696,-4.4082,-4.4631,-4.6598,-4.8825,-5.0933,-5.2505,-5.3531,-5.371,-5.4608,-5.5148,0.0,0.0,0.0,0.0,0.0,0.0,0.0,0.0,0.0,-6.2265,-6.2734,-6.3359,-6.418,-6.5117,-6.5781,-6.6172,-6.664,-6.7734,-6.9414,-6.9453,-7.039,-7.1992,-7.1992,-7.1992,-7.1992,0.0,-7.1992,-7.1992,-7.1992,-7.1992,-7.1992,-7.1992,-7.1992,-7.1992,-7.1992,-7.1992,-7.1992,0.0,0.0,0.0,0.0,0.0,0.0,0.0,0.0,0.0,0.0,0.0,0.0,0.0,0.0,0.0,0.0,0.0,0.0,0.0,-3.393,-3.3545,-3.2699,-3.2071,-3.134,-3.0417,-3.1109,-3.1492,-3.1521,-3.2227,-3.2342,-3.1907,-3.1234,-3.0963,-3.1142,-3.1769,-3.2494,-3.3276,-3.4199,-3.4968,-3.5584,0.0,0.0,0.0,0.0,0.0,0.0,0.0,0.0,0.0,0.0,0.0,0.0,0.0,0.0,0.0,-3.6797,-3.7411,-3.7975,-3.8475,-4.0156,-4.2335,-4.4733,-4.5911,-4.6666,-4.7434,-4.7756,-4.7076,-4.4234,-4.4904,-4.6086,-4.6318,-4.6987,-4.8748,-5.2684,-5.4702,-5.5946,-5.6372,-5.6549,0.0,0.0,0.0,0.0,0.0,0.0,0.0,0.0,0.0,0.0,-6.168,-6.2344,-6.2773,-6.3008,-6.4492,-6.539,-6.5586,-6.6445,-6.7656,-6.9101,-6.9375,-7.0273,-7.1719,-7.1914,-7.1992,-7.1992,-7.1992,-7.1992,-7.1992,-7.1992,-7.1992,-7.1992,-7.1992,-7.1992,-7.1992,-7.1992,-7.1992,-7.1992,0.0,0.0,0.0,0.0,0.0,0.0,0.0,0.0,0.0,0.0,0.0,0.0,0.0,0.0,0.0,0.0,0.0,0.0,0.0,-3.3071,-3.2712,-3.1917,-3.1866,-3.1443,-3.0506,-3.0583,-3.0636,-3.0685,-3.0763,-3.1151,-3.1897,-3.1854,-3.221,-3.2926,-3.2926,-3.3378,-3.416,-3.5045,-3.5468,-3.5507,-3.5584,0.0,0.0,0.0,0.0,0.0,0.0,0.0,0.0,0.0,0.0,0.0,0.0,0.0,-3.6016,-3.6094,-3.7724,-3.9378,-3.8765,-4.0976,-4.347,-4.3635,-4.4307,-4.5745,-4.872,-4.8307,-4.7443,-4.8068,-4.9433,-5.0571,-5.0733,-5.1341,-5.198,-5.2442,-5.3313,-5.4605,-5.6323,0.0,0.0,0.0,0.0,0.0,0.0,0.0,0.0,0.0,0.0,0.0,-6.1719,-6.1758,-6.2148,-6.2969,-6.3906,-6.4765,-6.5586,-6.6445,-6.7383,-6.8281,-6.9062,-6.9883,-7.082,-7.164,-7.1992,-7.1992,-7.1992,-7.1992,-7.1992,-7.1992,-7.1992,-7.1992,-7.1992,-7.1992,-7.1992,-7.1992,-7.1992,-7.1992,0.0,0.0,0.0,0.0,0.0,0.0,0.0,0.0,0.0,0.0,0.0,0.0,0.0,0.0,0.0,0.0,0.0,0.0,0.0,-3.2673,-3.2635,-3.184,-3.183,-3.1427,-3.0583,-3.0583,-3.064,-3.0666,-3.1205,-3.1648,-3.1967,-3.2454,-3.2561,-3.2304,-3.2788,-3.2865,-3.2737,-3.4122,-3.4699,-3.4737,-3.5353,-3.4762,0.0,0.0,0.0,0.0,0.0,0.0,0.0,0.0,-3.5948,-3.6016,-3.6016,-3.5625,-3.5195,-3.5195,-3.5826,-3.6594,-3.688,-3.976,-4.3038,-4.4589,-4.565,-4.674,-4.8447,-5.0356,-5.1293,-4.9709,-5.0608,-5.16,-5.1307,-5.2343,-5.3458,-5.4117,-5.3966,-5.4453,0.0,0.0,0.0,0.0,0.0,0.0,0.0,0.0,0.0,0.0,0.0,0.0,-6.1718,-6.1719,-6.2109,-6.2969,-6.3867,-6.4726,-6.5586,-6.6445,-6.707,-6.7383,-6.8242,-6.9375,-7.0703,-7.1055,-7.1484,-7.1992,-7.1992,-7.1992,-7.1992,-7.1992,-7.1992,-7.1992,-7.1992,-7.1992,-7.1992,-7.1992,-7.1992,-7.1992,0.0,0.0,0.0,0.0,0.0,0.0,0.0,0.0,0.0,0.0,0.0,0.0,0.0,0.0,0.0,0.0,0.0,0.0,-3.1275,-3.1878,-3.1954,-3.1437,-3.1438,-3.1217,-3.0621,-3.066,-3.0706,-3.0685,-3.1521,-3.2107,-3.2401,-3.2908,-3.3112,-3.2994,-3.2994,-3.2801,-3.2545,-3.343,-3.3968,-3.4276,-3.493,-3.4327,0.0,0.0,0.0,0.0,0.0,0.0,0.0,0.0,-3.5764,-3.5625,-3.5898,-3.5187,-3.4371,-3.4909,-3.5387,-3.5797,-3.6211,-3.9518,-4.3152,-4.4395,-4.6348,-4.8179,-4.8963,-5.0964,-5.2318,-5.1268,-5.192,-5.2485,-5.1849,-5.2441,-5.334,0.0,-5.408,0.0,0.0,0.0,0.0,0.0,0.0,0.0,0.0,0.0,0.0,0.0,0.0,0.0,0.0,-6.1719,-6.2109,-6.2969,-6.3867,-6.4726,-6.5586,-6.6445,-6.6914,-6.6914,-6.75,-6.8672,-7.0312,-7.0586,-7.1172,-7.1992,-7.1992,-7.1992,-7.1992,-7.1992,-7.1992,-7.1992,-7.1992,-7.1992,-7.1992,-7.1992,-7.1992,-7.1992,0.0,0.0,0.0,0.0,0.0,0.0,0.0,0.0,0.0,0.0,0.0,0.0,0.0,0.0,0.0,0.0,0.0,0.0,-3.0379,-3.0467,-3.051,-3.0574,-3.0661,-3.0704,-3.071,-3.0698,-3.0685,-3.0619,-3.1481,-3.2335,-3.3196,-3.3147,-3.3981,-3.5468,-3.3699,-3.3353,-3.4122,-3.3237,-3.343,-3.4289,-3.4289,-3.3875,-3.3213,0.0,0.0,0.0,0.0,0.0,0.0,0.0,-3.5376,-3.4844,-3.5703,-3.4753,-3.3685,-3.5405,-3.6969,-3.7954,-3.7247,-4.0693,-4.4148,-4.2545,-4.5913,-4.9834,-5.0636,-4.9618,-4.9524,-5.3063,-5.3906,-5.3711,-5.2773,-5.1914,-5.1616,-5.2485,0.0,0.0,0.0,0.0,0.0,0.0,0.0,0.0,0.0,0.0,0.0,0.0,0.0,0.0,0.0,-6.1719,-6.2109,-6.2969,-6.3867,-6.4726,-6.5586,-6.6484,-6.6914,-6.6914,-6.6914,-6.7773,-6.9414,-7.0273,-7.1172,-7.1992,-7.1992,-7.1992,-7.1992,-7.1992,-7.1992,-7.1992,-7.1992,-7.1992,-7.1992,-7.1992,-7.1992,-7.1992,0.0,0.0,0.0,0.0,0.0,0.0,0.0,0.0,0.0,0.0,0.0,0.0,0.0,0.0,0.0,0.0,0.0,0.0,-2.9506,-2.956,-2.9632,-2.9757,-3.0325,-3.0629,-3.0698,-3.1186,-3.1503,-3.1504,-3.2276,-3.2798,-3.3083,-3.4263,-3.4083,-3.2852,-3.2891,-3.2391,-3.1545,-3.1929,-3.2237,-3.2608,-3.3887,-3.3946,-3.3271,0.0,0.0,0.0,0.0,0.0,0.0,0.0,0.0,0.0,-3.5195,-3.5507,-3.5959,-3.5873,-3.7332,-3.91,-3.9567,-4.3278,-4.6947,-4.655,-4.8928,-5.1408,-5.1659,-5.087,-5.0312,-5.0943,-5.3594,-5.5195,-5.3047,-5.2891,0.0,0.0,0.0,0.0,0.0,0.0,0.0,0.0,0.0,0.0,0.0,0.0,0.0,0.0,0.0,0.0,0.0,-6.2265,-6.3008,-6.3906,-6.4765,-6.5625,-6.6523,-6.6758,-6.6914,-6.6914,-6.7539,-6.8398,-6.9492,-6.9687,-7.0586,-7.1992,-7.1992,-7.1992,-7.1992,-7.1992,-7.1992,-7.1992,-7.1992,-7.1992,-7.1992,-7.1992,-7.1992,-7.1992,0.0,0.0,0.0,0.0,0.0,0.0,0.0,0.0,0.0,0.0,-3.0648,-3.0467,0.0,0.0,0.0,0.0,0.0,0.0,-2.9182,-2.9187,-2.9291,-2.9433,-3.0544,-3.1338,-3.1734,-3.2143,-3.2557,-3.2929,-3.2648,-3.2635,-3.2994,-3.3993,-3.3814,-3.2699,-3.3199,-3.266,-3.1429,-3.1621,-3.1698,-3.1888,-3.3364,-3.3672,-3.3353,0.0,0.0,0.0,0.0,0.0,0.0,0.0,0.0,0.0,-3.5664,-3.6093,-3.6632,-3.719,-3.9001,-4.1075,-4.2002,-4.5609,-4.9221,-4.9643,-5.1411,-5.2909,-5.2235,-5.2034,-5.1903,-5.1503,-5.3916,-5.5703,-5.4492,-5.4336,0.0,0.0,0.0,0.0,0.0,0.0,0.0,0.0,0.0,0.0,0.0,0.0,0.0,0.0,0.0,0.0,0.0,-6.2539,-6.3398,-6.4258,-6.5156,-6.6015,-6.6875,-6.6914,-6.6914,-6.6914,-6.7773,-6.8633,-6.9453,-6.9765,-7.0664,-7.1992,-7.1992,-7.1992,-7.1992,-7.1992,-7.1992,-7.1992,-7.1992,-7.1992,-7.1992,-7.1992,-7.1992,-7.1992,0.0,0.0,0.0,0.0,0.0,0.0,0.0,0.0,0.0,-3.1455,-3.0917,-3.0506,0.0,0.0,0.0,-3.0463,-2.9567,-2.9017,-2.9203,-2.9126,-2.9231,-2.9483,-3.1113,-3.2403,-3.3274,-3.334,-3.3666,-3.4392,-3.2673,-3.2199,-3.2929,-3.2891,-3.3237,-3.3853,-3.393,-3.3468,-3.2622,-3.1891,-3.1634,-3.1773,-3.2646,-3.3045,-3.3277,-3.4139,0.0,0.0,0.0,0.0,0.0,0.0,0.0,0.0,-3.6719,-3.6719,-3.6638,-3.9,-4.1366,-4.3481,-4.4568,-4.7722,-5.0933,-5.1895,-5.3395,-5.422,-5.2773,-5.323,-5.3902,-5.3515,-5.4492,-5.5586,-5.625,-5.5859,-5.5664,0.0,0.0,0.0,0.0,0.0,0.0,0.0,0.0,0.0,0.0,0.0,0.0,0.0,0.0,0.0,0.0,-6.2656,-6.3515,-6.4375,-6.5273,-6.6094,-6.6875,-6.6914,-6.6914,-6.6914,-6.7851,-6.8672,-6.9414,-7.0312,-7.1172,-7.1992,-7.1992,-7.1992,-7.1992,-7.1992,-7.1992,-7.1992,-7.1992,-7.1992,-7.1992,-7.1992,-7.1992,-7.1992,0.0,0.0,0.0,0.0,0.0,0.0,0.0,0.0,-2.9429,-2.966,-3.0121,-3.0467,-3.0506,-2.9852,0.0,-2.9574,-2.8154,-2.7544,-2.8324,-2.8326,-2.8667,-2.9476,-3.1193,-3.2558,-3.3378,-3.3994,-3.4054,-3.357,-3.3096,-3.2942,-3.3057,-3.2981,-3.2365,-3.1237,-3.1929,-3.1737,-3.0929,-3.0737,-3.0698,-3.0775,-3.1723,-3.21,-3.2213,-3.3128,-3.3834,0.0,0.0,0.0,0.0,0.0,0.0,0.0,-3.6367,-3.7927,-3.9841,-3.9735,-4.1928,-4.4793,-4.6912,-4.9106,-5.1298,-5.3433,-5.4703,-5.5357,-5.4989,-5.521,-5.4569,-5.1396,-5.3633,-5.582,-5.4765,-5.5508,0.0,0.0,0.0,0.0,0.0,0.0,0.0,0.0,0.0,0.0,0.0,0.0,0.0,0.0,0.0,0.0,-6.2695,-6.3555,-6.4414,-6.5273,-6.6172,-6.6719,-6.6914,-6.6914,-6.6914,0.0,-6.8437,-6.9219,-6.9414,-7.0312,-7.1172,-7.1992,-7.1992,-7.1992,-7.1992,-7.1992,-7.1992,-7.1992,-7.1992,-7.1992,-7.1992,-7.1992,-7.1992,-7.1992,0.0,0.0,0.0,0.0,0.0,0.0,0.0,0.0,-2.9436,-2.9175,-2.9533,-2.9852,-2.9952,-2.9178,0.0,0.0,-2.7527,-2.718,-2.8124,-2.8178,-2.9104,-3.1276,-3.2254,-3.3359,-3.4609,-3.4636,-3.4437,-3.3965,-3.3119,-3.2648,-3.2452,-3.2,-3.1299,-3.0417,-3.1314,-3.0994,-2.9867,-3.0686,-3.0571,-2.9944,-3.1249,-3.1749,-3.1877,-3.2822,-3.3451,-3.3934,-3.4372,0.0,0.0,0.0,0.0,0.0,0.0,0.0,-4.0461,-4.0876,-4.302,-4.5843,-4.8305,-5.018,-5.2026,-5.4472,-5.5395,-5.5703,-5.5703,-5.5742,-5.5229,-5.3207,-5.4656,-5.6064,-5.5273,0.0,0.0,0.0,0.0,0.0,0.0,0.0,0.0,0.0,0.0,0.0,0.0,0.0,0.0,0.0,0.0,-6.207,-6.2969,-6.3828,-6.4687,-6.5586,-6.6445,-6.6914,-6.6914,-6.6914,-6.6914,-6.6914,-6.8633,-6.9883,-7.0664,-7.1133,-7.1562,-7.1992,-7.1992,-7.1992,-7.1992,-7.1992,-7.1992,-7.1992,-7.1992,-7.1992,-7.1992,-7.1992,-7.1992,-7.1992,0.0,0.0,0.0,0.0,0.0,0.0,0.0,0.0,0.0,-2.8989,-2.906,-2.922,-2.9357,-2.845,-2.7873,0.0,0.0,0.0,-2.798,-2.8294,-2.9925,-3.3242,-3.3398,-3.4219,-3.5976,-3.5156,-3.4648,-3.4492,-3.2962,-3.1936,-3.1352,-3.0636,-3.0337,-3.0417,-3.0852,-3.0379,-2.9306,-3.0533,-3.0328,-2.9344,-3.0725,-3.1403,-3.1684,-3.2377,-3.2813,-3.3068,-3.3814,-3.4301,-3.4713,-3.5468,0.0,0.0,0.0,0.0,-3.9802,-4.1284,-4.3233,-4.5398,-4.775,-5.0113,-5.2483,-5.5066,-5.5703,-5.5703,-5.5703,-5.5703,-5.5742,-5.5818,-5.6007,-5.6191,0.0,0.0,0.0,0.0,0.0,0.0,0.0,0.0,0.0,0.0,0.0,0.0,0.0,0.0,0.0,0.0,0.0,-6.2148,-6.3164,-6.3906,-6.4765,-6.5781,-6.6523,-6.6914,-6.6914,-6.6914,-6.6914,-6.6914,-6.8672,-7.039,-7.1992,-7.1992,-7.1992,-7.1992,-7.1992,-7.1992,-7.1992,-7.1992,-7.1992,-7.1992,-7.1992,-7.1992,-7.1992,-7.1992,-7.1992,-7.1992,0.0,0.0,0.0,0.0,0.0,0.0,0.0,0.0,0.0,0.0,-2.8591,-2.9143,-2.9214,-2.7759,-2.6872,-2.6969,-2.6141,-2.5997,-2.6951,0.0,0.0,-3.3203,-3.3359,-3.4219,-3.5976,-3.5156,-3.4336,-3.3555,-3.2655,-3.1348,-2.9702,-2.9592,-2.9886,-3.0429,-2.9044,-2.8725,-2.9229,-2.8703,-2.8779,-2.9306,-2.9548,-3.0059,-3.0775,-3.0891,-3.1415,-3.2081,-3.2274,-3.3299,-3.4621,-3.4783,-3.5859,0.0,0.0,0.0,-3.8789,-3.9021,-3.9879,-4.1055,-4.2739,-4.7026,-5.1732,-5.4912,-5.5703,-5.5703,-5.5703,-5.5703,-5.5703,0.0,-5.5843,0.0,0.0,0.0,0.0,0.0,0.0,0.0,0.0,0.0,0.0,0.0,0.0,0.0,0.0,0.0,0.0,0.0,-6.1719,-6.2422,-6.4023,-6.4258,-6.5039,-6.668,-6.6836,-6.6914,-6.6914,-6.6914,-6.6914,-6.6914,-6.8672,-7.039,-7.1992,-7.1992,-7.1992,-7.1992,-7.1992,-7.1992,-7.1992,-7.1992,-7.1992,-7.1992,-7.1992,-7.1992,-7.1992,-7.1992,-7.1992,-7.1992,0.0,0.0,0.0,0.0,0.0,0.0,0.0,0.0,0.0,0.0,0.0,-2.8247,-2.7796,-2.7054,-2.6428,-2.6053,-2.5648,-2.5824,-2.68,-2.8533,-3.0278,-3.1875,-3.2461,-3.3281,-3.4531,-3.3711,-3.3125,-3.2734,-3.1875,-3.0772,-2.9445,-2.896,-2.8587,-2.8341,-2.7572,-2.7225,-2.7264,-2.7825,-2.8293,-2.8724,-2.9133,-3.0419,-3.1956,-3.097,-3.1443,-3.2585,-3.2111,-3.2473,-3.3287,-3.4292,-3.4866,-3.5351,-3.6836,0.0,0.0,0.0,-3.8867,-3.9839,-4.2821,-4.7496,-5.1984,-5.393,-5.5066,-5.5703,-5.5703,-5.5703,-5.5703,-5.5703,0.0,0.0,0.0,0.0,0.0,0.0,0.0,0.0,0.0,0.0,0.0,0.0,0.0,0.0,0.0,0.0,0.0,0.0,-6.2148,-6.2969,-6.4219,-6.4765,-6.5586,-6.6875,-6.6914,-6.6914,-6.6914,-6.6914,-6.7383,-6.832,-6.9101,-7.039,-7.1992,-7.1992,-7.1992,-7.1992,-7.1992,-7.1992,-7.1992,-7.1992,-7.1992,-7.1992,-7.1992,-7.1992,-7.1992,-7.1992,-7.1992,-7.1992,0.0,0.0,0.0,0.0,0.0,0.0,0.0,0.0,0.0,0.0,0.0,-2.7582,-2.6697,0.0,0.0,0.0,-2.5428,-2.5851,-2.682,-2.8163,-2.9494,-3.0785,-3.1481,-3.2344,-3.3398,-3.2617,-3.2187,-3.2187,-3.1328,-3.0307,-2.9172,-2.8481,-2.7557,-2.6418,-2.641,-2.6241,-2.6033,-2.7038,-2.7745,-2.832,-2.9299,-3.1144,-3.3141,-3.2279,-3.279,-3.3769,-3.2673,-3.2448,-3.283,-3.3723,-3.3885,-3.4062,-3.6016,-3.6367,0.0,0.0,0.0,-3.8867,-4.3008,-4.6816,-5.0152,-5.2528,-5.3968,-5.4951,-5.5588,-5.5703,-5.5703,0.0,0.0,0.0,0.0,0.0,0.0,0.0,0.0,0.0,0.0,0.0,0.0,0.0,0.0,0.0,0.0,0.0,0.0,0.0,-6.2473,-6.331,-6.4122,-6.4984,-6.5883,-6.6742,-6.6781,-6.6789,-6.6836,-6.6875,-6.7734,-6.9414,-6.9492,-7.039,-7.1992,-7.1992,-7.1992,-7.1992,-7.1992,-7.1992,-7.1992,-7.1992,-7.1992,-7.1992,-7.1992,-7.1992,-7.1992,-7.1992,-7.1992,-7.1992,0.0,0.0,0.0,0.0,0.0,0.0,0.0,0.0,0.0,0.0,0.0,-2.7582,-2.6697,-2.6649,-2.6341,-2.5466,-2.5466,-2.5884,-2.6767,-2.6931,-2.8124,-3.059,-3.0884,0.0,-3.3359,-3.2617,-3.2187,-3.2187,-3.1328,-3.0,-2.8281,-2.8223,-2.7287,-2.563,-2.5609,-2.6087,-2.6872,-2.6054,-2.674,-2.8437,-3.0156,-3.1836,-3.3554,-3.5117,-3.5781,-3.5625,-3.3945,-3.3866,-3.4335,-3.2811,-3.3359,-3.4648,-3.4805,-3.5351,-3.6016,0.0,0.0,0.0,-4.1211,-4.2538,-4.425,-5.0738,-5.2329,-5.2927,-5.5357,-5.578,-5.5703,0.0,0.0,0.0,0.0,0.0,0.0,0.0,0.0,0.0,0.0,0.0,0.0,0.0,0.0,0.0,0.0,0.0,0.0,0.0,-6.2329,-6.3088,-6.3806,-6.4648,-6.5516,-6.6412,-6.6412,-6.6494,-6.6601,-6.6797,-6.7773,-6.9492,-6.9492,-7.039,-7.1992,-7.1992,-7.1992,-7.1992,-7.1992,-7.1992,-7.1992,-7.1992,-7.1992,-7.1992,-7.1992,-7.1992,-7.1992,-7.1992,-7.1992,-7.1992,0.0,0.0,0.0,0.0,0.0,0.0,0.0,0.0,0.0,0.0,0.0,0.0,0.0,-2.6687,-2.6371,-2.555,-2.552,-2.5707,-2.6025,-2.6612,-2.7605,-2.9117,-2.9757,-3.0625,-3.1758,-3.1523,-3.1367,-3.1367,-3.1055,-3.0,-2.8242,-2.8259,-2.7334,-2.5669,-2.5558,-2.6041,-2.6893,-2.5945,-2.6887,-2.9296,-3.2065,-3.4554,-3.6725,-3.79,-3.8711,-3.9062,-3.7969,-3.6664,-3.5823,-3.7995,-3.691,-3.4921,-3.6578,-3.6181,-3.5189,-3.566,-3.6274,-3.7303,-3.9837,-4.1741,-4.3862,-4.7323,-4.938,-5.0813,-5.17,-5.3119,-5.4237,0.0,0.0,0.0,0.0,0.0,0.0,0.0,0.0,0.0,0.0,0.0,0.0,0.0,0.0,0.0,0.0,0.0,0.0,0.0,0.0,-6.3546,-6.3784,-6.5157,-6.6067,-6.6397,-6.6397,-6.6428,-6.6455,-6.7071,-6.7929,-6.9099,-6.9683,-7.055,-7.1681,-7.1681,-7.1681,-7.1681,-7.1681,-7.1743,-7.1797,-7.1689,-7.1681,-7.1681,-7.1681,-7.1719,-7.1797,-7.1797,-7.1875,-7.1992,0.0,0.0,0.0,0.0,0.0,0.0,0.0,0.0,-2.77,-2.796,0.0,0.0,0.0,0.0,-2.6428,-2.5652,-2.559,-2.5648,-2.5648,-2.6501,-2.7383,-2.8242,-2.9141,-3.0156,-3.1328,-3.0742,-3.0742,-3.1328,-3.0742,-2.9883,-2.875,-2.875,-2.7947,-2.6553,-2.6469,-2.645,-2.648,-2.6133,-2.7179,-2.9402,-3.3016,-3.535,-3.6933,-3.9216,-4.0062,-4.014,-4.0546,-3.9572,-3.8537,-4.1731,-4.0324,-3.7409,-3.8477,-3.7049,-3.5072,-3.5601,-3.6416,-3.7448,-3.8821,-4.0657,-4.2811,-4.5311,-4.6977,-4.837,-4.986,-5.1664,-5.3127,0.0,0.0,0.0,0.0,0.0,0.0,0.0,0.0,0.0,0.0,0.0,0.0,0.0,0.0,0.0,0.0,0.0,0.0,0.0,0.0,0.0,-6.3617,-6.5013,-6.5961,-6.623,-6.6307,-6.6306,-6.6312,-6.6916,-6.779,-6.8915,-6.9497,-7.0368,-7.1511,-7.1511,-7.1511,-7.1511,-7.1415,-7.1507,-7.1645,-7.1549,-7.1511,-7.1511,-7.1511,-7.1559,-7.1642,-7.163,-7.1724,-7.1846,0.0,0.0,0.0,0.0,0.0,0.0,-3.1016,-3.0079,-2.9168,-2.826,0.0,0.0,0.0,0.0,0.0,-2.5742,-2.5703,-2.5703,-2.5742,-2.6523,-2.7383,-2.8281,-2.9141,-3.043,-3.2148,-3.0508,-3.0469,-3.2187,-3.0469,-2.9648,-2.9609,-2.9609,-2.9141,-2.8281,-2.8242,-2.7296,-2.5842,-2.6672,-2.7561,-2.8723,-3.299,-3.4246,-3.4108,-3.9122,-4.0023,-3.9031,-4.1665,-4.2532,-4.2649,-4.3644,-4.3261,-4.2086,-4.0191,-3.7795,-3.5738,-3.5892,-3.6454,-3.7209,0.0,0.0,0.0,-4.4901,-4.5232,-4.5653,-5.0038,0.0,0.0,0.0,0.0,0.0,0.0,0.0,0.0,0.0,0.0,0.0,0.0,0.0,0.0,0.0,0.0,0.0,0.0,0.0,0.0,0.0,-6.1781,-6.2589,-6.3281,-6.4166,-6.5013,-6.5859,-6.6013,-6.609,-6.609,-6.6307,-6.7244,-6.8883,-6.8921,-6.9833,-7.1503,-7.1503,-7.1503,-7.1464,-7.1283,-7.1283,-7.1503,-7.1503,-7.1503,-7.1503,-7.1503,-7.1503,-7.1506,-7.1469,-7.151,-7.151,0.0,0.0,0.0,0.0,0.0,-3.293,-3.2695,-3.1911,-3.1239,0.0,0.0,0.0,-2.7873,-2.6712,-2.5931,-2.5703,-2.5703,-2.5977,-2.6602,-2.6875,-2.7656,-2.918,-2.9453,-3.043,-3.2148,-3.1094,-3.1094,-3.2187,-3.1094,-3.0234,-2.9609,-2.9609,-2.9141,-2.8281,-2.8281,-2.8003,-2.7585,-2.7735,-2.8642,-3.0386,-3.5212,-3.808,-3.9999,-4.453,-4.6694,-4.7519,0.0,-4.8361,-4.7216,0.0,-4.7144,-4.1696,-3.8083,-3.6367,-3.5815,-3.6496,-3.692,-3.7459,-3.8869,0.0,0.0,0.0,0.0,0.0,0.0,0.0,0.0,0.0,0.0,0.0,0.0,0.0,0.0,0.0,0.0,0.0,0.0,0.0,0.0,0.0,0.0,0.0,0.0,0.0,0.0,0.0,-6.1666,-6.2474,-6.3281,-6.4705,-6.5628,-6.5897,-6.5936,-6.5936,-6.5936,-6.659,-6.7475,-6.8564,-6.9179,-7.0052,-7.1052,-7.1052,-7.1052,-7.1052,-7.1014,-7.1014,-7.1052,-7.1052,-7.1052,-7.1052,-7.1052,-7.1129,-7.1272,-7.126,-7.1371,-7.1487,0.0,0.0,-3.5234,-3.5234,-3.4531,-3.3945,-3.3945,-3.3203,-3.2614,0.0,0.0,0.0,-2.8249,-2.6964,-2.6171,-2.6158,-2.5853,-2.6019,-2.6914,-2.7305,-2.8117,-2.9489,-2.9912,-3.0742,-3.2109,-3.1328,-3.1328,-3.2187,-3.1328,-3.0625,-3.0156,-3.0156,-2.9883,-2.9375,-2.9375,-2.9375,-2.9375,-2.9283,-2.9931,-3.1374,-3.5842,-3.845,-4.0176,-4.5225,-4.7353,0.0,0.0,0.0,-4.9062,-5.3374,-5.0389,-4.4089,-3.9486,-3.7725,-3.7224,-3.6691,-3.7346,-3.8334,-3.8926,-3.9652,-4.0409,-4.1262,0.0,0.0,-4.438,-4.5423,0.0,0.0,0.0,0.0,0.0,0.0,0.0,0.0,0.0,0.0,0.0,0.0,0.0,0.0,0.0,0.0,0.0,0.0,-6.0781,-6.0781,-6.1281,-6.205,-6.3243,-6.4936,-6.5897,-6.5897,-6.5897,-6.5897,-6.5897,-6.6359,-6.7013,-6.7859,-6.8744,-6.959,-7.0398,-7.0744,-7.0898,-7.0898,-7.0898,-7.0898,-7.0898,-7.0898,-7.0898,-7.0898,-7.0898,-7.0975,-7.1052,-7.1052,-7.1129,-7.1245,0.0,0.0,-3.6016,-3.6133,-3.5508,-3.5,-3.4995,-3.4329,-3.3727,0.0,-3.1845,-3.0058,-2.834,-2.7491,-2.701,-2.6943,-2.6312,-2.6265,-2.71,-2.7923,-2.8723,-2.9589,-3.0429,-3.1247,-3.1992,-3.1367,-3.1484,-3.2344,-3.1484,-3.1094,-3.1172,-3.0976,-3.0937,-3.1055,-3.1055,-3.0976,-3.0898,-3.1016,-3.1444,-3.2365,-3.5894,-3.7295,-3.8001,0.0,-4.553,-4.5127,-5.0568,-5.1068,-4.977,-5.3922,-5.2433,-4.7854,-4.2654,-4.0567,-3.9565,-3.7196,-3.8044,-3.9619,-3.8903,-3.9764,-4.104,-4.1793,-4.1467,0.0,-4.3996,-4.5065,0.0,0.0,0.0,0.0,0.0,0.0,0.0,0.0,0.0,0.0,0.0,0.0,0.0,0.0,0.0,0.0,0.0,-6.0858,-6.0781,-6.0781,-6.0973,-6.1743,-6.3243,-6.4936,-6.5897,-6.5897,-6.5897,-6.5897,-6.5897,-6.5897,-6.6282,-6.709,-6.7975,-6.8859,-6.9744,-7.0514,-7.0898,-7.0898,-7.0898,-7.0898,-7.0898,-7.0898,-7.0898,-7.0898,-7.0898,-7.0898,-7.0898,-7.0898,-7.0898,-7.0898,-3.5976,-3.6016,-3.6211,-3.6914,-3.6914,-3.678,-3.6794,-3.6605,-3.5952,-3.4518,-3.2166,-3.0209,-2.9159,-2.8338,-2.786,-2.784,-2.7752,-2.8029,-2.8788,-2.9071,-2.9571,-3.0334,-3.0604,-3.1145,-3.1992,-3.1953,-3.2344,-3.3164,-3.2344,-3.2266,-3.2891,-3.1523,-3.1289,-3.1953,-3.1953,-3.1562,-3.0937,-3.1641,-3.3405,-3.5881,-3.813,-4.0745,-4.3847,-4.8777,-5.1557,-5.2982,-5.4485,-5.4762,-5.3974,-5.0989,-5.022,-4.9387,-4.2997,-4.1796,-4.2417,-4.0689,-4.0496,-4.0856,-4.0703,-4.1326,-4.187,-4.1347,-4.2071,0.0,-4.3525,-4.3202,0.0,0.0,0.0,0.0,0.0,0.0,0.0,0.0,0.0,0.0,0.0,0.0,0.0,0.0,0.0,0.0,0.0,-6.0858,-6.0781,-6.0781,-6.205,-6.2974,-6.3281,-6.4936,-6.5897,-6.5897,-6.5897,-6.5897,-6.5897,-6.5897,-6.6282,-6.709,-6.7975,-6.8859,-6.9744,-7.0514,-7.0898,-7.0898,-7.0898,-7.0898,-7.0898,-7.0898,-7.0898,-7.0898,-7.0898,-7.0898,-7.0898,-7.0898,-7.0898,-7.0898,-3.6055,-3.6719,-3.7305,-3.7305,-3.7656,-3.7786,-3.7385,-3.7242,-3.6727,-3.5416,-3.3276,-3.1506,-3.0597,-2.9382,-2.8632,-2.8595,-2.8338,-2.8473,-2.9205,-2.9378,-2.9764,-3.0509,-3.0623,-3.0857,-3.1295,-3.2262,-3.2773,-3.2812,-3.3242,-3.3242,-3.2773,-3.1953,-3.2226,-3.3398,-3.2109,-3.1992,-3.2773,-3.2756,-3.407,-3.6423,-3.9089,0.0,-4.6282,-5.0849,-5.3212,-5.4311,-5.5352,-5.5742,-5.5088,-5.0587,-4.962,0.0,-4.5891,-4.4181,-4.3359,-4.207,-4.1758,-4.1601,-4.0781,-4.1085,-4.1665,-4.1647,-4.1876,0.0,0.0,0.0,0.0,0.0,0.0,0.0,0.0,0.0,0.0,0.0,0.0,0.0,0.0,0.0,0.0,0.0,0.0,0.0,0.0,-6.0935,-6.0973,-6.1396,-6.2589,-6.3512,-6.3935,-6.5205,-6.5897,-6.5897,-6.5897,-6.5897,-6.5897,-6.5897,-6.609,-6.6513,-6.7782,-6.8629,-6.909,-7.0321,-7.0898,-7.0898,-7.0898,-7.0898,-7.0898,-7.0898,-7.0898,-7.0898,-7.0898,-7.0898,-7.0898,-7.0898,-7.0898,-7.0898,-3.6171,-3.7383,-3.832,-3.7461,-3.8008,-3.8302,-3.7414,-3.7244,-3.6804,-3.5776,-3.4481,-3.3338,-3.254,-3.1268,-3.0502,-3.0549,-2.9967,-2.9718,-2.9907,-3.0047,-3.0386,-3.0956,-3.0737,-3.0809,-3.1312,-3.2622,-3.3081,-3.2651,-3.4018,-3.406,-3.2891,-3.2578,-3.3242,-3.4609,-3.2891,-3.3082,-3.4651,-3.4415,-3.5418,-3.7433,0.0,-4.3285,-4.6111,-5.1058,-5.2717,-5.267,-5.5083,-5.6049,-5.5588,-5.1607,-5.0547,-5.0521,-4.8529,-4.6511,-4.4501,-4.2733,-4.2422,-4.2266,-4.0625,-4.082,-4.1589,-4.1966,-4.1798,-4.1798,0.0,0.0,0.0,0.0,0.0,0.0,0.0,0.0,0.0,0.0,0.0,0.0,0.0,0.0,0.0,0.0,0.0,0.0,0.0,-6.055,-6.0973,-6.2012,-6.2704,-6.3512,-6.4551,-6.5436,-6.5897,-6.5897,-6.5897,-6.5897,-6.5897,-6.5897,-6.5897,-6.5897,-6.759,-6.8398,-6.8475,-7.0129,-7.0898,-7.0898,-7.0898,-7.0898,-7.0898,-7.0898,-7.0898,-7.0898,-7.0898,-7.0898,-7.0898,-7.0898,-7.0898,-7.0898,-3.6282,-3.7383,-3.832,-3.7461,-3.8008,-3.832,-3.7416,-3.7256,-3.6573,-3.4864,-3.5147,-3.5433,-3.519,-3.5103,-3.5271,-3.5775,-3.5321,-3.4338,-3.2673,-3.2709,-3.2736,-3.2712,-3.1302,-3.158,-3.3836,-3.3433,-3.3562,-3.4224,-3.4419,-3.4835,-3.5469,-3.3906,-3.3711,-3.4766,-3.6016,-3.5821,-3.4735,-3.691,-3.9621,-4.2693,-4.4442,-4.3836,0.0,-4.9444,-5.0941,-5.0058,-5.5048,-5.7357,-5.7473,0.0,-5.378,-5.3995,-4.805,-4.7492,-4.8128,-4.3677,-4.293,-4.3203,-4.1523,-4.2148,-4.2968,-4.1517,-4.2694,-4.3695,-4.1596,0.0,-4.2005,-4.1596,0.0,0.0,0.0,0.0,0.0,0.0,0.0,0.0,0.0,0.0,0.0,0.0,0.0,0.0,0.0,0.0,-6.0319,-6.1973,-6.2166,-6.2935,-6.4512,-6.5436,-6.5897,-6.5897,-6.5897,-6.5897,-6.5897,-6.5897,-6.5897,-6.5897,-6.759,-6.8398,-6.8475,-7.0129,-7.0898,-7.0898,-7.0898,-7.0898,-7.0898,-7.0898,-7.0898,-7.0898,-7.0898,-7.0898,-7.0898,-7.0898,-7.0898,-7.0898,-3.7725,-3.8906,-3.9687,-3.8281,-3.8789,-3.8906,-3.75,-3.6804,-3.6158,-3.533,-3.5108,-3.4994,-3.4876,-3.4047,-3.4218,-3.5927,-3.5907,-3.5633,0.0,-3.4711,-3.4396,-3.4496,-3.166,-3.1398,-3.4366,-3.3434,-3.3439,-3.4494,-3.4958,-3.5146,-3.5088,-3.433,-3.4718,-3.6095,-3.7276,-3.8236,-3.9045,-4.0531,-4.1165,-4.1322,0.0,0.0,0.0,-4.9601,-5.2548,-5.2614,-5.5846,-5.755,-5.8066,0.0,-5.5011,0.0,-5.2619,-4.9795,-4.6744,-4.6066,-4.4507,-4.2884,-4.2606,-4.3412,-4.4122,-4.3388,-4.3976,-4.4227,-4.2197,-4.1647,-4.1608,-4.1651,0.0,0.0,0.0,0.0,0.0,0.0,-4.6232,0.0,0.0,0.0,0.0,0.0,0.0,0.0,0.0,0.0,0.0,0.0,0.0,-6.144,-6.3169,-6.4949,-6.5897,-6.5897,-6.5897,-6.5897,-6.5897,-6.5897,-6.5897,-6.5897,-6.709,-6.7898,-6.8436,-6.9667,-7.0475,-7.0898,-7.0898,-7.0898,-7.0898,-7.0898,-7.0898,-7.0898,-7.0898,-7.0898,-7.0898,-7.0898,-7.0898,-7.0898,-3.8979,-3.9919,-4.0235,-3.8514,-3.869,-3.8584,-3.71,-3.6264,-3.581,-3.5753,-3.5437,-3.5282,-3.5385,-3.4569,-3.4992,-3.7422,-3.7999,-3.8461,0.0,0.0,-3.6857,-3.8097,-3.3234,-3.2308,-3.6108,-3.4347,-3.3834,-3.4787,-3.5297,-3.5412,-3.5133,-3.4912,-3.5715,-3.7372,-3.7969,-3.9786,-4.2451,-4.322,-4.3316,-4.3044,-4.4858,-4.4669,-4.3982,-5.0023,-5.3272,-5.4869,-5.6681,-5.7604,-5.8004,-5.795,-5.5934,-5.3666,-5.4934,-5.1383,-4.7021,-4.8079,-4.6488,-4.4436,-4.4481,-4.4844,-4.515,-4.5148,-4.4667,-4.3906,-4.2969,-4.2109,-4.168,-4.2226,-4.2109,0.0,0.0,0.0,-4.3735,-4.3899,0.0,-4.6538,0.0,0.0,0.0,0.0,0.0,0.0,0.0,0.0,0.0,0.0,0.0,0.0,-6.2145,-6.3962,-6.5218,-6.5859,-6.5897,-6.5897,-6.5897,-6.5897,-6.5897,-6.5897,-6.6705,-6.7552,-6.8436,-6.9321,-7.0129,-7.0898,-7.0898,-7.0898,-7.0898,-7.0898,-7.0898,-7.0898,-7.0898,-7.0898,-7.0898,-7.0898,-7.0898,-7.0898,-3.9523,-3.9711,-3.9212,-3.7552,-3.7162,-3.6794,-3.5892,-3.5736,-3.5756,-3.5893,-3.6601,-3.7377,0.0,0.0,-4.0352,-4.2656,0.0,-4.4569,-4.4444,0.0,-4.0791,-4.4424,-3.6898,-3.5092,-4.0398,-3.6969,-3.5245,-3.5455,-3.5239,-3.5698,-3.6801,-3.5968,-3.6521,-3.8267,-3.8298,-4.012,-4.3226,-4.4106,-4.7172,-5.149,-5.1587,-5.2162,-5.2696,0.0,-5.171,-5.4924,-5.7373,0.0,0.0,-5.7104,-5.6934,-5.6165,-5.2221,-5.1413,-5.1433,-4.9084,-4.8904,-4.9109,-4.7504,-4.6583,-4.6071,-4.6049,-4.4238,-4.2695,-4.3476,-4.3008,-4.2383,-4.2383,-4.3047,-4.3633,-4.3632,-4.3633,-4.3867,-4.4648,-4.4787,0.0,0.0,0.0,0.0,0.0,0.0,0.0,0.0,0.0,0.0,0.0,0.0,0.0,-6.2054,-6.2375,-6.3476,-6.582,-6.5897,-6.5897,-6.5897,-6.5897,-6.5897,-6.5897,-6.6705,-6.7552,-6.8436,-6.9321,-7.0129,-7.0898,-7.0898,-7.0898,-7.0898,-7.0898,-7.0898,-7.0898,-7.0898,-7.0898,-7.0898,-7.0898,-7.0898,-7.0898,-4.0508,-4.0,-3.9374,-3.8859,-3.8286,-3.7769,-3.7448,-3.6511,-3.6629,0.0,0.0,0.0,0.0,-4.1023,-4.1785,0.0,0.0,-4.6795,-4.7302,-4.4422,0.0,0.0,0.0,-3.7204,0.0,-3.8376,-3.6292,-3.5493,-3.6293,-3.6714,-3.6762,-3.7046,-3.7199,-3.7329,-3.9616,-4.2208,-4.4995,-4.631,-4.8251,-5.0427,-5.035,-5.0214,-5.0347,0.0,-5.4024,-5.4924,-5.7412,-5.8143,0.0,-5.8489,-5.7511,-5.5972,-5.5164,-5.3238,-5.118,-5.0912,-4.9889,-4.9062,-5.0138,-5.0683,-5.0816,-5.0317,-4.871,-4.676,-4.4958,-4.3437,-4.2383,-4.2383,-4.3086,-4.4062,-4.5195,-4.4922,-4.5,-4.6406,-4.6146,-4.5858,0.0,0.0,0.0,0.0,0.0,0.0,0.0,0.0,0.0,0.0,0.0,0.0,0.0,-6.1125,-6.313,-6.4974,-6.559,-6.5897,-6.5897,-6.5897,-6.5897,-6.5897,-6.6167,-6.6744,-6.7552,-6.8436,-6.9321,-7.0129,-7.0667,-7.0898,-7.0898,-7.0898,-7.0898,-7.0898,-7.0898,-7.0898,-7.0898,-7.0898,-7.0898,-7.0898,-4.0562,-3.9946,-3.9484,-3.9499,-3.883,-3.845,-3.9057,-3.8581,0.0,0.0,-4.1168,0.0,-4.3228,0.0,-4.4394,0.0,-4.8271,-4.9035,-4.9549,-4.6937,0.0,-4.9129,-4.2552,0.0,0.0,-4.0714,-3.8422,-3.7332,-3.7483,-3.7572,-3.7623,-3.7892,-3.8007,-3.8137,-3.9751,-4.2442,-4.5889,-4.7156,-4.8657,-5.0155,-5.0057,-5.0095,0.0,0.0,-5.3859,-5.2883,0.0,-5.745,-5.7143,-5.8242,-5.7511,-5.6203,-5.6472,-5.472,-5.2641,-5.3217,-5.2483,-5.1732,-5.3042,-5.3596,-5.3797,-5.3639,-5.1865,-4.9711,-4.8041,-4.6562,-4.5547,-4.5586,-4.5586,-4.6055,-4.7812,-4.6641,-4.5937,-4.7383,-4.6865,-4.6313,0.0,-4.6314,0.0,0.0,0.0,0.0,0.0,0.0,0.0,0.0,0.0,0.0,0.0,0.0,-6.24,-6.5397,-6.5743,-6.6051,-6.632,-6.6051,-6.5897,-6.5897,-6.5897,-6.632,-6.7128,-6.7667,-6.8398,-6.9283,-7.0129,-7.0475,-7.0514,-7.0783,-7.0898,-7.0898,-7.0898,-7.0898,-7.0898,-7.0898,-7.0898,-7.0898,-3.9877,-3.9762,-3.9723,-3.9561,-3.8907,-3.8968,-4.0634,0.0,-4.221,0.0,-4.4559,-4.553,-4.3933,-4.6094,-4.8309,-4.988,-5.0906,-5.144,-5.1354,-4.8782,0.0,0.0,-4.5955,-4.4785,-4.75,0.0,0.0,-4.071,-3.8689,-3.824,-3.9277,-3.8469,-3.8931,-4.0369,-3.8777,-4.0925,-4.5792,-4.6482,-4.8458,-5.1118,-5.1195,-5.206,-5.328,-5.3459,-5.1447,-4.9307,-5.4968,-5.5989,-5.4908,-5.6472,-5.6973,-5.678,-5.5972,-5.5742,-5.5742,-5.5742,-5.6357,-5.6896,-5.6088,-5.5369,-5.5055,-5.5868,-5.364,-5.1502,-5.2407,-5.1913,-5.1288,-5.1445,-5.0234,-4.9648,-5.1289,-4.8789,-4.6797,-4.7656,-4.6953,-4.6289,-4.6289,-4.6289,0.0,0.0,0.0,0.0,0.0,0.0,0.0,0.0,0.0,0.0,0.0,0.0,-6.1184,-6.6705,-6.6167,-6.6167,-6.6898,-6.6205,-6.582,-6.5782,-6.5897,-6.632,-6.7051,-6.709,-6.7552,-6.8398,-6.9244,-6.9667,-6.9744,-7.0514,-7.086,-7.0898,-7.0898,-7.0898,-7.0898,-7.0898,-7.0898,-7.0898,-4.1316,-4.1816,-4.2085,-4.1748,-4.1362,-4.1647,0.0,0.0,0.0,0.0,-4.5454,-4.6346,-4.8527,-5.0275,-5.1716,-5.28,-5.3647,0.0,0.0,0.0,0.0,-5.2773,-4.8681,-4.6995,-4.8359,-4.5222,-4.2625,-4.0691,-3.9888,-3.9409,-3.9315,-3.9662,-3.9792,-3.9638,-3.9215,-4.1299,-4.5121,-4.5228,-4.8174,-5.2862,-5.4033,-5.3302,-5.1725,0.0,-5.3472,-5.165,-5.5583,-5.6319,-5.5566,-5.6626,-5.6549,-5.5972,-5.578,-5.6126,-5.6665,-5.6665,-5.728,-5.805,-5.8434,-5.8373,-5.8312,-5.8642,-5.6665,-5.4554,-5.428,-5.3068,-5.2044,-5.2184,-5.2383,-5.2891,-5.4062,-5.1484,-4.9453,-5.0273,-4.8086,-4.6289,-4.6289,0.0,0.0,-4.6289,0.0,0.0,0.0,0.0,0.0,0.0,0.0,0.0,0.0,0.0,0.0,-6.3386,-6.4052,-6.4372,-6.4424,-6.4885,-6.477,-6.4155,-6.591,-6.659,-6.6244,-6.6821,-6.7205,-6.7475,-6.8359,-6.909,-6.9706,-6.9937,-7.036,-7.0898,-7.0898,-7.0898,-7.0898,-7.0898,-7.0898,-7.0898,-4.2008,-4.2431,-4.2842,-4.289,-4.3081,-4.3866,-4.5741,-4.5967,0.0,-4.838,-4.922,0.0,-5.1343,-5.3191,-5.4528,-5.503,-5.5119,0.0,-5.332,0.0,0.0,-5.223,-5.0605,-4.9766,-4.9883,-4.7442,0.0,-4.3042,-4.1997,-4.091,-3.9815,-4.0369,-4.0369,-3.9961,-3.9998,-4.1416,-4.3891,-4.5664,-4.8688,-5.2509,-5.4087,-5.4051,0.0,-5.507,-5.5369,-5.5039,-5.6912,-5.7242,-5.6857,-5.6934,-5.6934,-5.6857,-5.6857,-5.7165,-5.755,-5.755,-5.8165,-5.8934,-5.9396,-5.9781,-6.0089,-6.0142,-5.9119,-5.7843,-5.709,-5.6212,-5.5668,-5.6197,-5.5818,-5.5899,-5.7695,0.0,-5.0312,-4.9336,-4.7578,-4.6289,-4.6289,0.0,0.0,0.0,-4.7187,0.0,0.0,0.0,0.0,0.0,0.0,0.0,0.0,0.0,0.0,-6.3884,-6.3892,-6.3537,-6.307,-6.496,-6.5288,-6.4103,-6.6526,-6.7244,-6.6436,-6.6898,-6.6898,-6.6628,-6.7475,-6.8321,-6.9167,-6.9552,-7.0167,-7.0898,-7.0898,-7.0898,-7.0898,-7.0898,-7.0898,-7.0898,-4.2376,-4.2552,-4.2929,-4.3404,-4.4348,-4.576,0.0,-4.984,0.0,-5.1347,0.0,-5.442,-5.2854,-5.5038,-5.6553,-5.642,0.0,-5.4702,-5.297,-5.3647,-5.3108,-5.076,-5.2074,-5.2455,-5.1601,-4.9805,-4.7918,0.0,-4.4191,-4.2341,-4.0508,-4.0639,-4.0708,-4.0728,-4.0809,-4.1616,-4.3237,-4.7223,-4.9953,-5.1798,-5.3475,-5.4978,-5.6191,-5.6191,-5.7159,-5.8434,-5.8357,-5.8319,-5.8165,-5.7434,-5.7665,-5.8319,-5.8319,-5.8357,-5.8473,-5.8473,-5.905,-5.9665,-5.9665,-6.0204,-6.0781,-6.0781,-6.0781,-6.0627,-5.9988,-5.995,-6.0296,-6.1156,-5.9688,-5.8919,-6.1213,0.0,-5.0781,-4.7461,-4.6758,0.0,0.0,0.0,0.0,0.0,0.0,0.0,0.0,0.0,0.0,0.0,0.0,0.0,0.0,0.0,0.0,-6.5122,-6.4268,-6.3265,-6.2385,0.0,-6.6574,-6.4922,-6.7384,-6.8129,-6.7321,-6.7282,-6.6898,-6.6282,-6.6974,-6.7705,-6.8475,-6.936,-7.0167,-7.0898,-7.0898,-7.0898,-7.0898,-7.0898,-7.0898,-7.0898,-4.3398,-4.3899,-4.4159,-4.3957,-4.5507,-4.7477,-4.9363,-4.9448,-4.9862,-5.1663,-5.2893,-5.3512,-5.3214,-5.5242,-5.6599,-5.6579,-5.6356,0.0,0.0,0.0,0.0,-5.3225,-5.3447,-5.3241,-5.25,-5.0703,-4.8535,0.0,-4.4189,-4.2341,-4.0508,-4.0639,-4.072,-4.0791,-4.0913,-4.3029,-4.6706,-4.9427,-5.2292,-5.517,-5.6813,-5.7643,-5.7873,-5.7873,-5.845,-5.9204,-5.855,-5.8319,-5.828,-5.8127,-5.8165,-5.8319,-5.8319,-5.8781,-5.9281,-5.9281,-5.9896,-6.055,-6.055,-6.0666,-6.0781,-6.0781,-6.0781,-6.0781,-6.0627,-6.1166,-6.1743,-6.205,-6.2329,-6.2497,-6.2352,0.0,0.0,0.0,0.0,0.0,0.0,0.0,0.0,0.0,0.0,0.0,0.0,0.0,0.0,0.0,0.0,0.0,0.0,0.0,0.0,0.0,-6.2127,0.0,0.0,0.0,-6.6953,-6.5279,-6.8202,-6.9217,-6.8436,-6.8244,-6.809,-6.7975,-6.8129,-6.8282,-6.8475,-6.936,-7.0167,-7.0898,-7.0898,-7.0898,-7.0898,-7.0898,-7.0898,-7.0898,-4.4057,-4.4243,-4.4227,-4.4042,0.0,0.0,0.0,-5.0629,-5.1605,-5.3466,-5.4071,-5.4349,-5.4349,-5.5698,-5.6562,-5.6484,-5.6491,-5.6319,-5.5819,-5.5794,-5.5432,-5.4606,-5.4597,-5.4216,-5.3398,-5.2539,-5.0298,-4.666,-4.5829,-4.3721,-4.0508,-4.0754,-4.0836,-4.0875,-4.2772,-4.4804,-4.7014,-5.1588,-5.4438,-5.613,-5.8604,-5.9588,-5.9588,-5.9588,-5.9858,-6.0127,-5.9742,-5.9588,-5.9511,-5.9088,-5.9204,-5.9588,-5.9588,-5.9858,-6.0165,-6.0165,-6.0473,-6.0781,-6.0781,-6.0781,-6.0781,-6.0781,-6.0781,-6.0935,-6.1358,-6.1781,-6.2358,-6.3281,-6.382,-6.3641,-6.2004,-5.9413,0.0,0.0,0.0,0.0,0.0,0.0,-5.2461,0.0,0.0,0.0,0.0,0.0,0.0,-4.8281,-4.8281,0.0,0.0,0.0,0.0,0.0,0.0,0.0,0.0,0.0,0.0,-6.4675,-6.8685,-7.0103,-6.9333,-6.9167,-6.8821,-6.8398,-6.8398,-6.8667,-6.9129,-6.9975,-7.0552,-7.0898,-7.0898,-7.0898,-7.0898,-7.0898,-7.0898,-7.0898,-4.6443,-4.6358,-4.606,-4.5853,-4.6945,-4.8666,-5.1206,-5.2627,-5.3923,-5.5322,-5.5497,-5.5503,-5.5547,-5.6133,-5.6523,-5.6445,-5.6523,-5.6558,-5.6427,-5.653,-5.6289,-5.5625,-5.5586,-5.5156,-5.4297,-5.4297,-5.2258,0.0,0.0,-4.5341,-4.1388,-4.1508,-4.1789,-4.2341,-4.551,-4.7281,-4.8266,-5.3675,-5.6337,-5.7205,-5.9835,-6.0858,-6.0819,-6.0819,-6.0819,-6.0781,-6.0781,-6.0781,-6.0704,-6.0012,-6.0242,-6.0781,-6.0781,-6.0781,-6.0781,-6.0781,-6.0781,-6.0781,-6.0781,-6.0935,-6.1089,-6.1089,-6.1204,-6.1512,-6.2204,-6.2512,-6.3012,-6.432,-6.4743,-6.418,-6.1914,-6.0527,0.0,0.0,0.0,0.0,0.0,0.0,0.0,0.0,0.0,0.0,0.0,0.0,0.0,-4.9375,-4.9101,0.0,-5.6797,0.0,0.0,0.0,0.0,-6.1797,-6.039,0.0,-6.8398,-6.5234,-6.9158,-7.0758,-7.0256,-7.0129,-6.9667,-6.8975,-6.8783,-6.909,-6.9744,-7.0552,-7.0898,-7.0898,-7.0898,-7.0898,-7.0898,-7.0898,-7.0898,-7.0898,-5.2843,-5.3089,-5.2723,-5.1921,0.0,-5.2653,-5.505,-5.5238,-5.5384,-5.6014,-5.6115,-5.6152,-5.6288,-5.6367,-5.6445,-5.6562,-5.6601,-5.6601,-5.6595,-5.66,-5.6562,-5.6484,-5.6484,-5.6055,-5.5195,-5.5195,-5.3789,0.0,0.0,-4.6332,-4.4275,-4.3634,-4.4585,-4.6877,-4.8745,-5.1132,-5.3874,-5.5431,-5.7805,-6.0589,-6.105,-6.1151,-6.0973,-6.0973,-6.0896,-6.0781,-6.0781,-6.0781,-6.0781,-6.0704,-6.0742,-6.0781,-6.0781,-6.0781,-6.0781,-6.0781,-6.0781,-6.0781,-6.0781,-6.1358,-6.1973,-6.1973,-6.2512,-6.3089,-6.3166,-6.382,-6.4397,-6.4589,-6.5243,-6.5243,-6.3411,-6.304,-6.1527,0.0,0.0,0.0,0.0,0.0,-5.6209,-5.6323,0.0,0.0,0.0,0.0,0.0,0.0,-4.9766,0.0,0.0,0.0,0.0,-5.8359,0.0,-6.0586,-6.039,-6.5742,-6.8594,-6.8984,-7.0076,-7.0881,-7.1541,-7.1387,-7.1195,-7.0898,-7.0117,-6.9744,-6.9744,-7.0552,-7.0898,-7.0898,-7.0898,-7.0898,-7.0898,-7.0898,-7.0898,-7.0898,-5.2315,-5.2541,0.0,0.0,0.0,0.0,0.0,-5.6313,-5.6634,-5.6768,-5.694,-5.6908,-5.655,-5.6514,-5.6523,-5.6484,-5.6562,-5.6562,-5.6484,-5.6562,-5.6601,-5.6601,-5.6601,-5.6445,-5.6094,-5.6094,-5.4765,0.0,0.0,-4.8857,-4.7019,-4.5184,-4.5974,-4.905,-5.2355,-5.4495,-5.5838,-5.8212,-5.9994,-6.1181,-6.1259,-6.1259,-6.1186,-6.1208,-6.1151,-6.1074,-6.0935,-6.0896,-6.0896,-6.0819,-6.0781,-6.0781,-6.0781,-6.0781,-6.0781,-6.0781,-6.1166,-6.1589,-6.1589,-6.2204,-6.282,-6.282,-6.3051,-6.3435,-6.3974,-6.4359,-6.4743,-6.5282,-6.5667,-6.5705,-6.4974,-6.4026,-6.2757,-6.0873,0.0,0.0,0.0,0.0,0.0,-5.8364,0.0,-5.8086,0.0,0.0,0.0,0.0,-4.8867,0.0,0.0,0.0,0.0,-5.8555,0.0,-6.3008,-6.3515,-6.7109,-6.8867,-6.875,-7.0937,-7.1884,-7.1688,-7.2076,-7.1949,-7.1387,-7.1029,-7.0848,-7.0832,-7.1129,-7.1245,-7.1245,-7.1245,-7.1245,-7.1245,-7.1245,-7.1206,-7.1129,-5.3802,0.0,-5.4531,0.0,-5.6198,-5.7063,-5.722,-5.7562,-5.7683,-5.7418,-5.7511,-5.7341,-5.6609,-5.655,-5.6484,-5.6406,-5.6536,-5.6523,-5.6406,-5.6523,-5.6601,-5.6601,-5.6601,0.0,-5.6601,-5.6601,-5.5655,-5.3787,-5.2409,-5.1053,-4.9725,-4.8129,-4.9087,-5.2246,-5.584,-5.7482,-5.7602,-6.0234,-6.1368,-6.1352,-6.1383,-6.1409,-6.1353,-6.1366,-6.1328,-6.1272,-6.1157,-6.1092,-6.1089,-6.1204,-6.1243,-6.1243,-6.1204,-6.1166,-6.1243,-6.1473,-6.1973,-6.2435,-6.2435,-6.3051,-6.3666,-6.3666,-6.3858,-6.4243,-6.4859,-6.4974,-6.5166,-6.5782,-6.5897,-6.5897,-6.5897,-6.4897,-6.3795,-6.2938,0.0,0.0,0.0,-6.0925,0.0,-5.8787,-5.8826,-5.9139,-5.9123,-5.4362,0.0,0.0,0.0,0.0,0.0,0.0,0.0,0.0,0.0,0.0,0.0,-6.7148,-6.8515,-6.8945,-7.125,-7.2131,-7.1819,-7.2287,-7.2017,-7.1242,-7.1661,-7.1572,-7.1154,-7.1641,-7.1703,-7.151,-7.151,-7.151,-7.151,-7.1472,-7.1394,-7.1317,-5.961,-6.09,-6.1289,-6.0273,-6.0117,-6.0143,-6.0128,-5.9335,-5.8504,-5.795,-5.7712,-5.729,-5.6494,-5.64,-5.6397,-5.6403,-5.6524,-5.6528,-5.6405,-5.6523,-5.6601,0.0,0.0,-5.6601,-5.6601,-5.6601,-5.6588,-5.6554,0.0,-5.2487,-5.2487,-5.3152,-5.4863,-5.7373,-5.9142,-5.9978,-6.0005,-6.1041,-6.1497,-6.1494,-6.1648,-6.1601,-6.1484,-6.1484,-6.1437,-6.1316,-6.1316,-6.132,-6.142,-6.205,-6.2281,-6.2243,-6.2127,-6.2089,-6.2243,-6.3051,-6.3281,-6.3281,-6.3281,-6.3935,-6.4589,-6.4589,-6.5243,-6.5859,-6.5859,-6.5859,-6.5897,-6.5897,-6.5897,-6.5897,-6.5897,-6.5859,-6.4834,-6.1582,-6.2372,-6.1794,0.0,-5.9062,0.0,-5.6958,-5.4782,-5.4939,-5.8563,-5.4104,0.0,0.0,0.0,0.0,0.0,0.0,0.0,-5.9062,-5.8398,0.0,-6.3008,-6.4765,-6.7344,-7.0664,-7.0703,-7.1172,-7.1992,-7.1797,-7.1289,-7.0585,-7.2043,-7.1771,-7.033,-7.2015,-7.2235,-7.151,-7.151,-7.151,-7.1471,-7.1354,-7.1315,-7.1354,-5.8082,-5.8882,-5.9219,-5.9453,-5.9512,-5.9463,-5.9334,-5.8651,-5.8027,-5.7758,-5.7224,-5.6831,-5.6558,-5.6556,-5.6519,0.0,-5.6511,-5.6552,0.0,-5.6523,-5.6601,-5.6601,-5.6601,-5.6601,-5.6601,-5.6601,-5.6588,-5.6609,-5.3255,-5.2116,-5.3174,-5.6444,-5.835,-5.9072,-6.0321,-6.0875,-6.09,-6.1211,-6.1345,-6.1391,-6.1495,-6.1467,-6.1393,-6.1555,-6.1559,-6.1499,-6.2123,-6.2335,-6.2414,-6.3014,-6.3201,-6.3281,-6.3666,-6.3397,-6.2974,-6.3243,-6.3743,-6.4205,-6.4205,-6.482,-6.5474,-6.5474,-6.5705,-6.5897,-6.5897,-6.5897,-6.5897,-6.5897,-6.5897,-6.5897,-6.5897,-6.5897,-6.518,-6.3053,-6.4085,-6.3839,-6.0175,-6.139,-6.1953,-5.9996,-5.9142,-5.9639,0.0,-5.8616,0.0,0.0,0.0,0.0,0.0,0.0,0.0,0.0,-6.3515,0.0,-6.7344,-6.789,-6.9336,-7.1601,-7.2187,-7.2617,-7.2851,-7.2187,-7.1758,-7.1562,-7.2017,-7.1928,-7.146,-7.2002,-7.208,-7.1846,-7.1846,-7.1846,-7.1846,-7.1807,-7.1768,-7.1797,-5.6989,-5.7656,-5.8047,-5.8515,-5.8671,-5.8643,-5.8434,-5.7844,-5.7359,-5.7223,-5.6862,-5.662,-5.6599,-5.6601,-5.6562,-5.6406,-5.6519,-5.6553,-5.6406,-5.6523,-5.6601,-5.6601,-5.6601,-5.6601,-5.6601,-5.6587,-5.6589,-5.6533,-5.4468,-5.4079,-5.533,-5.8373,-5.9973,-6.0288,-6.0923,-6.1236,-6.1314,-6.1314,-6.1314,-6.1291,-6.1401,-6.1354,-6.1328,-6.1481,-6.1517,-6.149,-6.2037,-6.2427,-6.2785,-6.3402,-6.3797,-6.418,-6.4859,-6.4705,-6.4282,-6.4282,-6.4666,-6.5089,-6.5089,-6.5474,-6.5897,-6.5897,-6.5897,-6.5897,-6.5897,-6.5897,-6.5897,-6.5897,-6.5897,-6.5897,-6.5897,-6.5897,-6.559,-6.4564,-6.5218,-6.4987,-6.2452,-6.3399,-6.3383,-6.0573,0.0,0.0,0.0,-6.1233,-5.9955,0.0,0.0,0.0,0.0,0.0,0.0,-6.2969,-6.5781,-6.793,-6.9375,-6.9414,-7.0312,-7.1992,-7.2539,-7.2812,-7.2773,-7.2265,-7.1992,-7.1992,-7.1992,-7.1992,-7.1992,-7.1992,-7.1992,-7.1992,-7.1992,-7.1992,-7.1992,-7.1992,-7.1992,-7.1991,-5.6405,-5.7147,-5.7734,-5.7539,-5.7656,-5.7734,-5.7578,-5.6992,-5.6601,-5.6601,-5.6601,-5.6601,-5.6601,-5.6601,-5.6562,-5.6406,-5.6523,-5.6562,-5.6406,-5.6523,-5.6601,-5.6601,-5.6599,-5.6597,-5.6597,-5.6597,-5.6494,-5.6379,-5.6973,-5.7627,-5.8319,-5.9204,-6.0089,-6.0973,-6.0973,-6.1112,-6.1266,-6.1266,-6.1266,-6.1266,-6.1304,-6.1254,-6.1253,-6.1309,-6.1311,-6.1292,-6.1369,-6.1901,-6.2687,-6.3444,-6.4218,-6.5026,-6.5705,-6.5897,-6.5897,-6.5897,-6.5897,-6.5897,-6.5897,-6.5897,-6.5897,-6.5897,-6.5897,-6.5897,-6.5897,-6.5897,-6.5897,-6.5897,-6.5897,-6.5897,-6.5897,-6.5897,-6.5897,-6.5897,-6.5897,-6.5359,-6.3732,-6.4834,-6.4139,-5.9629,0.0,0.0,-6.2516,-6.2579,-6.3474,0.0,0.0,0.0,0.0,0.0,-6.1442,-6.5506,-6.5898,-6.7148,-6.9531,-6.9648,-7.0469,-7.1992,-7.1992,-7.1992,-7.1992,-7.1992,-7.1992,-7.1992,-7.1992,-7.1992,-7.1992,-7.1992,-7.1992,-7.1992,-7.1992,-7.1992,-7.1992,-7.1992,-7.1992,-7.1992,-5.6251,-5.6441,-5.6602,-5.6677,-5.6719,-5.6758,-5.6836,-5.6719,-5.6601,-5.6601,-5.6601,-5.6601,-5.6601,-5.6601,-5.6601,-5.6562,-5.6562,-5.6601,-5.6562,-5.6562,-5.6601,-5.6601,-5.6591,-5.6543,-5.6466,-5.6425,-5.6302,-5.6032,-5.7473,-5.8242,-5.8319,-5.9781,-6.0627,-6.0858,-6.0858,-6.0858,-6.0896,-6.0896,-6.0896,-6.0935,-6.1012,-6.1026,-6.0941,-6.1196,-6.118,-6.1193,-6.2025,-6.2815,-6.3582,-6.4253,-6.5089,-6.5782,-6.5859,-6.5897,-6.5897,-6.5897,-6.5897,-6.5897,-6.5897,-6.5897,-6.5897,-6.5897,-6.5897,-6.5897,-6.5897,-6.5897,-6.5897,-6.5897,-6.5897,-6.5897,-6.5897,-6.5897,-6.5897,-6.5897,-6.5897,-6.532,-6.3565,-6.4347,-6.4589,-6.3367,-6.4152,-6.5359,-6.6807,-6.691,-6.609,0.0,0.0,0.0,0.0,-6.523,-6.7204,-6.8972,-6.9823,-7.0547,-7.1133,-7.1328,-7.1601,-7.1992,-7.1992,-7.1992,-7.1992,-7.1992,-7.1992,-7.1992,-7.1992,-7.1992,-7.1992,-7.1992,-7.1992,-7.1992,-7.1992,-7.1992,-7.1992,-7.1992,-7.1992,-7.1992,-5.6062,-5.6149,-5.6223,-5.628,-5.6315,-5.6341,-5.6407,-5.6432,-5.6419,-5.6406,-5.6484,-5.6523,-5.6523,-5.6562,-5.6601,-5.6601,-5.6601,-5.6601,-5.6601,-5.6601,-5.6585,-5.6514,-5.6515,-5.6464,-5.6333,-5.6309,-5.6186,-5.5895,-5.7588,-5.8396,-5.8357,-6.0012,-6.0781,-6.0781,-6.0781,-6.0781,-6.0781,-6.0781,-6.0781,-6.0819,-6.0858,-6.0858,-6.0819,-6.0973,-6.0973,-6.0973,-6.1574,-6.2536,-6.3628,-6.3974,-6.4936,-6.5974,-6.5897,-6.5897,-6.5897,-6.5897,-6.5897,-6.5897,-6.5897,-6.5897,-6.5897,-6.5897,-6.5897,-6.5897,-6.5897,-6.5897,-6.5897,-6.5897,-6.5897,-6.5897,-6.5897,-6.5897,-6.5897,-6.5897,-6.5243,-6.4397,-6.3435,-6.4103,-6.468,-6.4628,-6.6103,-6.7614,-6.8859,-6.9013,-6.8398,-6.6898,-6.6974,0.0,-6.6244,-6.7346,-6.8458,-6.9556,-7.0907,-7.1594,-7.1618,-7.1791,-7.1914,-7.1992,-7.1992,-7.1992,-7.1992,-7.1992,-7.1992,-7.1992,-7.1992,-7.1992,-7.1992,-7.1992,-7.1992,-7.1992,-7.1992,-7.1992,-7.1992,-7.1992,-7.1992,-7.1992,-5.5857,-5.6032,-5.6148,-5.6148,-5.614,-5.6185,-5.621,-5.6195,-5.6212,-5.6181,-5.6309,-5.6356,-5.6367,-5.6484,-5.6522,-5.6546,-5.6543,-5.6543,-5.6582,-5.6554,-5.651,-5.6387,-5.6382,-5.6309,-5.6161,-5.6134,-5.6032,-5.5857,-5.7511,-5.8319,-5.8357,-6.0012,-6.0781,-6.0781,-6.0781,-6.0781,-6.0781,-6.0781,-6.0781,-6.0781,-6.0781,-6.0781,-6.0781,-6.0781,-6.0781,-6.0781,-6.0781,-6.1781,-6.3128,-6.3281,-6.4359,-6.5743,-6.5859,-6.5897,-6.5897,-6.5897,-6.5897,-6.5897,-6.5897,-6.5897,-6.5897,-6.5897,-6.5897,-6.5897,-6.5897,-6.5897,-6.5897,-6.5897,-6.5897,-6.5897,-6.5897,-6.5897,-6.5743,-6.5205,-6.4089,-6.3166,-6.2781,-6.3935,-6.4859,-6.4974,-6.7244,-6.909,-6.9821,-6.9898,-7.0167,-7.086,-6.8898,-6.8513,-7.0475,-6.8706,-6.8025,-6.8844,-7.0552,-7.1448,-7.1513,-7.1611,-7.1794,-7.1992,-7.1989,-7.1981,-7.2006,-7.1981,-7.1986,-7.1986,-7.1991,-7.1992,-7.1992,-7.1992,-7.1992,-7.1992,-7.1992,-7.1992,-7.1992,-7.1992,-7.1992,-7.1992,-5.5742,-5.5742,-5.5818,-5.5934,-5.5941,-5.6,-5.6148,-5.621,-5.6175,-5.6173,-5.623,-5.6226,-5.6247,-5.625,-5.6246,-5.6261,-5.6268,-5.6307,-5.6423,-5.6317,-5.6261,-5.6239,-5.623,-5.6151,-5.5943,-5.5822,-5.5742,-5.5742,-5.7473,-5.8319,-5.8357,-6.0012,-6.0781,-6.0781,-6.0781,-6.0781,-6.0781,-6.0781,-6.0781,-6.0781,-6.0781,-6.0781,-6.0781,-6.0781,-6.0781,-6.0781,-6.0781,-6.1435,-6.2397,-6.3089,-6.3974,-6.4936,-6.5667,-6.5897,-6.5897,-6.5897,-6.5897,-6.5897,-6.5897,-6.5897,-6.5897,-6.5897,-6.5897,-6.5897,-6.5897,-6.5897,-6.5897,-6.5897,-6.5897,-6.5897,-6.5897,-6.5897,-6.4936,-6.205,-6.2551,-6.2551,-6.0396,-6.332,-6.5936,-6.6628,-6.8975,-7.0552,-7.0706,-7.0706,-7.0783,-7.0898,-7.0514,-6.991,-6.8998,-6.9794,-6.9794,-6.8663,-7.0333,-7.1337,-7.1505,-7.1536,-7.1667,-7.1992,-7.2018,-7.1995,-7.1982,-7.2011,-7.1989,-7.2,-7.2014,-7.1992,-7.1992,-7.1992,-7.1992,-7.1992,-7.1992,-7.1992,-7.1992,-7.1992,-7.1992,-7.1992,-5.5703,-5.5703,-5.5703,-5.578,-5.578,-5.5818,-5.5895,-5.5934,-5.5934,-5.5934,-5.5994,-5.6058,-5.6045,-5.6158,-5.6185,-5.619,-5.6109,-5.6071,-5.6148,-5.6173,-5.614,-5.6062,-5.6039,-5.5955,-5.578,-5.5742,-5.5703,-5.5703,-5.7434,-5.8319,-5.8357,-6.0012,-6.0781,-6.0781,-6.0781,-6.0781,-6.0781,-6.0781,-6.0781,-6.0781,-6.0781,-6.0781,-6.0781,-6.0781,-6.0781,-6.0781,-6.0781,-6.1358,-6.2204,-6.3051,-6.3897,-6.4743,-6.5628,-6.5897,-6.5897,-6.5897,-6.5897,-6.5897,-6.5897,-6.5897,-6.5897,-6.5897,-6.5897,-6.5897,-6.5897,-6.5897,-6.5897,-6.5897,-6.5897,-6.5897,-6.5897,-6.5897,-6.5089,-6.2551,-6.3205,-6.3281,-6.1204,-6.4166,-6.6667,-6.7051,-6.936,-7.0898,-7.0898,-7.0898,-7.0898,-7.0898,-7.0898,-7.0591,-6.9871,-7.0514,-7.0591,-6.9871,-7.0629,-7.1129,-7.1321,-7.1317,-7.1436,-7.1637,-7.186,-7.1803,-7.1426,-7.1418,-7.1412,-7.1394,-7.1403,-7.1471,-7.1636,-7.1636,-7.1675,-7.1714,-7.1714,-7.1846,-7.1992,-7.1992,-7.1992,-7.1989,-5.5703,-5.5703,-5.5703,-5.5703,-5.5703,-5.5703,-5.5703,-5.5703,-5.5703,-5.5703,-5.578,-5.5857,-5.5857,-5.5994,-5.6071,-5.6071,-5.5955,-5.5857,-5.5857,-5.5994,-5.6032,-5.5857,-5.5857,-5.5818,-5.5703,-5.5703,-5.5703,-5.5703,-5.7434,-5.8319,-5.8357,-6.0012,-6.0781,-6.0781,-6.0781,-6.0781,-6.0781,-6.0781,-6.0781,-6.0781,-6.0781,-6.0781,-6.0781,-6.0781,-6.0781,-6.0781,-6.0781,-6.1243,-6.1897,-6.2743,-6.3589,-6.4436,-6.532,-6.5743,-6.5897,-6.5897,-6.5897,-6.5897,-6.5897,-6.5897,-6.5897,-6.5897,-6.5897,-6.5897,-6.5897,-6.5897,-6.5897,-6.5897,-6.5897,-6.5974,-6.6128,-6.6167,-6.5551,-6.3628,-6.4205,-6.4397,-6.2897,-6.5243,-6.7321,-6.7898,-6.9706,-7.0898,-7.0898,-7.0898,-7.0898,-7.0898,-7.0898,-7.0898,-7.0898,-7.0898,-7.0898,-7.0898,-7.0898,-7.0975,-7.1129,-7.1129,-7.1168,-7.1233,-7.1551,-7.1454,-7.0898,-7.0898,-7.0898,-7.0898,-7.0898,-7.1047,-7.1215,-7.1292,-7.1426,-7.1503,-7.1503,-7.1641,-7.1897,-7.1928,-7.1978,-7.1993,-5.5703,-5.5703,-5.5703,-5.5703,-5.5703,-5.5703,-5.5703,-5.5703,-5.5703,-5.5703,-5.5703,-5.5703,-5.5703,-5.5742,-5.5742,-5.5742,-5.5703,-5.5703,-5.5703,-5.5742,-5.5742,-5.5703,-5.5703,-5.5703,-5.5703,-5.5703,-5.5703,-5.5703,-5.7434,-5.8319,-5.8357,-6.0012,-6.0781,-6.0781,-6.0781,-6.0781,-6.0781,-6.0781,-6.0781,-6.0781,-6.0781,-6.0781,-6.0781,-6.0781,-6.0781,-6.0781,-6.0781,-6.0819,-6.1012,-6.1897,-6.2743,-6.3551,-6.4436,-6.5243,-6.5897,-6.5897,-6.5897,-6.5897,-6.5897,-6.5897,-6.5897,-6.5897,-6.5897,-6.5897,-6.5897,-6.5897,-6.5897,-6.5897,-6.5897,-6.6128,-6.6859,-6.7013,-6.6205,-6.3705,-6.4705,-6.5474,-6.4551,-6.5974,-6.7975,-7.0321,-7.0783,-7.0898,-7.0898,-7.0898,-7.0898,-7.0898,-7.0898,-7.0898,-7.0898,-7.0898,-7.0898,-7.0898,-7.0898,-7.0898,-7.0937,-7.0937,-7.0937,-7.0937,-7.0952,-7.0952,-7.0898,-7.0898,-7.0898,-7.0898,-7.0898,-7.0925,-7.0979,-7.1325,-7.1506,-7.1506,-7.1506,-7.1531,-7.1555,-7.1669,-7.1835,-7.1978,-5.5703,-5.5703,-5.5703,-5.5703,-5.5703,-5.5703,-5.5703,-5.5703,-5.5703,-5.5703,-5.5703,-5.5703,-5.5703,-5.5703,-5.5703,-5.5703,-5.5703,-5.5703,-5.5703,-5.5703,-5.5703,-5.5703,-5.5703,-5.5703,-5.5703,-5.5703,-5.5703,-5.5703,-5.6896,-5.778,-5.8319,-5.9473,-6.0281,-6.0781,-6.0781,-6.0781,-6.0781,-6.0781,-6.0781,-6.0781,-6.0781,-6.0781,-6.0781,-6.0781,-6.0781,-6.0781,-6.0781,-6.0781,-6.0935,-6.182,-6.2627,-6.3474,-6.432,-6.5205,-6.5897,-6.5897,-6.5897,-6.5897,-6.5897,-6.5897,-6.5897,-6.5897,-6.5897,-6.5897,-6.5897,-6.5897,-6.5897,-6.5897,-6.5897,-6.6128,-6.6936,-6.709,-6.6628,-6.5166,-6.6782,-6.7744,-6.6359,-6.8052,-6.9821,-7.0783,-7.0898,-7.0898,-7.0898,-7.0898,-7.0898,-7.0898,-7.0898,-7.0898,-7.0898,-7.0898,-7.0898,-7.0898,-7.0898,-7.0898,-7.0898,-7.0898,-7.0898,-7.0898,-7.0898,-7.0898,-7.0898,-7.0898,-7.0898,-7.0898,-7.0898,-7.0898,-7.0898,-7.1052,-7.1129,-7.1129,-7.1129,-7.1129,-7.1156,-7.1394,-7.164,-7.1833,-5.5703,-5.5703,-5.5703,-5.5703,-5.5703,-5.5703,-5.5703,-5.5703,-5.5703,-5.5703,-5.5703,-5.5703,-5.5703,-5.5703,-5.5703,-5.5703,-5.5703,-5.5703,-5.5703,-5.5703,-5.5703,-5.5703,-5.5703,-5.5703,-5.5703,-5.5703,-5.5703,-5.5703,-5.6549,-5.7319,-5.7934,-5.9011,-5.9819,-6.0396,-6.0666,-6.0781,-6.0781,-6.0781,-6.0781,-6.0781,-6.0781,-6.0781,-6.0781,-6.0781,-6.0781,-6.0781,-6.0781,-6.0781,-6.0896,-6.1473,-6.2243,-6.3089,-6.3935,-6.4974,-6.5897,-6.5897,-6.5897,-6.5897,-6.5897,-6.5897,-6.5897,-6.5897,-6.5897,-6.5897,-6.5897,-6.5897,-6.5897,-6.5897,-6.5897,-6.6244,-6.7321,-6.7513,-6.7513,-6.7475,-6.8936,-6.9667,-6.8475,-6.9783,-7.0898,-7.0898,-7.0898,-7.0898,-7.0898,-7.0898,-7.0898,-7.0898,-7.0898,-7.0898,-7.0898,-7.0898,-7.0898,-7.0898,-7.0898,-7.0898,-7.0898,-7.0898,-7.0898,-7.0898,-7.0898,-7.0898,-7.0898,-7.0898,-7.0898,-7.0898,-7.0898,-7.0898,-7.0898,-7.0898,-7.0898,-7.0898,-7.0898,-7.0898,-7.0937,-7.1091,-7.1283,-7.1464,-5.5703,-5.5703,-5.5703,-5.5703,-5.5703,-5.5703,-5.5703,-5.5703,-5.5703,-5.5703,-5.5703,-5.5703,-5.5703,-5.5703,-5.5703,-5.5703,-5.5703,-5.5703,-5.5703,-5.5703,-5.5703,-5.5703,-5.5703,-5.5703,-5.5703,-5.5703,-5.5703,-5.5703,-5.6549,-5.6973,-5.7049,-5.8704,-5.9473,-5.955,-6.0396,-6.0781,-6.0781,-6.0781,-6.0781,-6.0781,-6.0781,-6.0781,-6.0781,-6.0781,-6.0781,-6.0781,-6.0781,-6.0781,-6.0781,-6.0781,-6.1358,-6.2243,-6.3051,-6.4512,-6.5897,-6.5897,-6.5897,-6.5897,-6.5897,-6.5897,-6.5897,-6.5897,-6.5897,-6.5897,-6.5897,-6.5897,-6.5897,-6.5897,-6.5897,-6.6397,-6.809,-6.8398,-6.8936,-7.0629,-7.0898,-7.0898,-7.0898,-7.0898,-7.0898,-7.0898,-7.0898,-7.0898,-7.0898,-7.0898,-7.0898,-7.0898,-7.0898,-7.0898,-7.0898,-7.0898,-7.0898,-7.0898,-7.0898,-7.0898,-7.0898,-7.0898,-7.0898,-7.0898,-7.0898,-7.0898,-7.0898,-7.0898,-7.0898,-7.0898,-7.0898,-7.0898,-7.0898,-7.0898,-7.0898,-7.0898,-7.0898,-7.0898,-7.0898,-7.0898,-7.0898,-7.0898,-5.5703,-5.5703,-5.5703,-5.5703,-5.5703,-5.5703,-5.5703,-5.5703,-5.5703,-5.5703,-5.5703,-5.5703,-5.5703,-5.5703,-5.5703,-5.5703,-5.5703,-5.5703,-5.5703,-5.5703,-5.5703,-5.5703,-5.5703,-5.5703,-5.5703,-5.5703,-5.5703,-5.5703,-5.5972,-5.6395,-5.7011,-5.7511,-5.8357,-5.9511,-5.9781,-6.0242,-6.0781,-6.0781,-6.0781,-6.0781,-6.0781,-6.0781,-6.0781,-6.0781,-6.0781,-6.0781,-6.0781,-6.0781,-6.0781,-6.0781,-6.1358,-6.2358,-6.3782,-6.4974,-6.5897,-6.5897,-6.5897,-6.5897,-6.5897,-6.5897,-6.5897,-6.5897,-6.5897,-6.5897,-6.5897,-6.5897,-6.5897,-6.5897,-6.5897,-6.6244,-6.7282,-6.7975,-6.8783,-6.9898,-7.0514,-7.0898,-7.0898,-7.0898,-7.0898,-7.0898,-7.0898,-7.0898,-7.0898,-7.0898,-7.0898,-7.0898,-7.0898,-7.0898,-7.0898,-7.0898,-7.0898,-7.0898,-7.0898,-7.0898,-7.0898,-7.0898,-7.0898,-7.0898,-7.0898,-7.0898,-7.0898,-7.0898,-7.0898,-7.0898,-7.0898,-7.0898,-7.0898,-7.0898,-7.0898,-7.0898,-7.0898,-7.0898,-7.0898,-7.0898,-7.0898,-7.0898,-5.5626,-5.5434,-5.5318,-5.5626,-5.5703,-5.5703,-5.5703,-5.5703,-5.5703,-5.5703,-5.5703,-5.5703,-5.5703,-5.5703,-5.5703,-5.5703,-5.5703,-5.5703,-5.5703,-5.5703,-5.5703,-5.5703,-5.5703,-5.5703,-5.5703,-5.5703,-5.5703,-5.5703,-5.5703,-5.5972,-5.6472,-5.6819,-5.7703,-5.905,-5.9358,-5.9973,-6.0781,-6.0781,-6.0781,-6.0781,-6.0781,-6.0781,-6.0781,-6.0781,-6.0781,-6.0781,-6.0781,-6.0781,-6.0781,-6.0781,-6.1358,-6.232,-6.3666,-6.4666,-6.5436,-6.5782,-6.5897,-6.5897,-6.5897,-6.5897,-6.5897,-6.5897,-6.5897,-6.5897,-6.5897,-6.5897,-6.5897,-6.5897,-6.5897,-6.6128,-6.6936,-6.7513,-6.8282,-6.9513,-7.0129,-7.0552,-7.086,-7.0898,-7.0898,-7.0898,-7.0898,-7.0898,-7.0898,-7.0898,-7.0898,-7.0898,-7.0898,-7.0898,-7.0898,-7.0898,-7.0898,-7.0898,-7.0898,-7.0898,-7.0898,-7.0898,-7.0898,-7.0898,-7.0898,-7.0898,-7.0898,-7.0898,-7.0898,-7.0898,-7.0898,-7.0898,-7.0898,-7.0898,-7.0898,-7.0898,-7.0898,-7.0898,-7.0898,-7.0898,-7.0898,-7.0898,-5.5549,-5.5049,-5.4741,-5.5549,-5.5703,-5.5703,-5.5703,-5.5703,-5.5703,-5.5703,-5.5703,-5.5703,-5.5703,-5.5703,-5.5703,-5.5703,-5.5703,-5.5703,-5.5703,-5.5703,-5.5703,-5.5703,-5.5703,-5.5703,-5.5703,-5.5703,-5.5703,-5.5703,-5.5703,-5.5703,-5.5703,-5.6511,-5.7357,-5.8204,-5.8934,-5.9781,-6.0666,-6.0666,-6.0742,-6.0781,-6.0781,-6.0781,-6.0781,-6.0781,-6.0781,-6.0781,-6.0781,-6.0781,-6.0781,-6.0781,-6.1358,-6.2243,-6.3051,-6.3897,-6.4782,-6.5628,-6.5897,-6.5897,-6.5897,-6.5897,-6.5897,-6.5897,-6.5897,-6.5897,-6.5897,-6.5897,-6.5897,-6.5897,-6.5897,-6.6128,-6.6859,-6.7051,-6.7628,-6.9321,-6.9667,-6.9975,-7.0783,-7.0898,-7.0898,-7.0898,-7.0898,-7.0898,-7.0898,-7.0898,-7.0898,-7.0898,-7.0898,-7.0898,-7.0898,-7.0898,-7.0898,-7.0898,-7.0898,-7.0898,-7.0898,-7.0898,-7.0898,-7.0898,-7.0898,-7.0898,-7.0898,-7.0898,-7.0898,-7.0898,-7.0898,-7.0898,-7.0898,-7.0898,-7.0898,-7.0898,-7.0898,-7.0898,-7.0898,-7.0898,-7.0898,-7.0898,-5.5549,-5.5049,-5.4741,-5.5549,-5.5703,-5.5703,-5.5703,-5.5703,-5.5703,-5.5703,-5.5703,-5.5703,-5.5703,-5.5703,-5.5703,-5.5703,-5.5703,-5.5703,-5.5703,-5.5703,-5.5703,-5.5703,-5.5703,-5.5703,-5.5703,-5.5703,-5.5703,-5.5703,-5.5703,-5.5703,-5.5703,-5.5895,-5.6434,-5.728,-5.7473,-5.8357,-5.9781,-5.9781,-6.0165,-6.0781,-6.0781,-6.0781,-6.0781,-6.0781,-6.0781,-6.0781,-6.0781,-6.0781,-6.0781,-6.0781,-6.1358,-6.2243,-6.3051,-6.3897,-6.4782,-6.5628,-6.5897,-6.5897,-6.5897,-6.5897,-6.5897,-6.5897,-6.5897,-6.5897,-6.5897,-6.5897,-6.5897,-6.5897,-6.5897,-6.5936,-6.6128,-6.6667,-6.7436,-6.8513,-6.9244,-6.9975,-7.0783,-7.0898,-7.0898,-7.0898,-7.0898,-7.0898,-7.0898,-7.0898,-7.0898,-7.0898,-7.0898,-7.0898,-7.0898,-7.0898,-7.0898,-7.0898,-7.0898,-7.0898,-7.0898,-7.0898,-7.0898,-7.0898,-7.0898,-7.0898,-7.0898,-7.0898,-7.0898,-7.0898,-7.0898,-7.0898,-7.0898,-7.0898,-7.0898,-7.0898,-7.0898,-7.0898,-7.0898,-7.0898,-7.0898,-7.0898,-5.5549,-5.5049,-5.4741,-5.5549,-5.5703,-5.5703,-5.5703,-5.5703,-5.5703,-5.5703,-5.5703,-5.5703,-5.5703,-5.5703,-5.5703,-5.5703,-5.5703,-5.5703,-5.5703,-5.5703,-5.5703,-5.5703,-5.5703,-5.5703,-5.5703,-5.5703,-5.5703,-5.5703,-5.5703,-5.5703,-5.5703,-5.5703,-5.6165,-5.6973,-5.6973,-5.7703,-5.8934,-5.9358,-5.9742,-6.0204,-6.0627,-6.0781,-6.0781,-6.0781,-6.0781,-6.0781,-6.0781,-6.0781,-6.0781,-6.0781,-6.1089,-6.1627,-6.2474,-6.332,-6.4166,-6.5013,-6.5551,-6.5897,-6.5897,-6.5897,-6.5897,-6.5897,-6.5897,-6.5897,-6.5897,-6.5897,-6.5897,-6.5897,-6.5897,-6.5897,-6.5897,-6.6244,-6.6859,-6.7833,-6.8371,-6.9206,-7.0706,-7.0898,-7.0898,-7.0898,-7.0898,-7.0898,-7.0898,-7.0898,-7.0898,-7.0898,-7.0898,-7.0898,-7.0898,-7.0898,-7.0898,-7.0898,-7.0898,-7.0898,-7.0898,-7.0898,-7.0898,-7.0898,-7.0898,-7.0898,-7.0898,-7.0898,-7.0898,-7.0898,-7.0898,-7.0898,-7.0898,-7.0898,-7.0898,-7.0898,-7.0898,-7.0898,-7.0898,-7.0898,-7.0898,-7.0898,-5.5339,-5.4818,-5.4572,-5.5423,-5.5599,-5.5621,-5.5703,-5.5703,-5.5703,-5.5703,-5.5703,-5.5703,-5.5703,-5.5703,-5.5703,-5.5703,-5.5703,-5.5703,-5.5703,-5.5703,-5.5703,-5.5703,-5.5703,-5.5703,-5.5703,-5.5703,-5.5703,-5.5703,-5.5703,-5.5703,-5.5703,-5.5703,-5.6088,-5.678,-5.678,-5.7242,-5.8127,-5.8781,-5.9242,-5.955,-6.0281,-6.0666,-6.0781,-6.0781,-6.0781,-6.0781,-6.0781,-6.0781,-6.0781,-6.0781,-6.0781,-6.0935,-6.182,-6.2551,-6.3281,-6.432,-6.5128,-6.5705,-6.5859,-6.5897,-6.5897,-6.5897,-6.5897,-6.5897,-6.5897,-6.5897,-6.5897,-6.5897,-6.5897,-6.5897,-6.5897,-6.5897,-6.6282,-6.741,-6.7602,-6.8371,-7.0591,-7.0898,-7.0898,-7.0898,-7.0898,-7.0898,-7.0898,-7.0898,-7.0898,-7.0898,-7.0898,-7.0898,-7.0898,-7.0898,-7.0898,-7.0898,-7.0898,-7.0898,-7.0898,-7.0898,-7.0898,-7.0898,-7.0898,-7.0898,-7.0898,-7.0898,-7.0898,-7.0898,-7.0898,-7.0898,-7.0898,-7.0898,-7.0898,-7.0898,-7.0898,-7.0898,-7.0898,-7.0898,-7.0898,-7.0898,-5.4579,-5.3959,-5.3745,-5.4981,-5.5186,-5.5326,-5.566,-5.5703,-5.5703,-5.5703,-5.5703,-5.5703,-5.5703,-5.5703,-5.5703,-5.5703,-5.5703,-5.5703,-5.5703,-5.5703,-5.5703,-5.5703,-5.5703,-5.5703,-5.5703,-5.5703,-5.5703,-5.5703,-5.5703,-5.5703,-5.5703,-5.5703,-5.5742,-5.5857,-5.5857,-5.6357,-5.7165,-5.728,-5.8165,-5.9511,-5.9627,-6.0127,-6.0781,-6.0781,-6.0781,-6.0781,-6.0781,-6.0781,-6.0781,-6.0781,-6.0781,-6.0935,-6.182,-6.2166,-6.2551,-6.4128,-6.4666,-6.4936,-6.5705,-6.5897,-6.5897,-6.5897,-6.5897,-6.5897,-6.5897,-6.5897,-6.5897,-6.5897,-6.5897,-6.5897,-6.5897,-6.5897,-6.6244,-6.7333,-6.7564,-6.8371,-7.0591,-7.0898,-7.0898,-7.0898,-7.0898,-7.0898,-7.0898,-7.0898,-7.0898,-7.0898,-7.0898,-7.0898,-7.0898,-7.0898,-7.0898,-7.0898,-7.0898,-7.0898,-7.0898,-7.0898,-7.0898,-7.0898,-7.0898,-7.0898,-7.0898,-7.0898,-7.0898,-7.0898,-7.0898,-7.0898,-7.0898,-7.0898,-7.0898,-7.0898,-7.0898,-7.0898,-7.0898,-7.0898,-7.0898,-7.0898,-5.4503,-5.4182,-5.4156,-5.4977,-5.5107,-5.5237,-5.5621,-5.5703,-5.5703,-5.5703,-5.5703,-5.5703,-5.5703,-5.5703,-5.5703,-5.5703,-5.5703,-5.5703,-5.5703,-5.5703,-5.5703,-5.5703,-5.5703,-5.5703,-5.5703,-5.5703,-5.5703,-5.5703,-5.5703,-5.5703,-5.5703,-5.5703,-5.5703,-5.5703,-5.5703,-5.5895,-5.6319,-5.678,-5.7434,-5.8204,-5.9127,-5.9742,-6.0127,-6.0589,-6.0781,-6.0781,-6.0781,-6.0781,-6.0781,-6.0781,-6.0781,-6.0858,-6.1243,-6.1704,-6.2243,-6.2974,-6.3858,-6.4666,-6.5051,-6.5513,-6.5897,-6.5897,-6.5897,-6.5897,-6.5897,-6.5897,-6.5897,-6.5897,-6.5897,-6.5897,-6.5897,-6.5897,-6.6051,-6.6526,-6.741,-6.8706,-7.0656,-7.0898,-7.0898,-7.0898,-7.0898,-7.0898,-7.0898,-7.0898,-7.0898,-7.0898,-7.0898,-7.0898,-7.0898,-7.0898,-7.0898,-7.0898,-7.0898,-7.0898,-7.0898,-7.0898,-7.0898,-7.0898,-7.0898,-7.0898,-7.0898,-7.0898,-7.0898,-7.0898,-7.0898,-7.0898,-7.0898,-7.0898,-7.0898,-7.0898,-7.0898,-7.0898,-7.0898,-7.0898,-7.0898,-7.0898]}]]